[[{"header":{"parameterUnit":"m.s-1","parameterCategory":1,"la1":30.6,"la2":28.766,"lo1":-90.7593,"lo2":-88.6598,"dy":0.0162,"dx":0.0183,"nx":116,"ny":114,"refTime":"2023-03-25T12:00:00:Z","depth":0,"parameterNumber":2,"parameterNumberName":"U-component_of_WINDS"},"data":[0.0,0.0,0.0,0.0,0.0,0.0,0.0,0.0,0.0,0.0,0.0,0.0,0.0,0.0,0.0,0.0,0.0,0.0,0.0,0.0,0.0,0.0,0.0,0.0,0.0,0.0,0.0,0.0,0.0,0.0,0.0,0.0,0.0,0.0,0.0,0.0,0.0,0.0,0.0,0.0,0.0,0.0,0.0,0.0,0.0,0.0,0.0,0.0,0.0,0.0,0.0,0.0,0.0,0.0,0.0,0.0,0.0,0.0,0.0,0.0,0.0,0.0,0.0,0.0,0.0,0.0,0.0,0.0,0.0,0.0,0.0,0.0,0.0,0.0,0.0,0.0,0.0,0.0,0.0,0.0,0.0,0.0,0.0,0.0,0.0,0.0,0.0,0.0,0.0,0.0,0.0,0.0,0.0,0.0,0.0,0.0,0.0,0.0,0.0,0.0,0.0,0.0,0.0,0.0,0.0,0.0,0.0,0.0,0.0,0.0,0.0,0.0,0.0,0.0,0.0,0.0,0.0,0.0,0.0,0.0,0.0,0.0,0.0,0.0,0.0,0.0,0.0,0.0,0.0,0.0,0.0,0.0,0.0,0.0,0.0,0.0,0.0,0.0,0.0,0.0,0.0,0.0,0.0,0.0,0.0,0.0,0.0,0.0,0.0,0.0,0.0,0.0,0.0,0.0,0.0,0.0,0.0,0.0,0.0,0.0,0.0,0.0,0.0,0.0,0.0,0.0,0.0,0.0,0.0,0.0,0.0,0.0,0.0,0.0,0.0,0.0,0.0,0.0,0.0,0.0,0.0,0.0,0.0,0.0,0.0,0.0,0.0,0.0,0.0,0.0,0.0,0.0,0.0,0.0,0.0,0.0,0.0,0.0,0.0,0.0,0.0,0.0,0.0,0.0,0.0,0.0,0.0,0.0,0.0,0.0,0.0,0.0,0.0,0.0,0.0,0.0,0.0,0.0,0.0,0.0,0.0,0.0,0.0,0.0,0.0,0.0,0.0,0.0,0.0,0.0,0.0,0.0,0.0,0.0,0.0,0.0,0.0,0.0,0.0,0.0,0.0,0.0,0.0,0.0,0.0,0.0,0.0,0.0,0.0,0.0,0.0,0.0,0.0,0.0,0.0,0.0,0.0,0.0,0.0,0.0,0.0,0.0,0.0,0.0,0.0,0.0,0.0,0.0,0.0,0.0,0.0,0.0,0.0,0.0,0.0,0.0,0.0,0.0,0.0,0.0,0.0,0.0,0.0,0.0,0.0,0.0,0.0,0.0,0.0,0.0,0.0,0.0,0.0,0.0,0.0,0.0,0.0,0.0,0.0,0.0,0.0,0.0,0.0,0.0,0.0,0.0,0.0,0.0,0.0,0.0,0.0,0.0,0.0,0.0,0.0,0.0,0.0,0.0,0.0,0.0,0.0,0.0,0.0,0.0,0.0,0.0,0.0,0.0,0.0,0.0,0.0,0.0,0.0,0.0,0.0,0.0,0.0,0.0,0.0,0.0,0.0,0.0,0.0,0.0,0.0,0.0,0.0,0.0,0.0,0.0,0.0,0.0,0.0,0.0,0.0,0.0,0.0,0.0,0.0,0.0,0.0,0.0,0.0,0.0,0.0,0.0,0.0,0.0,0.0,0.0,0.0,0.0,0.0,0.0,0.0,0.0,0.0,0.0,0.0,0.0,0.0,0.0,0.0,0.0,0.0,0.0,0.0,0.0,0.0,0.0,0.0,0.0,0.0,0.0,0.0,0.0,0.0,0.0,0.0,0.0,0.0,0.0,0.0,0.0,0.0,0.0,0.0,0.0,0.0,0.0,0.0,0.0,0.0,0.0,0.0,0.0,0.0,0.0,0.0,0.0,0.0,0.0,0.0,0.0,0.0,0.0,0.0,0.0,0.0,0.0,0.0,0.0,0.0,0.0,0.0,0.0,0.0,0.0,0.0,0.0,0.0,0.0,0.0,0.0,0.0,0.0,0.0,0.0,0.0,0.0,0.0,0.0,0.0,0.0,0.0,0.0,0.0,0.0,0.0,0.0,0.0,0.0,0.0,0.0,0.0,0.0,0.0,0.0,0.0,0.0,0.0,0.0,0.0,0.0,0.0,0.0,0.0,0.0,0.0,0.0,0.0,0.0,0.0,0.0,0.0,0.0,0.0,0.0,0.0,0.0,0.0,0.0,0.0,0.0,0.0,0.0,0.0,0.0,0.0,0.0,0.0,0.0,0.0,0.0,0.0,0.0,0.0,0.0,0.0,0.0,0.0,0.0,0.0,0.0,0.0,0.0,0.0,0.0,0.0,0.0,0.0,0.0,0.0,0.0,0.0,0.0,0.0,0.0,0.0,0.0,0.0,0.0,0.0,0.0,0.0,0.0,0.0,0.0,0.0,0.0,0.0,0.0,0.0,0.0,0.0,0.0,0.0,0.0,0.0,0.0,0.0,0.0,0.0,0.0,0.0,0.0,0.0,0.0,0.0,0.0,0.0,0.0,0.0,0.0,0.0,0.0,0.0,0.0,0.0,0.0,0.0,0.0,0.0,0.0,0.0,0.0,0.0,0.0,0.0,0.0,0.0,0.0,0.0,0.0,0.0,0.0,0.0,0.0,0.0,0.0,0.0,0.0,0.0,0.0,0.0,0.0,0.0,0.0,0.0,0.0,0.0,0.0,0.0,0.0,0.0,0.0,0.0,0.0,0.0,0.0,0.0,0.0,0.0,0.0,0.0,0.0,0.0,0.0,0.0,0.0,0.0,0.0,0.0,0.0,0.0,0.0,0.0,0.0,0.0,0.0,0.0,0.0,0.0,0.0,0.0,0.0,0.0,0.0,0.0,0.0,0.0,0.0,0.0,0.0,0.0,0.0,0.0,0.0,0.0,0.0,0.0,0.0,0.0,0.0,0.0,0.0,0.0,0.0,0.0,0.0,0.0,0.0,0.0,0.0,0.0,0.0,0.0,0.0,0.0,0.0,0.0,0.0,0.0,0.0,0.0,0.0,0.0,0.0,0.0,0.0,0.0,0.0,0.0,0.0,0.0,0.0,0.0,0.0,0.0,0.0,0.0,0.0,0.0,0.0,0.0,0.0,0.0,0.0,0.0,0.0,0.0,0.0,0.0,0.0,0.0,0.0,0.0,0.0,0.0,0.0,0.0,0.0,0.0,0.0,0.0,0.0,0.0,0.0,0.0,0.0,0.0,0.0,0.0,0.0,0.0,0.0,0.0,0.0,0.0,0.0,0.0,0.0,0.0,0.0,0.0,0.0,0.0,0.0,0.0,0.0,0.0,0.0,0.0,0.0,0.0,0.0,0.0,0.0,0.0,0.0,0.0,0.0,0.0,0.0,0.0,0.0,0.0,0.0,0.0,0.0,0.0,0.0,0.0,0.0,0.0,0.0,0.0,0.0,0.0,0.0,0.0,0.0,0.0,0.0,0.0,0.0,0.0,0.0,0.0,0.0,0.0,0.0,0.0,0.0,0.0,0.0,0.0,0.0,0.0,0.0,0.0,0.0,0.0,0.0,0.0,0.0,0.0,0.0,0.0,0.0,0.0,0.0,0.0,0.0,0.0,0.0,0.0,0.0,0.0,0.0,0.0,0.0,0.0,0.0,0.0,0.0,0.0,0.0,0.0,0.0,0.0,0.0,0.0,0.0,0.0,0.0,0.0,0.0,0.0,0.0,0.0,0.0,0.0,0.0,0.0,0.0,0.0,0.0,0.0,0.0,0.0,0.0,0.0,0.0,0.0,0.0,0.0,0.0,0.0,0.0,0.0,0.0,0.0,0.0,0.0,0.0,0.0,0.0,0.0,0.0,0.0,0.0,0.0,0.0,0.0,0.0,0.0,0.0,0.0,0.0,0.0,0.0,0.0,0.0,0.0,0.0,0.0,0.0,0.0,0.0,0.0,0.0,0.0,0.0,0.0,0.0,0.0,0.0,0.0,0.0,0.0,0.0,0.0,0.0,0.0,0.0,0.0,0.0,0.0,0.0,0.0,0.0,0.0,0.0,0.0,0.0,0.0,0.0,0.0,0.0,0.0,0.0,0.0,0.0,0.0,0.0,0.0,0.0,0.0,0.0,0.0,0.0,0.0,0.0,0.0,0.0,0.0,0.0,0.0,0.0,0.0,0.0,0.0,0.0,0.0,0.0,0.0,0.0,0.0,0.0,0.0,0.0,0.0,0.0,0.0,0.0,0.0,0.0,0.0,0.0,0.0,0.0,0.0,0.0,0.0,0.0,0.0,0.0,0.0,0.0,0.0,0.0,0.0,0.0,0.0,0.0,0.0,0.0,0.0,0.0,0.0,0.0,0.0,0.0,0.0,0.0,0.0,0.0,0.0,0.0,0.0,0.0,0.0,0.0,0.0,0.0,0.0,0.0,0.0,0.0,0.0,0.0,0.0,0.0,0.0,0.0,0.0,0.0,0.0,0.0,0.0,0.0,0.0,0.0,0.0,0.0,0.0,0.0,0.0,0.0,0.0,0.0,0.0,0.0,0.0,0.0,0.0,0.0,0.0,0.0,0.0,0.0,0.0,0.0,0.0,0.0,0.0,0.0,0.0,0.0,0.0,0.0,0.0,0.0,0.0,0.0,0.0,0.0,0.0,0.0,0.0,0.0,0.0,0.0,0.0,0.0,0.0,0.0,0.0,0.0,0.0,0.0,0.0,0.0,0.0,0.0,0.0,0.0,0.0,0.0,0.0,0.0,0.0,0.0,0.0,0.0,0.0,0.0,0.0,0.0,0.0,0.0,0.0,0.0,0.0,0.0,0.0,0.0,0.0,0.0,0.0,0.0,0.0,0.0,0.0,0.0,0.0,0.0,0.0,0.0,0.0,0.0,0.0,0.0,0.0,0.0,0.0,0.0,0.0,0.0,0.0,0.0,0.0,0.0,0.0,0.0,0.0,0.0,0.0,0.0,0.0,0.0,0.0,0.0,0.0,0.0,0.0,0.0,0.0,0.0,0.0,0.0,0.0,0.0,0.0,0.0,0.0,0.0,0.0,0.0,0.0,0.0,0.0,0.0,0.0,0.0,0.0,0.0,0.0,0.0,0.0,0.0,0.0,0.0,0.0,0.0,0.0,0.0,0.0,0.0,0.0,0.0,0.0,0.0,0.0,0.0,0.0,0.0,0.0,0.0,0.0,0.0,0.0,0.0,0.0,0.0,0.0,0.0,0.0,0.0,0.0,0.0,0.0,0.0,0.0,0.0,0.0,0.0,0.0,0.0,0.0,0.0,0.0,0.0,0.0,0.0,0.0,0.0,0.0,0.0,0.0,0.0,0.0,0.0,0.0,0.0,0.0,0.0,0.0,0.0,0.0,0.0,0.0,0.0,0.0,0.0,0.0,0.0,0.0,0.0,0.0,0.0,0.0,0.0,0.0,0.0,0.0,0.0,0.0,0.0,0.0,0.0,0.0,0.0,0.0,0.0,0.0,0.0,0.0,0.0,0.0,0.0,0.0,0.0,0.0,0.0,0.0,0.0,0.0,0.0,0.0,0.0,0.0,0.0,0.0,0.0,0.0,0.0,0.0,0.0,0.0,0.0,0.0,0.0,0.0,0.0,0.0,0.0,0.0,0.0,0.0,0.0,0.0,0.0,0.0,0.0,0.0,0.0,0.0,0.0,0.0,0.0,0.0,0.0,0.0,0.0,0.0,0.0,0.0,0.0,0.0,0.0,0.0,0.0,0.0,0.0,0.0,0.0,0.0,0.0,0.0,0.0,0.0,0.0,0.0,0.0,0.0,0.0,0.0,0.0,0.0,0.0,0.0,0.0,0.0,0.0,0.0,0.0,0.0,0.0,0.0,0.0,0.0,0.0,0.0,0.0,0.0,0.0,0.0,0.0,0.0,0.0,0.0,0.0,0.0,0.0,0.0,0.0,0.0,0.0,0.0,0.0,0.0,0.0,0.0,0.0,0.0,0.0,0.0,0.0,0.0,0.0,0.0,0.0,0.0,0.0,0.0,0.0,0.0,0.0,0.0,0.0,0.0,0.0,0.0,0.0,0.0,0.0,0.0,0.0,0.0,0.0,0.0,0.0,0.0,0.0,0.0,0.0,0.0,0.0,0.0,0.0,0.0,0.0,0.0,0.0,0.0,0.0,0.0,0.0,-4.2091,0.0,0.0,0.0,0.0,0.0,0.0,0.0,0.0,0.0,0.0,0.0,0.0,0.0,0.0,0.0,0.0,0.0,0.0,0.0,0.0,0.0,0.0,0.0,0.0,0.0,0.0,0.0,0.0,0.0,0.0,0.0,0.0,0.0,0.0,0.0,0.0,0.0,0.0,-3.9373,-3.9373,-3.9373,-3.9373,-3.9373,-3.9373,-3.9373,0.0,0.0,0.0,0.0,0.0,0.0,0.0,0.0,0.0,0.0,0.0,0.0,0.0,0.0,0.0,0.0,0.0,0.0,0.0,0.0,0.0,0.0,0.0,0.0,0.0,0.0,0.0,0.0,0.0,0.0,0.0,0.0,0.0,0.0,0.0,0.0,0.0,0.0,0.0,0.0,0.0,0.0,0.0,0.0,0.0,0.0,0.0,0.0,0.0,0.0,0.0,0.0,0.0,0.0,0.0,0.0,0.0,0.0,0.0,0.0,0.0,0.0,0.0,0.0,0.0,0.0,0.0,0.0,0.0,0.0,0.0,-4.2594,0.0,0.0,0.0,0.0,0.0,0.0,0.0,0.0,0.0,0.0,0.0,0.0,0.0,0.0,0.0,0.0,0.0,0.0,0.0,0.0,0.0,0.0,0.0,0.0,-3.9373,-3.9373,-3.9373,-3.9373,0.0,0.0,0.0,0.0,0.0,0.0,0.0,-3.9373,-3.9373,-3.9373,-3.9373,-3.9373,-3.9373,-3.9373,-3.9373,-3.9373,-3.9373,0.0,0.0,0.0,0.0,0.0,0.0,0.0,0.0,0.0,0.0,0.0,0.0,0.0,0.0,0.0,0.0,0.0,0.0,0.0,0.0,0.0,0.0,0.0,0.0,0.0,0.0,0.0,0.0,0.0,0.0,0.0,0.0,0.0,0.0,0.0,0.0,0.0,0.0,0.0,0.0,0.0,0.0,0.0,0.0,0.0,0.0,0.0,0.0,0.0,0.0,0.0,0.0,0.0,0.0,0.0,0.0,0.0,0.0,0.0,0.0,0.0,0.0,0.0,-4.5005,-4.4548,-4.451,-4.3654,-4.3732,-4.4524,-4.4078,-4.3514,-4.2922,0.0,0.0,0.0,0.0,0.0,0.0,0.0,0.0,0.0,0.0,0.0,0.0,0.0,0.0,0.0,0.0,0.0,0.0,0.0,0.0,0.0,0.0,-3.9373,-3.9373,-3.9373,-3.9373,-3.9373,-3.9373,0.0,0.0,0.0,0.0,0.0,-3.9373,-3.9373,-3.9373,-3.9373,-3.9373,-3.9373,-3.9373,-3.9373,-3.9373,-3.9373,-3.9373,-3.9373,-3.9373,0.0,0.0,0.0,0.0,0.0,0.0,0.0,0.0,0.0,0.0,0.0,0.0,0.0,0.0,0.0,0.0,0.0,0.0,0.0,0.0,0.0,0.0,0.0,0.0,0.0,0.0,0.0,0.0,0.0,0.0,0.0,0.0,0.0,0.0,0.0,0.0,0.0,0.0,0.0,0.0,0.0,-4.305,-4.305,0.0,0.0,0.0,0.0,0.0,0.0,0.0,0.0,0.0,0.0,0.0,0.0,0.0,-4.5814,-4.4968,-4.4968,-4.4968,-4.4968,-4.3966,-4.3488,-4.3488,-4.3369,-4.3369,-4.3497,-4.3434,0.0,-4.3572,-4.2278,0.0,0.0,0.0,0.0,0.0,0.0,0.0,0.0,0.0,0.0,0.0,0.0,0.0,0.0,0.0,0.0,0.0,0.0,0.0,0.0,0.0,-3.9373,-3.9373,-3.9373,-3.9373,-3.9373,-3.9373,-3.9373,0.0,0.0,0.0,-3.9373,-3.9373,-3.9373,-3.9373,-3.9373,-3.9373,-3.9373,-3.9373,-3.9373,-3.9373,-3.9373,-3.9373,-3.9373,-3.9373,-3.9373,0.0,0.0,0.0,0.0,0.0,0.0,0.0,0.0,0.0,0.0,0.0,0.0,0.0,0.0,0.0,0.0,0.0,0.0,0.0,0.0,0.0,0.0,0.0,0.0,0.0,0.0,0.0,0.0,0.0,0.0,0.0,0.0,0.0,0.0,0.0,0.0,0.0,0.0,0.0,-4.315,-4.329,-4.329,-4.4197,-4.4396,0.0,0.0,0.0,0.0,0.0,0.0,0.0,0.0,0.0,-4.4004,-4.4365,-4.4365,-4.3966,-4.3966,-4.3966,-4.3966,-4.3527,-4.329,-4.329,-4.329,-4.329,-4.329,-4.329,-4.3386,-4.3441,-4.2775,-4.2809,-4.3311,0.0,0.0,0.0,0.0,-4.2962,-4.2491,0.0,0.0,0.0,0.0,0.0,0.0,0.0,0.0,0.0,0.0,0.0,0.0,-3.9373,-3.9373,-3.9373,-3.9373,-3.9373,-3.9373,-3.9373,-3.9373,-3.9373,-3.9373,-3.9373,-3.9373,-3.9373,-3.9373,-3.9373,-3.9373,-3.9373,-3.9373,-3.9373,-3.9373,-3.9373,-3.9373,-3.9373,-3.9373,-3.9373,-3.9373,-3.9373,-3.9373,0.0,0.0,0.0,0.0,0.0,0.0,0.0,0.0,0.0,0.0,0.0,0.0,0.0,0.0,0.0,0.0,0.0,0.0,0.0,0.0,0.0,0.0,0.0,0.0,0.0,0.0,0.0,0.0,0.0,0.0,0.0,0.0,0.0,0.0,0.0,0.0,0.0,-4.329,-4.329,-4.329,-4.3966,-4.409,0.0,0.0,0.0,0.0,0.0,0.0,-4.3329,-4.4004,-4.4082,-4.3329,-4.329,-4.329,-4.329,-4.329,-4.329,-4.329,-4.329,-4.329,-4.329,-4.329,-4.329,-4.329,-4.329,-4.329,-4.329,-4.329,-4.3732,-4.4396,-4.4396,-4.4396,-4.4396,-4.4396,-4.3966,-4.329,0.0,0.0,0.0,0.0,0.0,0.0,0.0,0.0,0.0,0.0,0.0,-3.9373,-3.9373,-3.9373,-3.9373,-3.9373,-3.9373,-3.9373,-3.9373,-3.9373,-3.9373,-3.9373,-3.9373,-3.9373,-3.9373,-3.9373,-3.9373,-3.9373,-3.9373,-3.9373,-3.9373,-3.9373,-3.9373,-3.9373,-3.9373,-3.9373,-3.9373,-3.9373,-3.9373,-3.9373,-3.9373,0.0,0.0,0.0,0.0,0.0,0.0,0.0,0.0,0.0,0.0,0.0,0.0,0.0,0.0,0.0,0.0,0.0,0.0,0.0,0.0,0.0,0.0,0.0,0.0,0.0,0.0,0.0,0.0,0.0,0.0,0.0,0.0,0.0,0.0,0.0,0.0,0.0,0.0,-4.329,-4.3329,0.0,0.0,0.0,0.0,-4.329,-4.3329,-4.3369,-4.329,-4.3329,-4.3369,-4.329,-4.329,-4.329,-4.329,-4.329,-4.329,-4.329,-4.329,-4.329,-4.329,-4.329,-4.329,-4.329,-4.329,-4.329,-4.329,-4.329,-4.3329,-4.3369,-4.3369,-4.3369,-4.3369,-4.3369,-4.3329,-4.329,0.0,0.0,0.0,0.0,0.0,0.0,0.0,0.0,-3.9373,-3.9373,-3.9373,-3.9373,-3.9373,-3.9373,-3.9373,-3.9373,-3.9373,-3.9373,-3.9373,-3.9373,-3.9373,-3.9373,-3.9373,-3.9373,-3.9373,-3.9373,-3.9373,-3.9373,-3.9373,-3.9373,-3.9373,-3.9373,-3.9373,-3.9373,-3.9373,-3.9373,-3.9373,-3.9373,-3.9373,-3.9373,-3.9373,-3.9373,0.0,0.0,0.0,0.0,0.0,0.0,0.0,0.0,0.0,0.0,0.0,0.0,0.0,0.0,0.0,0.0,0.0,0.0,0.0,0.0,0.0,0.0,0.0,0.0,0.0,0.0,0.0,0.0,0.0,0.0,0.0,0.0,0.0,0.0,0.0,0.0,0.0,-4.329,-4.329,0.0,-4.329,-4.329,-4.329,-4.329,-4.329,-4.329,-4.329,-4.329,-4.329,-4.329,-4.329,-4.329,-4.329,-4.329,-4.329,-4.329,-4.329,-4.329,-4.329,-4.329,-4.329,-4.329,-4.329,-4.329,-4.329,-4.329,-4.329,-4.329,-4.329,-4.329,-4.329,-4.329,-4.329,-4.329,0.0,0.0,0.0,0.0,0.0,0.0,0.0,0.0,-3.9373,-3.9373,-3.9373,-3.9373,-3.9373,-3.9373,-3.9373,-3.9373,-3.9373,-3.9373,-3.9373,-3.9373,-3.9373,-3.9373,-3.9373,-3.9373,-3.9373,-3.9373,-3.9373,-3.9373,-3.9373,-3.9373,-3.9373,-3.9373,-3.9373,-3.9373,-3.9373,-3.9373,-3.9373,-3.9373,-3.9373,-3.9373,-3.9373,-3.9373,-3.9373,0.0,0.0,0.0,0.0,0.0,0.0,0.0,0.0,0.0,0.0,0.0,0.0,0.0,0.0,0.0,0.0,0.0,0.0,0.0,0.0,0.0,0.0,0.0,0.0,0.0,0.0,0.0,0.0,0.0,0.0,0.0,0.0,0.0,0.0,0.0,-4.329,-4.329,-4.329,-4.329,-4.329,-4.329,-4.329,-4.329,-4.329,-4.329,-4.329,-4.329,-4.329,-4.329,-4.329,-4.329,-4.329,-4.329,-4.329,-4.329,-4.329,-4.329,-4.329,-4.329,-4.329,-4.329,-4.329,-4.329,-4.329,-4.329,-4.329,-4.329,-4.329,-4.329,-4.329,-4.329,-4.329,-4.329,0.0,0.0,0.0,0.0,0.0,0.0,0.0,-3.9439,-3.9403,-3.9373,-3.9439,-3.9403,-3.9373,-3.9373,-3.9373,-3.9373,-3.9373,-3.9373,-3.9373,-3.9373,-3.9373,-3.9373,-3.9373,-3.9373,-3.9373,-3.9373,-3.9373,-3.9373,-3.9373,-3.9373,-3.9373,-3.9373,-3.9373,-3.9373,-3.9373,-3.9373,-3.9373,-3.9373,-3.9373,-3.9373,-3.9373,-3.9373,-3.9373,0.0,0.0,0.0,0.0,0.0,0.0,0.0,0.0,0.0,0.0,0.0,0.0,0.0,0.0,0.0,0.0,0.0,0.0,0.0,0.0,0.0,0.0,0.0,0.0,0.0,0.0,0.0,0.0,0.0,0.0,0.0,0.0,0.0,-4.329,-4.329,-4.329,-4.329,-4.329,-4.329,-4.329,-4.329,-4.329,-4.329,-4.329,-4.329,-4.329,-4.329,-4.329,-4.329,-4.329,-4.329,-4.329,-4.329,-4.329,-4.329,-4.329,-4.329,-4.329,-4.329,-4.329,-4.329,-4.329,-4.329,-4.329,-4.329,-4.329,-4.329,-4.329,-4.329,-4.329,-4.329,-4.329,-4.329,0.0,0.0,0.0,0.0,0.0,0.0,0.0,-3.9828,-3.9948,-3.9433,-3.9828,-3.9948,-3.9433,-3.9373,-3.9373,-3.9373,-3.9373,-3.9373,-3.9373,-3.9373,-3.9373,-3.9373,-3.9373,-3.9373,-3.9373,-3.9373,-3.9373,-3.9373,-3.9373,-3.9373,-3.9373,-3.9373,-3.9373,-3.9373,-3.9373,-3.9373,-3.9373,-3.9373,-3.9373,-3.9373,-3.9373,-3.9373,-3.9373,0.0,0.0,0.0,0.0,0.0,0.0,0.0,0.0,0.0,0.0,0.0,0.0,0.0,0.0,0.0,0.0,0.0,0.0,0.0,0.0,0.0,0.0,0.0,0.0,0.0,0.0,0.0,0.0,0.0,0.0,0.0,0.0,-4.329,-4.329,-4.329,-4.329,-4.329,-4.329,-4.329,-4.329,-4.329,-4.329,-4.329,-4.329,-4.329,-4.329,-4.329,-4.329,-4.329,-4.329,-4.329,-4.329,-4.329,-4.329,-4.329,-4.329,-4.329,-4.329,-4.329,-4.329,-4.329,-4.329,-4.329,-4.329,-4.329,-4.329,-4.329,-4.329,-4.329,-4.329,-4.329,-4.329,-4.329,0.0,0.0,0.0,0.0,0.0,0.0,0.0,-4.0576,-4.0666,-4.0277,-4.0576,-4.0666,-4.0277,-4.0008,-3.9828,-3.9828,-3.9589,-3.9373,-3.9373,-3.9373,-3.9373,-3.9373,-3.9373,-3.9373,-3.9373,-3.9373,-3.9373,-3.9373,-3.9373,-3.9373,-3.9373,-3.9373,-3.9373,-3.9373,-3.9373,-3.9373,-3.9373,-3.9373,-3.9373,-3.9373,-3.9373,-3.9373,-3.9373,-3.9373,-4.0247,-4.1422,-4.1422,-4.2222,-4.329,-4.329,0.0,0.0,0.0,0.0,0.0,0.0,0.0,0.0,0.0,0.0,0.0,0.0,0.0,0.0,0.0,0.0,0.0,0.0,0.0,0.0,0.0,0.0,0.0,0.0,-4.329,-4.329,-4.329,-4.329,-4.329,-4.329,-4.329,-4.329,-4.329,-4.329,-4.329,-4.329,-4.329,-4.329,-4.329,-4.329,-4.329,-4.329,-4.329,-4.329,-4.329,-4.3559,-4.3708,-4.3708,-4.4018,-4.4167,-4.4167,-4.4167,-4.4167,0.0,-4.4167,-4.4167,-4.4167,-4.4167,-4.4167,0.0,0.0,0.0,0.0,0.0,-4.329,-4.329,0.0,0.0,0.0,0.0,0.0,0.0,0.0,-4.1482,-4.1512,-4.1384,-4.1482,-4.1474,-4.1384,-4.0876,-4.0516,-4.0516,-3.9978,-3.9619,-3.9529,-3.9469,-3.9373,-3.9373,-3.9373,-3.9373,-3.9373,-3.9373,-3.9373,-3.9373,-3.9373,-3.9373,-3.9373,-3.9373,-3.9373,-3.9373,-3.9373,-3.9373,-3.9373,-3.9373,-3.9373,-3.9373,-3.9373,-3.9373,-3.9403,-3.9463,-4.0307,-4.1384,-4.1512,-4.2282,-4.329,-4.329,0.0,0.0,0.0,0.0,0.0,0.0,0.0,0.0,0.0,0.0,0.0,0.0,0.0,0.0,0.0,0.0,0.0,0.0,0.0,0.0,0.0,0.0,0.0,0.0,-4.329,-4.329,-4.329,-4.329,-4.329,-4.329,-4.329,-4.329,-4.329,-4.329,-4.329,-4.329,-4.329,-4.329,-4.329,0.0,0.0,0.0,0.0,-4.3529,-4.3529,-4.4137,-4.4436,-4.4436,-4.5005,-4.5304,-4.5304,-4.5304,-4.5304,-4.5304,-4.5304,-4.5304,-4.5304,-4.5304,-4.5304,-4.5185,-4.4018,-4.3529,-4.3529,-4.3529,-4.3529,-4.3529,0.0,0.0,0.0,0.0,0.0,0.0,0.0,-4.1871,-4.2021,-4.1444,-4.1871,-4.2021,-4.1482,-4.1265,-4.1205,-4.1205,-4.1085,-4.0786,-4.0247,-3.9709,-3.9373,-3.9373,-3.9373,-3.9373,-3.9373,-3.9373,-3.9373,-3.9373,-3.9373,-3.9373,-3.9373,-3.9373,-3.9373,-3.9373,-3.9373,-3.9373,-3.9373,-3.9373,-3.9373,-3.9373,-3.9373,-3.9373,-3.9433,-4.0008,-4.0696,-4.1444,-4.2021,-4.2671,-4.329,-4.329,-4.329,-4.329,-4.329,-4.329,0.0,0.0,0.0,0.0,0.0,0.0,0.0,0.0,0.0,0.0,0.0,0.0,0.0,0.0,0.0,0.0,0.0,0.0,0.0,-4.329,-4.329,-4.329,-4.329,-4.329,-4.329,-4.329,-4.329,-4.329,-4.329,-4.329,-4.329,-4.329,-4.329,-4.329,-4.329,-4.3798,0.0,-4.4137,-4.4646,-4.4915,-4.4915,-4.5035,-4.5095,-4.5095,0.0,0.0,-4.5304,-4.5304,-4.5304,-4.5304,-4.5304,-4.5304,-4.5304,-4.5304,-4.5304,-4.5274,-4.5005,-4.4915,-4.4915,-4.4915,-4.4915,-4.4915,0.0,0.0,0.0,0.0,0.0,0.0,0.0,-4.2641,-4.2731,-4.2402,-4.2641,-4.2731,-4.2402,-4.2073,-4.1901,-4.1901,-4.1602,-4.1115,-4.0457,-4.0098,-3.9768,-3.9403,-3.9373,-3.9373,-3.9373,-3.9373,-3.9373,-3.9373,-3.9373,-3.9373,-3.9373,-3.9373,-3.9373,-3.9373,-3.9373,-3.9373,-3.9373,-3.9373,-3.9373,-3.9373,-3.9373,-3.9619,-3.9948,-4.0277,-4.0816,-4.1512,-4.2171,-4.2791,-4.329,-4.329,-4.329,-4.329,-4.329,-4.329,-4.329,0.0,0.0,0.0,0.0,0.0,0.0,0.0,0.0,0.0,0.0,0.0,0.0,0.0,0.0,-4.329,0.0,0.0,-4.329,-4.329,-4.329,-4.329,-4.329,-4.329,-4.329,-4.329,-4.329,-4.329,-4.329,-4.329,-4.3439,-4.3768,-4.3798,-4.3917,-4.4287,-4.4616,-4.4796,-4.4796,-4.5125,-4.5304,-4.5304,-4.5633,-4.5813,-4.5813,-4.6142,-4.6292,-4.6292,-4.6292,-4.6292,-4.6292,-4.6292,-4.6292,-4.6292,-4.6292,-4.6292,-4.6292,-4.6292,-4.5873,-4.5304,-4.5304,-4.5304,-4.5304,0.0,0.0,0.0,0.0,0.0,0.0,0.0,-4.329,-4.329,-4.329,-4.329,-4.329,-4.329,-4.288,-4.259,-4.259,-4.1991,-4.1354,-4.0816,-4.0546,-4.0157,-3.9619,-3.9463,-3.9373,-3.9373,-3.9373,-3.9373,-3.9373,-3.9373,-3.9373,-3.9373,-3.9373,-3.9373,-3.9373,-3.9373,-3.9373,-3.9373,-3.9373,-3.9373,-3.9403,-3.9559,-3.9918,-4.0427,-4.0696,-4.1115,-4.1692,-4.2351,-4.288,-4.329,-4.329,-4.329,-4.329,-4.329,-4.329,-4.329,-4.329,-4.329,0.0,0.0,0.0,0.0,0.0,0.0,0.0,0.0,-4.329,-4.329,-4.329,-4.329,-4.329,-4.329,-4.329,-4.329,-4.329,-4.329,-4.329,-4.329,-4.329,-4.329,-4.329,-4.329,-4.3349,-4.3469,-4.3469,-4.3768,-4.4466,-4.4496,-4.4736,-4.5274,-4.5424,-4.5484,-4.5484,-4.5633,-4.5693,-4.5693,-4.6232,-4.6459,-4.6531,-4.704,-4.7309,-4.7309,-4.7309,-4.7309,-4.7309,-4.7309,-4.7309,-4.7309,-4.7309,-4.7309,-4.7309,-4.7538,-4.693,-4.5955,-4.5747,-4.5693,-4.5693,0.0,0.0,0.0,0.0,0.0,0.0,0.0,0.0,-4.329,-4.329,-4.329,-4.329,-4.329,-4.323,-4.32,-4.32,-4.2611,-4.2261,-4.2171,-4.1055,-4.0367,-4.0277,-3.9738,-3.9373,-3.9373,-3.9373,-3.9373,-3.9373,-3.9373,-3.9373,-3.9373,-3.9373,-3.9373,-3.9373,-3.9373,-3.9373,-3.9373,-3.9373,-3.9373,-3.9433,-4.0068,-4.0337,-4.0516,-4.1722,-4.2231,-4.2381,-4.3,-4.323,-4.329,-4.329,-4.329,-4.329,-4.329,-4.329,-4.329,-4.329,-4.329,-4.329,-4.329,-4.329,-4.329,-4.329,-4.329,-4.329,0.0,0.0,-4.329,-4.329,-4.329,-4.329,-4.329,-4.329,-4.329,-4.329,-4.329,-4.329,-4.329,-4.329,-4.329,-4.329,-4.329,-4.3529,-4.4137,-4.4197,-4.4466,-4.5125,-4.5185,-4.5214,-4.5304,-4.5873,-4.6202,-4.6202,-4.677,-4.707,-4.707,-4.716,-4.7189,-4.7189,-4.7279,-4.7309,-4.7309,-4.7309,-4.7309,-4.7309,-4.7309,-4.7309,-4.7309,-4.7309,-4.7309,-4.7366,-4.8293,-4.8543,-4.8296,-4.7425,-4.707,-4.707,0.0,0.0,0.0,0.0,0.0,0.0,0.0,0.0,0.0,-4.329,-4.329,-4.329,-4.329,-4.329,-4.329,-4.329,-4.309,-4.2761,-4.241,-4.1901,-4.1205,-4.0427,-4.0127,-3.9798,-3.9403,-3.9373,-3.9373,-3.9373,-3.9373,-3.9373,-3.9373,-3.9373,-3.9373,-3.9373,-3.9373,-3.9373,-3.9373,-3.9373,-3.9649,-4.0008,-4.0277,-4.0846,-4.1632,-4.2201,-4.265,-4.297,-4.32,-4.329,0.0,-4.329,-4.329,-4.329,-4.329,-4.329,-4.329,-4.329,-4.329,-4.329,-4.329,-4.329,-4.329,-4.329,-4.329,-4.329,-4.329,-4.329,-4.329,-4.329,-4.329,-4.329,-4.329,-4.329,-4.329,0.0,-4.329,-4.329,-4.329,-4.329,-4.3439,-4.3828,-4.3858,-4.4018,-4.4287,-4.4646,-4.5155,-4.5843,-4.5903,-4.6052,-4.6441,-4.6741,-4.689,-4.689,-4.716,-4.7309,-4.7309,-4.7309,-4.7309,-4.7309,-4.7309,-4.7624,-4.8198,-4.8607,-4.9396,-5.0393,-5.0393,-5.0393,-5.0393,-5.0393,-4.9976,-4.9457,-4.9892,-4.9639,-4.9009,-4.8389,-4.8168,-4.8115,0.0,0.0,0.0,0.0,0.0,0.0,0.0,0.0,0.0,0.0,-4.329,-4.329,-4.329,-4.329,-4.329,-4.329,-4.329,-4.312,-4.2671,-4.25,-4.1961,-4.0995,-4.0756,-4.0367,-3.9709,-3.9679,-3.9619,-3.9373,-3.9373,-3.9373,-3.9373,-3.9373,-3.9373,-3.9373,-3.9373,-3.9373,-3.9403,-3.9619,-3.9978,-4.0427,-4.0786,-4.1504,-4.241,-4.259,-4.291,-4.329,-4.329,-4.329,-4.329,-4.329,-4.329,-4.329,-4.329,-4.329,-4.329,-4.329,-4.329,-4.329,-4.329,-4.329,-4.329,-4.329,-4.329,-4.329,-4.329,-4.329,-4.329,-4.329,-4.329,-4.329,-4.329,-4.329,-4.329,-4.329,-4.329,-4.329,-4.329,-4.3439,-4.3738,-4.4257,-4.4646,-4.4855,-4.4855,-4.5304,-4.5873,-4.6561,-4.6591,-4.6929,-4.7649,-4.7452,-4.7409,-4.7679,-4.7452,-4.7542,-4.8036,-4.8036,-4.8298,-4.8748,-4.8748,-4.9138,-4.985,-5.0071,-5.1067,-5.2589,-5.1982,-5.1828,-5.2114,-5.1786,-5.1194,-5.047,-5.0739,-5.0414,-4.9654,-4.9435,-4.9191,-4.8845,0.0,0.0,0.0,0.0,0.0,0.0,0.0,0.0,0.0,0.0,0.0,0.0,0.0,-4.329,-4.329,-4.329,-4.329,-4.329,-4.326,-4.2701,-4.2381,-4.2351,-4.1722,-4.1055,-4.0397,-4.0367,-4.0068,-3.9373,-3.9373,-3.9373,-3.9373,-3.9373,-3.9373,-3.9373,-3.9373,-3.9373,-3.9469,-4.0098,-4.0397,-4.0516,-4.1841,-4.2351,-4.247,-4.306,-4.326,-4.329,-4.329,-4.329,-4.329,-4.329,-4.329,-4.329,-4.329,-4.329,-4.329,-4.329,-4.329,-4.329,-4.329,-4.329,-4.329,-4.329,-4.329,-4.329,-4.329,-4.329,-4.329,-4.329,-4.329,-4.329,-4.329,-4.329,-4.329,-4.329,-4.329,-4.329,-4.329,-4.3858,-4.4287,-4.4317,-4.5442,-4.6219,0.0,-4.6249,-4.6561,-4.7219,-4.7279,-4.7691,-4.8718,-4.7849,-4.7764,-4.8718,-4.7807,-4.8109,-4.9812,-4.9812,-5.0693,-5.2413,-5.2413,-5.2485,-5.2453,-5.1351,-5.1507,-5.2477,-5.0314,-4.9965,-5.0867,-4.9819,-4.9389,-4.9434,-5.0414,-5.077,-5.077,-5.0739,-5.0123,-4.9284,0.0,0.0,0.0,0.0,0.0,0.0,0.0,0.0,0.0,0.0,0.0,0.0,0.0,0.0,0.0,0.0,-4.329,-4.329,-4.329,-4.312,-4.2821,-4.241,-4.2201,-4.1752,-4.1055,-4.1055,-4.0935,-4.0726,-4.0277,-4.0068,-4.0068,-3.9619,-3.9649,-4.0068,-4.0068,-4.0307,-4.0726,-4.0965,-4.1294,-4.1782,-4.2231,-4.2611,-4.303,-4.32,-4.329,-4.329,0.0,-4.329,-4.329,-4.329,-4.329,-4.329,-4.329,-4.329,-4.329,-4.329,-4.329,-4.329,-4.329,-4.329,-4.329,-4.329,-4.329,-4.329,-4.329,-4.329,-4.329,-4.329,-4.329,-4.329,-4.329,-4.329,-4.3527,-4.4197,-4.3732,-4.3647,-4.4747,-4.4539,-4.4646,-4.5502,-4.601,0.0,0.0,0.0,0.0,-4.7279,-4.7309,-4.7452,-4.7807,-4.7916,-4.8113,-4.8473,-4.9267,-4.9647,-4.9486,-5.0217,-5.0902,-5.1497,-5.2195,-5.2813,-5.3262,-5.2813,-5.3108,-5.3885,-5.3134,-5.3006,-5.3344,-5.2964,-5.2349,-5.172,-5.2043,-5.172,-5.1061,-5.1061,-5.0833,-5.0451,0.0,0.0,0.0,0.0,0.0,0.0,0.0,0.0,0.0,0.0,0.0,0.0,0.0,0.0,0.0,0.0,0.0,-4.329,-4.329,-4.329,-4.315,-4.2731,-4.2701,-4.2402,-4.1782,-4.1542,-4.1265,-4.1025,-4.0606,-4.0397,-4.0397,-4.0217,-4.0337,-4.0756,-4.0756,-4.0995,-4.1422,-4.1662,-4.2021,-4.241,-4.265,-4.294,-4.329,-4.329,-4.329,0.0,-4.329,-4.329,-4.329,-4.329,-4.329,-4.329,-4.329,-4.329,-4.329,-4.329,-4.329,-4.329,-4.329,-4.329,-4.329,-4.329,-4.329,-4.329,-4.329,-4.329,-4.329,-4.329,-4.329,-4.3409,-4.3771,-4.3566,-4.3732,-4.5079,-4.4695,-4.4569,-4.5557,-4.5581,-4.5757,-4.6244,-4.684,-4.7226,0.0,0.0,0.0,-4.7352,-4.7309,-4.7572,-4.814,-4.862,-4.8984,-4.9183,-5.0297,-5.0679,-5.0227,-5.0882,-5.1577,-5.2219,-5.2927,-5.351,-5.3958,-5.3502,-5.4007,-5.5125,-5.4337,-5.4463,-5.5093,-5.4337,-5.3569,-5.2856,-5.244,-5.1835,-5.1229,-5.1229,-5.1229,-5.1109,0.0,0.0,0.0,0.0,0.0,0.0,0.0,0.0,0.0,0.0,0.0,0.0,0.0,0.0,0.0,0.0,0.0,0.0,-4.329,-4.329,-4.329,-4.329,-4.329,-4.303,-4.247,-4.1841,-4.1175,-4.0546,-4.0516,-4.0487,-4.0516,-4.1115,-4.1422,-4.1482,-4.1482,-4.1444,-4.1534,-4.2201,-4.244,-4.25,-4.309,-4.329,-4.329,-4.329,-4.329,-4.329,-4.329,-4.329,-4.329,-4.329,-4.329,-4.329,-4.329,-4.329,-4.329,-4.329,-4.329,-4.329,-4.329,-4.329,-4.329,-4.329,-4.329,-4.329,-4.329,-4.329,-4.329,-4.329,-4.3329,-4.3654,0.0,0.0,-4.4013,-4.5889,-4.5982,-4.5804,-4.5765,-4.6903,-4.7405,0.0,0.0,0.0,0.0,0.0,0.0,-4.7512,0.0,-4.814,-4.978,-4.9978,-5.033,-5.0843,-5.1002,-5.1344,-5.1853,-5.194,-5.2813,-5.4505,-5.4589,-5.4589,-5.4547,-5.3396,-5.4052,-5.5896,-5.3753,-5.4009,-5.5777,-5.3699,-5.2812,-5.2678,-5.1635,-5.1229,-5.1293,-5.1293,-5.1293,-5.1386,0.0,0.0,0.0,0.0,0.0,0.0,0.0,0.0,0.0,0.0,0.0,0.0,0.0,0.0,0.0,0.0,0.0,0.0,-4.329,-4.329,-4.329,-4.329,-4.329,-4.323,-4.309,-4.2871,-4.2722,-4.2542,-4.2102,-4.1901,-4.1901,-4.1572,-4.1692,-4.2141,-4.2141,-4.2372,-4.2811,-4.3,-4.309,-4.309,-4.323,-4.329,-4.329,-4.329,-4.329,-4.329,-4.329,-4.329,-4.329,-4.329,-4.329,-4.329,-4.329,-4.329,-4.329,-4.329,-4.329,-4.329,-4.329,-4.329,-4.329,-4.329,-4.329,-4.329,-4.329,-4.329,-4.329,-4.329,-4.3888,-4.4472,-4.4737,0.0,0.0,-4.5996,-4.5377,0.0,-4.6259,-4.6559,0.0,-4.8039,0.0,-4.8718,-4.8429,-4.9098,0.0,0.0,-4.9251,-4.9612,-5.0587,-5.1925,-5.2345,-5.1673,-5.2923,-5.2915,-5.1393,-5.2239,-5.2847,-5.3309,-5.4211,-5.4589,-5.4547,-5.3396,-5.3178,-5.3656,-5.226,-5.1972,-5.244,-5.188,-5.1635,-5.1588,-5.1293,-5.1727,-5.2485,-5.2485,-5.2989,-5.3742,0.0,0.0,0.0,0.0,0.0,0.0,0.0,0.0,0.0,0.0,0.0,0.0,0.0,0.0,0.0,0.0,0.0,0.0,0.0,-4.3966,-4.3966,-4.3966,-4.3966,-4.3732,-4.329,-4.306,-4.291,-4.291,-4.259,-4.2612,-4.297,-4.2483,-4.2702,-4.3457,-4.2995,-4.3,-4.329,-4.329,-4.329,0.0,0.0,-4.329,-4.329,-4.329,-4.329,-4.329,-4.329,-4.329,-4.329,-4.329,-4.329,-4.329,-4.329,-4.329,-4.329,-4.329,-4.329,-4.329,-4.329,-4.329,-4.329,-4.329,-4.329,-4.329,-4.329,-4.329,-4.329,-4.329,-4.412,-4.4924,-4.5337,-4.5079,-4.5227,0.0,0.0,0.0,-4.6576,-4.7503,-4.8112,0.0,-4.8963,0.0,-4.8882,-4.9881,-5.0668,0.0,-5.057,-5.084,-5.2031,-5.3512,-5.3734,-5.2355,-5.3777,-5.3483,-5.1229,-5.1835,-5.2395,-5.29,-5.3033,-5.3352,-5.3828,-5.2634,-5.244,-5.2856,0.0,-5.2245,-5.2678,-5.2678,-5.2678,-5.2678,-5.2678,-5.3077,-5.3656,-5.3656,-5.4041,-5.4547,0.0,0.0,0.0,0.0,0.0,0.0,0.0,0.0,0.0,0.0,0.0,0.0,0.0,0.0,0.0,0.0,0.0,0.0,0.0,0.0,-4.4586,-4.4586,-4.4586,-4.4167,-4.3329,-4.2791,-4.253,-4.253,-4.253,-4.3008,-4.395,-4.3654,-4.3966,-4.4774,-4.3888,-4.3448,-4.329,-4.329,-4.329,-4.329,-4.329,-4.329,-4.329,0.0,-4.329,-4.329,-4.329,-4.329,-4.329,-4.329,-4.329,-4.329,-4.329,-4.329,-4.329,-4.329,-4.329,-4.329,-4.329,-4.329,-4.329,-4.329,-4.329,-4.329,-4.329,-4.329,-4.329,-4.329,-4.4205,-4.5227,-4.6032,-4.5634,-4.567,-4.7172,0.0,-4.6834,-4.6756,-4.8616,-4.9487,-4.8072,-4.9407,-5.0119,-4.9421,-5.0858,-5.2145,-5.2813,-5.1966,-5.2073,-5.3629,-5.4777,-5.4672,-5.2958,-5.3699,-5.3265,-5.1433,-5.1433,-5.2018,-5.3121,-5.2109,-5.22,-5.3077,-5.2109,-5.22,-5.3121,0.0,0.0,-5.4589,-5.4589,-5.4589,-5.4589,-5.4589,-5.4713,-5.4796,-5.4672,-5.4713,-5.4672,0.0,0.0,0.0,0.0,0.0,0.0,0.0,0.0,0.0,0.0,-4.329,-4.329,0.0,0.0,0.0,0.0,0.0,0.0,0.0,0.0,0.0,-4.3536,-4.3536,-4.3488,-4.329,-4.32,-4.311,-4.311,-4.311,-4.3629,-4.4626,-4.4562,-4.4624,-4.4774,-4.4624,-4.4082,-4.329,-4.329,-4.329,-4.329,-4.329,-4.329,-4.329,-4.329,0.0,0.0,-4.329,-4.329,-4.329,-4.329,-4.329,-4.329,-4.329,-4.329,-4.329,-4.329,-4.329,-4.329,-4.329,-4.329,-4.329,-4.329,-4.329,-4.329,-4.329,-4.329,0.0,-4.329,-4.4743,-4.5996,-4.6173,-4.6696,-4.6968,-4.6523,-4.6622,-4.6756,-4.6834,-4.7425,-4.8666,0.0,-5.0703,-5.089,-5.2155,-5.3029,0.0,0.0,0.0,-5.4102,-5.4397,-5.5455,-5.5086,-5.2989,-5.22,-5.2063,-5.262,-5.262,-5.3209,-5.4295,-5.4126,-5.4126,-5.4295,-5.4084,-5.4126,-5.4295,-5.4295,0.0,-5.4589,-5.4589,-5.4589,-5.4589,-5.4589,-5.5166,-5.581,-5.492,-5.5166,-5.577,0.0,0.0,0.0,0.0,0.0,0.0,0.0,-4.329,-4.329,-4.329,-4.329,-4.329,-4.329,-4.329,-4.329,0.0,0.0,0.0,0.0,0.0,0.0,0.0,-4.4082,0.0,-4.3329,-4.329,0.0,0.0,0.0,-4.432,-4.4812,0.0,0.0,-4.4774,-4.4243,-4.3732,-4.329,-4.329,-4.329,-4.329,-4.329,-4.329,-4.329,0.0,0.0,0.0,-4.329,-4.329,-4.329,-4.329,-4.329,-4.329,-4.329,-4.329,-4.329,-4.329,-4.329,-4.329,-4.329,-4.329,-4.329,-4.329,-4.329,-4.329,-4.329,-4.329,-4.329,-4.329,-4.4862,-4.6208,-4.6208,-4.7295,-4.8031,-4.759,-4.7383,-4.752,-4.811,-4.8109,-4.8841,-5.0892,-5.0703,-5.1075,0.0,-5.3112,0.0,0.0,0.0,-5.4838,-5.5377,-5.4847,-5.3967,-5.2945,-5.235,-5.235,-5.29,-5.29,-5.3483,-5.4589,-5.3396,-5.3439,-5.4589,-5.3999,-5.4041,-5.4589,-5.4589,0.0,-5.463,-5.5174,-5.5093,-5.4704,-5.5627,-5.5921,-5.5871,-5.5644,-5.5898,-5.6192,0.0,0.0,0.0,0.0,0.0,0.0,0.0,-4.329,-4.329,-4.329,-4.329,-4.329,-4.329,-4.329,-4.329,0.0,0.0,0.0,0.0,0.0,0.0,0.0,0.0,0.0,0.0,0.0,0.0,0.0,0.0,0.0,0.0,0.0,0.0,0.0,0.0,0.0,-4.329,-4.329,-4.329,0.0,0.0,0.0,0.0,0.0,0.0,0.0,0.0,-4.329,-4.329,-4.329,-4.329,-4.329,-4.329,-4.329,-4.329,-4.329,-4.329,-4.329,-4.329,-4.329,-4.329,-4.329,-4.329,-4.329,-4.329,-4.329,-4.329,-4.329,-4.4862,-4.6272,-4.6401,-4.7823,-4.8994,-4.8924,-4.8657,-4.8737,-4.9608,-4.9182,-4.9376,0.0,-5.0665,0.0,-5.3361,-5.3133,0.0,0.0,0.0,0.0,-5.5458,-5.3839,-5.29,-5.29,-5.29,-5.3033,-5.3253,-5.3033,-5.3569,-5.492,-5.29,-5.2989,-5.492,-5.4041,-5.4126,-5.4961,-5.5369,0.0,0.0,-5.6599,-5.6388,-5.556,-5.689,-5.675,-5.5815,-5.6086,-5.6144,-5.5967,0.0,0.0,0.0,0.0,0.0,0.0,0.0,-4.329,-4.329,-4.329,-4.329,-4.329,-4.329,-4.329,-4.329,0.0,0.0,0.0,0.0,0.0,0.0,0.0,0.0,0.0,0.0,0.0,0.0,0.0,0.0,0.0,0.0,0.0,0.0,0.0,0.0,0.0,0.0,-4.329,0.0,0.0,0.0,0.0,0.0,0.0,0.0,0.0,0.0,-4.329,-4.329,-4.329,-4.329,-4.329,-4.329,-4.329,-4.329,-4.329,-4.329,-4.329,-4.329,-4.329,-4.329,-4.329,-4.329,-4.329,-4.329,-4.329,-4.329,-4.329,-4.4862,-4.6401,-4.7073,-4.8728,-4.9918,-4.9721,-5.0167,-5.0588,-5.0766,-4.9649,-4.9931,-5.287,0.0,0.0,-5.5095,0.0,0.0,0.0,0.0,0.0,-5.3221,-5.3033,-5.29,-5.29,-5.29,-5.3396,-5.4421,-5.3396,-5.3967,-5.6047,-5.4847,-5.4888,-5.6047,-5.5936,-5.5936,-5.6159,-5.785,0.0,0.0,-5.9418,-5.9042,-5.7978,-5.8125,-5.7465,-5.6312,-5.5371,-5.5069,-5.4885,0.0,0.0,0.0,0.0,0.0,0.0,-4.329,-4.329,-4.329,-4.329,-4.329,-4.329,-4.329,-4.329,-4.329,-4.329,0.0,0.0,0.0,0.0,0.0,0.0,0.0,0.0,0.0,0.0,0.0,0.0,0.0,0.0,0.0,0.0,0.0,0.0,0.0,0.0,0.0,0.0,0.0,0.0,0.0,0.0,0.0,0.0,0.0,0.0,0.0,0.0,-4.329,-4.329,-4.329,-4.329,-4.329,-4.329,-4.329,-4.329,-4.329,-4.329,-4.329,-4.329,-4.329,-4.329,-4.329,-4.3448,-4.4082,-4.3732,-4.3488,-4.4082,-4.5269,-4.6433,-4.7137,-4.9192,-5.0851,-5.1262,-5.0892,-5.099,-5.2298,-4.9818,-4.9256,-5.3041,-5.1667,0.0,0.0,0.0,0.0,0.0,0.0,0.0,-5.188,-5.253,-5.262,-5.188,-5.253,-5.3121,-5.3569,-5.3785,-5.4379,-5.5215,-5.4796,-5.5166,-5.6204,-5.6698,-5.7282,-5.7926,-5.8358,0.0,0.0,-5.8125,-5.7268,-5.6296,-5.6709,-5.6133,-5.5142,-5.5122,-5.508,-5.5129,0.0,0.0,0.0,0.0,0.0,-4.329,-4.329,-4.329,-4.329,-4.329,-4.329,-4.329,-4.329,-4.329,-4.329,-4.329,-4.329,0.0,0.0,0.0,0.0,0.0,0.0,0.0,0.0,0.0,-4.3448,-4.3732,-4.4159,0.0,0.0,0.0,0.0,0.0,0.0,0.0,0.0,0.0,0.0,0.0,0.0,0.0,0.0,0.0,0.0,0.0,0.0,0.0,0.0,0.0,0.0,-4.329,-4.329,-4.329,-4.329,-4.329,-4.329,-4.329,-4.329,-4.329,-4.329,-4.329,-4.329,-4.3488,-4.4167,-4.381,-4.3527,-4.4236,-4.5342,-4.639,-4.7061,-4.9383,-5.1424,-5.2068,-5.1415,-5.1484,-5.3246,-5.0165,-4.9166,0.0,0.0,0.0,0.0,0.0,0.0,0.0,0.0,0.0,0.0,-5.226,-5.253,-5.1727,-5.2485,-5.3077,-5.3396,-5.3871,-5.4421,-5.5084,-5.531,-5.5977,-5.7066,-5.7483,-5.8084,-5.8773,0.0,0.0,0.0,-5.743,-5.651,-5.5628,-5.6419,-5.6073,-5.5134,-5.5981,-5.628,-5.6329,0.0,0.0,0.0,0.0,0.0,0.0,-4.329,-4.329,-4.329,-4.329,-4.329,-4.329,-4.329,-4.329,-4.329,-4.329,-4.329,0.0,0.0,0.0,0.0,0.0,0.0,0.0,0.0,0.0,-4.3771,-4.4774,-4.381,-4.381,-4.4774,-4.3771,0.0,0.0,0.0,0.0,0.0,0.0,0.0,0.0,0.0,0.0,0.0,0.0,0.0,0.0,0.0,0.0,0.0,0.0,0.0,0.0,0.0,-4.329,-4.329,-4.329,-4.329,-4.329,-4.329,-4.329,-4.329,-4.329,-4.329,-4.329,-4.3329,-4.329,-4.329,-4.3329,-4.4862,-4.6371,-4.6819,-4.926,-5.1362,-5.1834,-5.1885,-5.2277,-5.3348,-5.0779,-4.997,0.0,0.0,0.0,0.0,0.0,0.0,0.0,0.0,0.0,0.0,-5.226,-5.29,-5.29,-5.29,-5.3439,-5.4589,-5.3483,-5.4009,-5.6204,-5.6995,-5.7942,-5.8957,-5.8522,-5.8297,0.0,0.0,0.0,0.0,-5.8492,-5.8053,-5.7103,-5.8282,-5.8007,-5.7103,-5.8314,-5.8767,-5.8587,0.0,0.0,0.0,0.0,0.0,0.0,0.0,-4.329,-4.329,-4.329,-4.329,-4.329,-4.329,-4.329,-4.329,-4.329,-4.329,0.0,0.0,0.0,0.0,0.0,0.0,0.0,0.0,-4.329,-4.3448,-4.3771,-4.3448,-4.381,-4.4774,-4.3771,-4.3654,0.0,0.0,0.0,0.0,0.0,0.0,0.0,0.0,0.0,0.0,0.0,0.0,0.0,0.0,0.0,0.0,0.0,0.0,0.0,0.0,0.0,0.0,-4.329,-4.329,-4.329,-4.329,-4.329,-4.329,-4.329,-4.329,-4.3488,-4.4197,-4.3771,-4.3488,-4.4167,-4.5122,-4.6091,-4.6757,-4.9111,-5.0907,-5.0881,-5.0855,-5.0968,0.0,0.0,0.0,-5.108,-5.1144,0.0,0.0,0.0,0.0,0.0,0.0,0.0,0.0,-5.1542,-5.1727,-5.1727,-5.2485,-5.3077,-5.3439,-5.4598,-5.5758,-5.7034,-5.7185,-5.7707,-5.8515,-5.8069,0.0,0.0,0.0,0.0,0.0,-5.748,-5.6848,-5.5967,-5.7993,-5.7559,-5.5918,-5.7134,-5.7039,-5.6427,0.0,0.0,0.0,0.0,0.0,0.0,0.0,-4.329,-4.329,-4.329,-4.329,-4.329,-4.329,-4.329,-4.329,-4.329,-4.329,0.0,0.0,0.0,0.0,0.0,0.0,0.0,-4.329,-4.329,-4.329,-4.329,-4.329,-4.3615,-4.4205,-4.3576,-4.3615,-4.4236,-4.3606,-4.329,0.0,0.0,0.0,0.0,0.0,0.0,-4.329,0.0,0.0,0.0,0.0,0.0,0.0,0.0,0.0,0.0,0.0,0.0,0.0,0.0,-4.329,-4.329,-4.329,-4.329,-4.329,-4.329,-4.329,0.0,-4.412,-4.3732,-4.3488,-4.412,-4.5033,-4.5835,-4.6229,-4.8447,-5.0126,-4.9843,-4.9813,-4.9931,0.0,0.0,0.0,-5.034,0.0,0.0,0.0,0.0,0.0,0.0,0.0,0.0,0.0,-5.1588,-5.1835,-5.1835,-5.253,-5.3309,-5.4137,-5.5351,-5.6432,-5.7317,-5.7364,-5.7646,-5.806,-5.7643,0.0,0.0,0.0,0.0,0.0,-5.68,-5.6541,-5.6085,-5.8039,-5.7854,-5.6638,-5.7386,-5.7229,-5.6686,0.0,0.0,0.0,0.0,0.0,0.0,0.0,-4.329,-4.329,-4.329,-4.329,-4.329,-4.329,-4.329,-4.329,-4.329,0.0,0.0,0.0,0.0,0.0,0.0,0.0,0.0,-4.329,-4.329,-4.329,-4.329,-4.329,-4.3329,-4.3409,-4.3329,-4.3329,-4.3409,-4.3329,-4.329,-4.329,-4.329,-4.329,-4.329,-4.329,-4.329,0.0,0.0,0.0,0.0,0.0,0.0,0.0,0.0,0.0,0.0,0.0,0.0,0.0,0.0,0.0,0.0,0.0,-4.329,-4.329,-4.329,-4.329,-4.329,-4.329,-4.329,0.0,-4.329,-4.456,-4.5585,-4.532,-4.7463,-4.9131,-4.8757,-4.8759,0.0,0.0,-4.8501,0.0,0.0,0.0,0.0,0.0,0.0,0.0,0.0,0.0,0.0,0.0,-5.2169,-5.2812,-5.29,-5.2962,-5.4019,-5.6152,-5.5877,-5.6224,-5.7248,-5.7463,-5.7611,-5.7631,-5.7105,0.0,0.0,0.0,0.0,0.0,-5.6704,-5.715,-5.7134,-5.8405,-5.8767,-5.8542,-5.8632,-5.8632,-5.8542,0.0,0.0,0.0,0.0,0.0,0.0,0.0,0.0,0.0,0.0,-4.329,-4.329,-4.329,-4.329,-4.329,0.0,0.0,0.0,0.0,0.0,0.0,0.0,0.0,0.0,-4.329,-4.329,-4.329,-4.329,-4.329,-4.3693,-4.4434,-4.3654,-4.3693,-4.4396,-4.3615,-4.329,-4.329,-4.329,-4.329,-4.329,-4.329,-4.329,0.0,0.0,0.0,0.0,-4.329,-4.329,0.0,0.0,0.0,0.0,0.0,0.0,0.0,0.0,-4.329,-4.329,-4.329,0.0,-4.329,-4.329,-4.329,-4.329,0.0,-4.329,-4.329,-4.329,-4.4429,-4.5382,-4.5316,-4.7262,-4.8655,-4.7776,0.0,0.0,-4.8115,0.0,0.0,0.0,0.0,0.0,0.0,0.0,0.0,0.0,0.0,0.0,0.0,-5.1479,-5.2018,-5.2856,-5.3427,-5.4311,-5.5725,-5.6466,-5.7075,-5.7549,-5.6703,-5.6622,-5.7121,-5.6122,0.0,0.0,0.0,0.0,-5.6752,-5.887,-5.8645,-5.7198,-5.9346,-5.8496,-5.6134,-5.7086,-5.6879,-5.6183,0.0,0.0,0.0,0.0,0.0,0.0,0.0,0.0,0.0,0.0,0.0,-4.329,-4.329,-4.329,0.0,0.0,0.0,0.0,0.0,0.0,0.0,0.0,0.0,-4.329,-4.329,-4.329,-4.329,-4.329,-4.329,-4.3606,-4.412,-4.3536,-4.3576,-4.4082,-4.3566,-4.329,-4.329,-4.329,-4.329,-4.329,-4.329,0.0,0.0,0.0,0.0,0.0,-4.329,-4.329,0.0,-4.329,-4.329,-4.329,0.0,0.0,0.0,0.0,-4.329,-4.329,-4.329,-4.329,-4.329,-4.329,-4.329,-4.329,-4.329,-4.329,-4.329,-4.329,-4.4377,-4.5304,-4.5304,-4.6857,-4.7904,-4.7366,-4.7764,0.0,0.0,0.0,0.0,0.0,0.0,0.0,0.0,0.0,0.0,0.0,0.0,0.0,0.0,-5.1681,-5.226,-5.2856,-5.4085,-5.5,-5.5602,-5.6285,-5.6682,-5.6861,-5.5978,-5.5798,-5.6134,-5.5501,-5.5179,0.0,0.0,0.0,-5.6329,-5.8145,-5.8145,-5.7134,-5.8419,-5.7761,-5.6085,-5.6752,-5.659,-5.628,0.0,0.0,0.0,0.0,0.0,0.0,0.0,0.0,0.0,0.0,0.0,0.0,0.0,0.0,0.0,0.0,0.0,0.0,0.0,0.0,0.0,0.0,-4.329,-4.329,-4.329,-4.329,-4.329,-4.329,-4.329,-4.329,-4.329,-4.329,-4.329,-4.329,-4.329,-4.329,-4.329,-4.329,-4.329,-4.329,-4.329,0.0,0.0,0.0,0.0,0.0,0.0,0.0,0.0,-4.329,-4.329,-4.329,-4.329,0.0,0.0,0.0,0.0,0.0,-4.329,-4.329,-4.329,-4.329,-4.329,-4.329,-4.329,-4.329,-4.329,-4.329,-4.4317,-4.5185,-4.5274,-4.6322,-4.7189,0.0,0.0,0.0,0.0,0.0,0.0,0.0,0.0,0.0,0.0,0.0,0.0,0.0,0.0,0.0,0.0,-5.2109,-5.2664,-5.2664,-5.4354,-5.5245,-5.5245,-5.5671,-5.5873,-5.5807,-5.5379,-5.5179,-5.5179,-5.5179,-5.5179,0.0,0.0,0.0,-5.5551,-5.6752,-5.7245,-5.7245,-5.7245,-5.7245,-5.7245,-5.7245,-5.7181,-5.7292,0.0,0.0,0.0,0.0,0.0,0.0,0.0,0.0,0.0,0.0,0.0,0.0,0.0,0.0,0.0,0.0,0.0,0.0,0.0,0.0,0.0,-4.329,-4.329,-4.329,-4.329,-4.329,-4.329,-4.329,-4.329,-4.329,-4.329,-4.329,-4.329,-4.329,-4.329,-4.329,-4.329,-4.329,-4.329,-4.329,-4.329,0.0,0.0,0.0,0.0,0.0,0.0,0.0,0.0,-4.329,-4.329,-4.329,-4.329,0.0,0.0,0.0,0.0,0.0,-4.329,-4.329,-4.329,-4.329,-4.329,-4.329,-4.329,-4.329,-4.329,-4.329,-4.3928,-4.4646,-4.5185,-4.5933,-4.6651,0.0,0.0,-4.7309,0.0,0.0,0.0,0.0,0.0,0.0,0.0,0.0,0.0,0.0,0.0,0.0,0.0,-5.1386,-5.1479,-5.1479,-5.2812,-5.3542,-5.3542,-5.5111,-5.5691,-5.533,-5.522,-5.5179,-5.5179,-5.5179,-5.5179,0.0,0.0,-5.6704,-5.68,-5.8039,-5.8542,-5.8542,-5.8542,-5.8542,-5.8542,-5.8542,-5.79,-5.7055,0.0,0.0,0.0,0.0,0.0,0.0,0.0,0.0,0.0,0.0,0.0,0.0,0.0,0.0,0.0,0.0,0.0,0.0,0.0,0.0,-4.329,-4.329,-4.329,-4.329,-4.329,-4.329,-4.329,-4.329,-4.329,-4.329,-4.329,-4.329,-4.329,-4.329,-4.329,-4.329,-4.329,-4.329,-4.329,-4.329,0.0,0.0,0.0,0.0,0.0,0.0,0.0,0.0,0.0,0.0,-4.329,-4.329,-4.329,0.0,0.0,0.0,0.0,0.0,-4.329,-4.329,-4.329,-4.329,-4.329,-4.329,-4.329,-4.329,-4.329,-4.329,-4.3828,-4.4496,-4.5185,0.0,-4.6488,-4.7189,0.0,0.0,0.0,0.0,0.0,0.0,0.0,0.0,0.0,0.0,0.0,0.0,0.0,0.0,0.0,0.0,-5.1229,-5.1229,-5.2486,-5.3174,-5.3174,-5.4752,-5.5448,-5.5179,-5.5179,-5.5179,-5.5179,-5.5179,-5.5179,-5.5229,0.0,-5.6035,-5.6134,-5.7323,-5.7807,-5.7807,-5.7807,-5.7807,-5.7807,-5.7807,-5.79,-5.79,0.0,0.0,0.0,0.0,0.0,0.0,0.0,0.0,0.0,0.0,0.0,0.0,0.0,0.0,0.0,0.0,0.0,0.0,0.0,-4.329,-4.329,-4.329,-4.329,-4.329,-4.329,-4.329,-4.329,-4.329,-4.329,-4.329,-4.329,-4.329,-4.329,-4.329,-4.329,-4.329,-4.329,-4.329,-4.329,-4.329,0.0,0.0,0.0,0.0,0.0,0.0,0.0,0.0,0.0,0.0,0.0,0.0,0.0,0.0,0.0,-4.329,-4.329,-4.329,-4.329,-4.329,-4.329,-4.329,-4.329,-4.329,-4.329,-4.329,-4.329,-4.329,-4.3708,-4.4287,-4.4945,-4.5753,0.0,-4.7189,-4.7309,0.0,0.0,0.0,0.0,0.0,0.0,0.0,0.0,0.0,0.0,0.0,0.0,0.0,0.0,0.0,-5.1289,-5.1439,-5.2576,-5.3264,-5.3414,-5.461,-5.5179,-5.5179,-5.5179,-5.5179,-5.5179,-5.5179,-5.5179,-5.5179,-5.5179,-5.5381,-5.57,-5.6299,-5.6896,-5.7386,-5.7134,-5.715,-5.7386,-5.7134,-5.7574,-5.8223,0.0,0.0,0.0,0.0,0.0,0.0,0.0,0.0,0.0,0.0,0.0,0.0,0.0,0.0,0.0,0.0,0.0,0.0,0.0,-4.329,-4.329,-4.329,-4.329,-4.329,-4.329,-4.329,-4.329,-4.329,-4.329,-4.329,-4.329,-4.329,-4.329,-4.329,-4.329,-4.329,-4.329,-4.329,-4.329,-4.329,-4.329,0.0,0.0,0.0,0.0,0.0,0.0,0.0,0.0,0.0,0.0,0.0,0.0,0.0,-4.329,-4.329,-4.329,-4.329,-4.329,-4.329,-4.329,-4.329,-4.329,-4.329,-4.329,-4.329,-4.329,-4.329,-4.3319,-4.3559,-4.4257,-4.5454,-4.6488,-4.7189,0.0,0.0,0.0,0.0,0.0,0.0,0.0,0.0,0.0,0.0,0.0,0.0,0.0,0.0,0.0,0.0,0.0,-5.2127,-5.2815,-5.3503,-5.4132,-5.485,-5.5179,-5.5179,-5.5179,-5.5179,-5.5179,-5.5179,-5.5179,-5.5179,-5.5179,-5.5819,-5.68,-5.5769,-5.6638,-5.8542,-5.7434,-5.7668,-5.8542,-5.7386,-5.7055,-5.6943,0.0,0.0,0.0,0.0,0.0,0.0,0.0,0.0,0.0,0.0,0.0,0.0,0.0,0.0,0.0,0.0,0.0,0.0,0.0,-4.329,-4.329,-4.329,-4.329,-4.329,-4.329,-4.329,-4.329,-4.329,-4.329,-4.329,-4.329,-4.329,-4.329,-4.329,-4.329,-4.329,-4.329,-4.329,-4.329,-4.329,-4.329,-4.329,0.0,0.0,0.0,0.0,0.0,0.0,0.0,0.0,-4.329,-4.329,-4.329,-4.329,-4.329,-4.329,-4.329,-4.329,-4.329,-4.329,-4.329,-4.329,-4.329,-4.329,-4.329,-4.329,-4.329,-4.329,-4.329,-4.3618,-4.4736,0.0,-4.701,-4.7279,0.0,0.0,0.0,0.0,0.0,0.0,0.0,0.0,0.0,0.0,0.0,0.0,0.0,0.0,0.0,0.0,0.0,-5.2187,-5.2845,-5.3503,-5.4192,-5.485,-5.5179,-5.5179,-5.5179,-5.5179,-5.5179,-5.5179,-5.5179,-5.5179,-5.5179,-5.5451,-5.5918,-5.6183,-5.6848,-5.7621,-5.715,-5.68,-5.6524,-5.6035,-5.5869,-5.5819,0.0,0.0,0.0,0.0,0.0,0.0,0.0,0.0,0.0,0.0,0.0,0.0,0.0,0.0,0.0,0.0,0.0,0.0,-4.329,-4.329,-4.329,-4.329,-4.329,-4.329,-4.329,-4.329,-4.329,-4.329,-4.329,-4.329,-4.329,-4.329,-4.329,-4.329,-4.329,-4.329,-4.329,-4.329,-4.329,-4.329,-4.329,-4.329,0.0,0.0,0.0,0.0,0.0,0.0,0.0,0.0,-4.329,-4.329,-4.329,-4.329,-4.329,-4.329,-4.329,-4.329,-4.329,-4.329,-4.329,-4.329,-4.329,-4.329,-4.329,-4.329,-4.329,-4.329,-4.329,-4.3708,-4.5035,-4.6052,0.0,0.0,0.0,0.0,0.0,0.0,0.0,0.0,0.0,0.0,0.0,0.0,0.0,0.0,0.0,0.0,0.0,0.0,0.0,0.0,-5.2935,-5.3623,-5.4521,-5.497,-5.5179,-5.5179,-5.5179,-5.5179,-5.5179,-5.5179,-5.5179,-5.5179,-5.5179,-5.5431,-5.5819,-5.628,-5.6445,-5.6445,-5.6445,-5.5918,-5.5179,-5.5179,-5.5179,-5.5179,0.0,0.0,0.0,0.0,0.0,0.0,0.0,0.0,0.0,0.0,0.0,0.0,0.0,0.0,0.0,0.0,0.0,0.0,-4.329,-4.329,-4.329,-4.329,-4.329,-4.329,-4.329,-4.329,-4.329,-4.329,-4.329,-4.329,-4.329,-4.329,-4.329,-4.329,-4.329,-4.329,-4.329,-4.329,-4.329,-4.329,-4.329,-4.329,-4.329,0.0,0.0,0.0,0.0,0.0,0.0,0.0,-4.329,-4.329,-4.329,-4.329,-4.329,-4.329,-4.329,-4.329,-4.329,-4.329,-4.329,-4.329,-4.329,-4.329,-4.329,-4.329,-4.329,-4.329,-4.329,-4.3708,-4.5065,-4.5304,0.0,0.0,0.0,0.0,0.0,0.0,0.0,0.0,0.0,0.0,0.0,0.0,0.0,0.0,0.0,0.0,0.0,0.0,0.0,0.0,-5.3174,-5.3832,-5.5179,-5.5179,-5.5179,-5.5179,-5.5179,-5.5179,-5.5179,-5.5179,-5.5179,-5.5179,-5.5179,-5.5869,-5.6896,-5.567,-5.5179,-5.5179,-5.5179,-5.5179,-5.5179,-5.5179,-5.5179,-5.5209,0.0,0.0,0.0,0.0,0.0,0.0,0.0,0.0,0.0,0.0,0.0,0.0,0.0,0.0,0.0,0.0,0.0,0.0,-4.329,-4.329,-4.329,-4.329,-4.329,-4.329,-4.329,-4.329,-4.329,-4.329,-4.329,-4.329,-4.329,-4.329,-4.329,-4.329,-4.329,-4.329,-4.329,-4.329,-4.329,-4.329,-4.329,-4.329,-4.329,0.0,0.0,0.0,0.0,0.0,0.0,0.0,0.0,0.0,-4.4018,-4.3678,-4.329,-4.329,-4.329,-4.329,-4.329,-4.329,-4.329,-4.329,-4.329,-4.329,-4.329,-4.329,-4.329,-4.329,-4.4077,-4.4825,-4.5214,-4.6082,0.0,0.0,0.0,0.0,0.0,0.0,0.0,0.0,0.0,0.0,0.0,0.0,0.0,0.0,0.0,0.0,0.0,0.0,0.0,0.0,-5.3174,-5.3832,-5.5179,-5.5179,-5.5179,-5.5179,-5.5179,-5.5179,-5.5179,-5.5179,-5.5179,-5.5179,-5.5179,-5.5431,-5.57,-5.533,-5.5179,-5.5179,-5.5179,-5.5179,-5.5179,-5.5179,-5.5478,-5.5867,0.0,0.0,0.0,0.0,0.0,0.0,0.0,0.0,0.0,0.0,-4.329,-4.329,0.0,0.0,0.0,0.0,0.0,0.0,0.0,-4.329,-4.329,-4.329,-4.329,-4.329,-4.329,-4.329,-4.329,-4.329,-4.329,-4.329,-4.329,-4.329,-4.329,-4.329,-4.329,-4.329,-4.329,-4.329,-4.329,-4.329,-4.329,-4.329,-4.3319,0.0,0.0,0.0,0.0,0.0,0.0,0.0,0.0,0.0,-4.4706,-4.4257,-4.3678,-4.3678,-4.3499,-4.329,-4.329,-4.329,-4.329,-4.329,-4.329,-4.329,-4.329,-4.329,-4.329,-4.329,-4.4167,-4.4975,-4.5244,-4.6172,0.0,0.0,0.0,0.0,0.0,0.0,0.0,0.0,0.0,0.0,0.0,0.0,0.0,0.0,0.0,0.0,0.0,0.0,0.0,0.0,-5.3174,-5.3832,-5.5179,-5.5179,-5.5179,-5.5179,-5.5179,-5.5179,-5.5179,-5.5179,-5.5179,-5.5179,-5.5179,-5.5179,-5.5179,-5.5179,-5.5179,-5.5179,-5.5179,-5.5359,-5.5598,-5.5598,-5.5987,-5.6526,0.0,0.0,0.0,0.0,0.0,0.0,0.0,0.0,0.0,0.0,-4.329,-4.329,0.0,0.0,0.0,0.0,0.0,0.0,0.0,-4.329,-4.329,-4.329,-4.329,-4.329,-4.329,-4.329,-4.329,-4.329,-4.329,-4.329,-4.329,-4.329,-4.329,-4.329,-4.329,-4.329,-4.329,-4.329,-4.329,-4.329,-4.3349,-4.3379,-4.3439,-4.4167,0.0,0.0,0.0,0.0,0.0,0.0,0.0,0.0,-4.5394,-4.4945,-4.4377,-4.4317,-4.3888,-4.3469,-4.3409,-4.3379,-4.3379,-4.3379,-4.3349,-4.329,-4.329,-4.329,-4.329,-4.329,0.0,-4.4586,-4.5185,-4.5903,0.0,0.0,0.0,0.0,0.0,0.0,0.0,0.0,0.0,0.0,0.0,0.0,0.0,0.0,0.0,0.0,0.0,0.0,0.0,-5.3144,-5.3234,-5.3892,-5.5179,-5.5179,-5.5179,0.0,-5.5179,-5.5179,-5.5179,-5.5179,-5.5179,-5.5179,-5.5179,-5.5179,-5.5179,-5.5179,-5.5179,-5.5209,-5.5269,-5.5658,-5.6248,-5.6278,-5.6645,-5.7184,0.0,0.0,0.0,0.0,0.0,0.0,0.0,0.0,0.0,0.0,0.0,0.0,0.0,0.0,0.0,0.0,0.0,0.0,0.0,-4.329,-4.329,-4.329,-4.329,-4.329,-4.329,-4.329,-4.329,-4.329,-4.329,-4.329,-4.329,-4.329,-4.329,-4.329,-4.329,-4.329,-4.329,-4.329,-4.329,-4.3349,-4.3858,-4.4067,-4.4167,-4.4825,-4.5095,0.0,0.0,0.0,0.0,0.0,0.0,0.0,-4.607,-4.5633,-4.4975,-4.4466,-4.4586,-4.4766,-4.4257,-4.4067,-4.4067,-4.4067,-4.3678,-4.329,-4.329,-4.329,-4.329,-4.329,-4.4257,-4.5125,-4.5274,0.0,0.0,0.0,0.0,0.0,0.0,0.0,0.0,0.0,0.0,0.0,0.0,0.0,0.0,0.0,0.0,0.0,0.0,0.0,0.0,-5.3144,-5.3713,-5.4371,-5.5179,-5.5179,-5.5179,0.0,-5.5179,-5.5179,-5.5179,-5.5179,-5.5179,-5.5179,-5.5179,-5.5179,-5.5179,-5.5179,-5.5179,-5.5239,-5.5748,-5.6047,-5.6278,-5.6705,-5.7334,-5.7902,0.0,0.0,0.0,0.0,0.0,0.0,0.0,0.0,0.0,0.0,0.0,0.0,0.0,0.0,0.0,0.0,0.0,0.0,0.0,0.0,-4.329,-4.329,-4.329,-4.329,-4.329,-4.329,-4.329,-4.329,-4.329,-4.329,-4.329,-4.329,-4.329,-4.329,-4.329,-4.329,-4.3319,-4.3618,-4.3768,-4.3828,-4.4526,-4.4796,-4.4855,-4.5514,-4.5783,-4.5813,-4.6142,0.0,0.0,0.0,0.0,0.0,0.0,0.0,-4.5723,-4.5364,-4.5274,-4.5214,-4.4885,-4.4796,-4.4796,-4.4796,-4.4526,-4.4287,-4.4287,-4.4287,-4.4287,-4.4287,-4.4825,-4.5394,0.0,0.0,0.0,0.0,0.0,0.0,0.0,0.0,0.0,0.0,0.0,0.0,0.0,0.0,0.0,0.0,0.0,0.0,0.0,-5.1858,-5.2516,-5.3144,-5.3862,-5.4521,-5.5179,-5.5179,-5.5179,-5.5179,-5.5179,-5.5179,-5.5179,-5.5179,-5.5179,-5.5179,-5.5179,-5.5179,-5.5179,-5.5179,-5.5388,-5.5688,-5.6047,-5.6555,-5.7154,-5.7453,-5.8022,-5.859,0.0,0.0,0.0,0.0,0.0,0.0,0.0,0.0,0.0,0.0,0.0,0.0,0.0,0.0,0.0,0.0,0.0,0.0,0.0,0.0,0.0,-4.329,-4.329,-4.3349,-4.3469,-4.3469,-4.3529,-4.3648,-4.3648,-4.3648,-4.3618,-4.3409,-4.3349,-4.3469,-4.3469,-4.3529,-4.3678,-4.4257,-4.4496,-4.4556,-4.5214,-4.5484,-4.5544,-4.6232,-4.6459,-4.6561,-4.71,-4.7309,-4.7309,-4.7309,0.0,0.0,0.0,0.0,-4.6429,-4.6309,-4.5992,-4.5603,-4.5514,-4.5484,-4.5454,-4.5334,-4.5304,-4.5304,-4.5304,-4.5304,-4.5334,-4.5454,-4.5484,0.0,0.0,0.0,0.0,0.0,0.0,0.0,0.0,0.0,0.0,0.0,0.0,0.0,0.0,0.0,0.0,0.0,0.0,0.0,-5.1229,-5.1947,-5.2606,-5.3174,-5.3952,-5.464,-5.5179,-5.5179,-5.5179,-5.5179,-5.5179,-5.5179,-5.5179,-5.5179,-5.5179,-5.5179,-5.5179,-5.5269,-5.5359,-5.5359,-5.5748,-5.6346,-5.6466,-5.7184,-5.8141,-5.8261,-5.865,-5.9099,0.0,0.0,0.0,0.0,0.0,0.0,0.0,0.0,0.0,0.0,-4.329,-4.329,0.0,0.0,0.0,0.0,0.0,0.0,0.0,0.0,0.0,-4.329,-4.329,-4.3559,-4.4167,-4.4197,-4.4466,-4.5035,-4.5035,-4.5035,-4.5005,-4.3828,-4.3589,-4.4197,-4.4197,-4.4496,-4.5035,-4.5125,-4.5155,-4.5214,-4.5903,-4.6202,-4.6262,-4.692,-4.7189,-4.7189,-4.7279,-4.7309,-4.7309,-4.7309,-4.7309,0.0,0.0,0.0,-4.707,-4.6459,-4.6651,-4.692,-4.6352,-4.6202,-4.6052,-4.5454,-4.5304,-4.5304,0.0,0.0,-4.5454,0.0,0.0,0.0,0.0,0.0,0.0,0.0,0.0,0.0,0.0,0.0,0.0,0.0,0.0,0.0,0.0,0.0,0.0,0.0,0.0,0.0,-5.1229,-5.2396,-5.3084,-5.3174,-5.4401,-5.5089,-5.5179,-5.5179,-5.5179,-5.5179,-5.5179,-5.5179,-5.5179,-5.5179,-5.5179,-5.5179,-5.5179,-5.5508,-5.6098,-5.6098,-5.6406,-5.7034,-5.7633,-5.7962,-5.8201,-5.877,-5.9039,-5.9099,0.0,0.0,0.0,0.0,0.0,0.0,0.0,0.0,0.0,0.0,0.0,-4.329,0.0,0.0,0.0,0.0,0.0,0.0,0.0,0.0,0.0,-4.4436,-4.4436,-4.4556,-4.4855,-4.4855,-4.5005,-4.5304,-4.5304,-4.5304,-4.5274,-4.4706,-4.4586,-4.4855,-4.4855,-4.5035,-4.5304,-4.5693,-4.5873,-4.5933,-4.6591,-4.686,-4.689,-4.7189,-4.7309,-4.7309,-4.7309,-4.7309,-4.7309,-4.7309,-4.7309,-4.7309,-4.7309,0.0,0.0,0.0,-4.707,-4.7249,-4.695,-4.686,-4.68,-4.6501,-4.6411,-4.6411,-4.6411,-4.6411,-4.6501,0.0,0.0,0.0,0.0,0.0,0.0,0.0,0.0,0.0,0.0,0.0,0.0,0.0,0.0,0.0,0.0,0.0,0.0,0.0,0.0,-5.1229,-5.1229,-5.2456,-5.3174,-5.3174,-5.4491,-5.5179,-5.5179,-5.5179,-5.5179,-5.5179,-5.5179,-5.5179,-5.5179,-5.5179,-5.5179,-5.5179,-5.5179,-5.5568,-5.6218,-5.6218,-5.6765,-5.7693,-5.7992,-5.8351,-5.871,-5.9009,-5.9099,-5.9099,0.0,0.0,0.0,0.0,0.0,0.0,0.0,0.0,0.0,0.0,0.0,0.0,0.0,0.0,0.0,0.0,0.0,0.0,0.0,0.0,0.0,-4.5304,-4.5304,-4.5364,-4.5544,-4.5544,-4.5633,-4.5813,-4.5813,-4.5813,-4.5813,-4.5813,-4.5813,-4.5813,-4.5633,-4.5633,-4.5843,-4.6352,-4.6561,-4.6621,-4.71,-4.7309,-4.7309,-4.7309,-4.7309,-4.7309,-4.7309,-4.7309,-4.7309,-4.7309,-4.7309,-4.7309,0.0,0.0,0.0,0.0,0.0,-4.7309,-4.7309,-4.7309,-4.7309,-4.7309,-4.7309,-4.7309,0.0,0.0,-4.7309,0.0,0.0,0.0,0.0,0.0,0.0,0.0,0.0,0.0,0.0,0.0,0.0,0.0,0.0,0.0,0.0,0.0,0.0,0.0,0.0,-5.1229,-5.1229,-5.2456,-5.3174,-5.3174,-5.4491,-5.5179,-5.5179,-5.5179,-5.5179,-5.5179,-5.5179,-5.5179,-5.5179,-5.5179,-5.5269,-5.5448,-5.5448,-5.5807,-5.6406,-5.6585,-5.7334,-5.8381,-5.8381,-5.868,-5.9099,-5.9099,-5.9099,-5.9099,0.0,0.0,0.0,0.0,0.0,0.0,0.0,0.0,0.0,0.0,0.0,0.0,-4.4197,-4.4257,-4.4526,-4.5185,-4.5244,0.0,0.0,0.0,0.0,-4.5304,-4.5304,0.0,-4.6219,-4.6262,-4.6561,-4.7189,-4.7189,-4.7189,-4.7189,-4.7189,-4.7189,-4.7189,-4.6561,-4.6621,-4.7189,-4.7249,-4.7249,-4.7249,-4.7309,-4.7309,-4.7309,-4.7309,-4.7309,-4.7309,-4.7309,-4.7309,-4.7309,-4.7309,0.0,0.0,0.0,0.0,-4.7309,0.0,0.0,0.0,-4.7309,-4.7309,-4.7309,-4.7309,-4.7309,-4.7309,0.0,0.0,0.0,0.0,0.0,0.0,0.0,0.0,0.0,0.0,0.0,0.0,0.0,0.0,0.0,0.0,0.0,0.0,0.0,0.0,0.0,0.0,0.0,-5.1229,-5.1229,-5.2456,-5.3174,-5.3174,-5.4491,-5.5179,-5.5179,-5.5179,-5.5179,-5.5179,-5.5179,-5.5179,-5.5179,-5.5179,-5.5538,-5.6188,-5.6188,-5.6466,-5.7094,-5.7752,-5.8441,-5.9069,-5.9069,-5.9069,-5.9099,-5.9099,-5.9099,-5.9099,0.0,0.0,0.0,0.0,0.0,0.0,0.0,0.0,0.0,0.0,0.0,0.0,0.0,-4.4945,-4.5214,-4.5903,-4.6352,0.0,0.0,0.0,0.0,-4.6591,-4.6591,-4.6711,-4.695,-4.695,-4.707,-4.7309,-4.7309,-4.7309,-4.7309,-4.7309,-4.7309,-4.7309,-4.707,-4.71,-4.7309,-4.7309,-4.7309,-4.7309,-4.7309,-4.7309,-4.7309,-4.7309,-4.7309,-4.7309,-4.7309,-4.7309,-4.7309,0.0,0.0,0.0,0.0,0.0,-4.7309,-4.7309,-4.7309,-4.7309,-4.7309,-4.7309,-4.7309,-4.7309,-4.7309,-4.7309,-4.7309,-4.7309,0.0,0.0,0.0,0.0,0.0,0.0,0.0,0.0,0.0,0.0,0.0,0.0,0.0,0.0,0.0,0.0,0.0,0.0,0.0,0.0,0.0,0.0,-5.1229,-5.2456,-5.3174,-5.3174,-5.4491,-5.5179,-5.5179,-5.5179,-5.5179,-5.5179,-5.5179,-5.5179,-5.5209,-5.5628,-5.5957,-5.6278,-5.7064,-5.7543,-5.7782,-5.8022,-5.853,-5.9099,-5.9099,-5.9099,-5.9099,-5.9099,-5.9099,-5.9099,0.0,0.0,0.0,0.0,0.0,0.0,0.0,0.0,0.0,-4.4646,0.0,0.0,0.0,0.0,-4.5933,-4.6591,-4.704,-4.7309,-4.7309,-4.7309,-4.7309,-4.7309,-4.7309,-4.7309,-4.7309,-4.71,-4.707,-4.7309,-4.707,-4.71,-4.7309,-4.7309,-4.7309,-4.7309,-4.7309,-4.7309,-4.7309,-4.7309,-4.7309,-4.7309,-4.7309,-4.7309,-4.7309,-4.7309,-4.7309,-4.7309,-4.7309,-4.7309,0.0,0.0,0.0,0.0,0.0,0.0,0.0,-4.7309,-4.7309,-4.7309,-4.7309,-4.7309,-4.7309,0.0,-4.7309,-4.7309,-4.7309,0.0,0.0,0.0,0.0,0.0,0.0,0.0,0.0,0.0,0.0,0.0,0.0,0.0,0.0,0.0,0.0,0.0,0.0,0.0,0.0,0.0,0.0,0.0,-5.1229,-5.2456,-5.3384,-5.3832,-5.473,-5.5179,-5.5179,-5.5179,-5.5179,-5.5179,-5.5179,-5.5179,-5.5209,-5.5867,-5.6286,-5.6526,-5.7633,-5.8112,-5.8141,-5.8351,-5.871,-5.9099,-5.9099,-5.9099,-5.9099,-5.9099,-5.9099,-5.9099,0.0,0.0,0.0,0.0,0.0,0.0,0.0,0.0,-4.5334,-4.5334,0.0,0.0,0.0,0.0,0.0,-4.7249,-4.7309,-4.7309,-4.7309,-4.7309,-4.7309,-4.7309,0.0,0.0,-4.7309,-4.6681,-4.6681,-4.7309,-4.6681,-4.6681,-4.7309,-4.7309,-4.7309,-4.7309,-4.7309,-4.7309,-4.7309,-4.7309,-4.7309,-4.7309,-4.7309,-4.7309,-4.7309,-4.7309,-4.7309,-4.7309,-4.7309,-4.7309,0.0,-4.7309,0.0,0.0,0.0,0.0,0.0,0.0,0.0,-4.7309,0.0,0.0,0.0,0.0,0.0,0.0,-4.7309,0.0,0.0,0.0,0.0,0.0,0.0,0.0,0.0,0.0,0.0,0.0,0.0,0.0,0.0,0.0,0.0,0.0,0.0,0.0,0.0,0.0,0.0,-5.1229,-5.1229,-5.2456,-5.3803,-5.5149,-5.5179,-5.5179,-5.5179,-5.5179,-5.5179,-5.5179,-5.5179,-5.5209,-5.5239,-5.5897,-5.6526,-5.7154,-5.7842,-5.8141,-5.8201,-5.883,-5.9099,-5.9099,-5.9099,-5.9099,-5.9099,-5.9099,-5.9099,-5.9099,0.0,0.0,0.0,0.0,0.0,0.0,-4.5274,-4.5723,-4.6022,0.0,0.0,0.0,-4.701,-4.704,-4.71,-4.7279,-4.7309,-4.7309,-4.7309,-4.7309,-4.7309,-4.7309,-4.7309,-4.7309,-4.7309,-4.713,-4.713,-4.7309,-4.713,-4.713,-4.7309,-4.7309,-4.7309,-4.7309,-4.7309,-4.7309,-4.7309,-4.7309,-4.7309,-4.7309,-4.7309,-4.7309,-4.7309,-4.7309,-4.7309,0.0,0.0,-4.7309,-4.7309,0.0,-4.7309,-4.7309,0.0,0.0,-4.7309,0.0,0.0,0.0,-4.7309,0.0,0.0,0.0,0.0,0.0,0.0,0.0,0.0,0.0,0.0,0.0,0.0,0.0,0.0,0.0,0.0,0.0,0.0,0.0,0.0,0.0,0.0,0.0,0.0,0.0,0.0,0.0,-5.1229,-5.1229,-5.1229,-5.2456,-5.3803,-5.5149,-5.5179,-5.5179,-5.5179,-5.5179,-5.5179,-5.5179,-5.5179,-5.5448,-5.5927,-5.6555,-5.7214,-5.7872,-5.853,-5.883,-5.886,-5.9039,-5.9099,-5.9099,-5.9099,-5.9099,-5.9099,-5.9099,-5.9099,-5.9099,0.0,0.0,0.0,0.0,0.0,-4.5813,-4.6082,-4.6471,-4.6741,0.0,0.0,0.0,-4.7309,-4.7309,-4.7309,-4.7309,-4.7309,-4.7309,-4.7309,-4.7309,-4.7309,-4.7309,-4.7309,-4.7309,-4.7309,-4.704,-4.704,-4.7309,-4.704,-4.704,-4.7309,-4.7309,-4.7309,-4.7309,-4.7309,-4.7309,-4.7309,-4.7309,-4.7309,-4.7309,-4.7309,-4.7309,-4.7309,-4.7309,-4.7309,0.0,0.0,0.0,-4.7309,-4.7309,-4.7309,0.0,0.0,0.0,0.0,0.0,0.0,0.0,-4.7309,-4.7309,0.0,0.0,0.0,0.0,-4.7309,-4.7309,-4.7309,0.0,0.0,0.0,0.0,0.0,0.0,0.0,0.0,0.0,0.0,0.0,0.0,0.0,0.0,0.0,0.0,0.0,0.0,-5.1229,-5.1229,-5.1468,-5.2007,-5.2755,-5.3803,-5.5149,-5.5179,-5.5179,-5.5179,-5.5179,-5.5179,-5.5179,-5.5179,-5.5538,-5.6248,-5.6825,-5.7483,-5.8171,-5.883,-5.9099,-5.9099,-5.9099,-5.9099,-5.9099,-5.9099,-5.9099,-5.9099,-5.9099,-5.9099,-5.9099,0.0,0.0,-4.5723,-4.6322,-4.6399,-4.6621,-4.7219,-4.7309,-4.7309,0.0,-4.7309,-4.7309,-4.7309,-4.7309,-4.7309,-4.7309,-4.7309,-4.7309,-4.7309,-4.7309,-4.7309,-4.7309,-4.7309,-4.7309,-4.7309,-4.6741,-4.6711,-4.7309,-4.6711,-4.6741,-4.7309,-4.7309,-4.7309,-4.7309,-4.7309,-4.7309,-4.7309,-4.7309,-4.7309,-4.7309,-4.7309,-4.7309,-4.7309,0.0,-4.7309,-4.7309,-4.7399,-4.7429,-4.7429,-4.7489,-4.7519,0.0,0.0,0.0,0.0,0.0,-4.7519,-4.7519,-4.7519,0.0,0.0,0.0,0.0,0.0,-4.7309,-4.7309,-4.7309,0.0,0.0,0.0,0.0,0.0,0.0,0.0,0.0,0.0,0.0,0.0,0.0,0.0,0.0,0.0,0.0,-5.1229,-5.1229,-5.1229,-5.1229,-5.1798,-5.3114,-5.3174,-5.3803,-5.5149,-5.5179,-5.5179,-5.5179,-5.5179,-5.5179,-5.5179,-5.5179,-5.5568,-5.6286,-5.6855,-5.7513,-5.8261,-5.886,-5.9099,-5.9099,-5.9099,-5.9099,-5.9099,-5.9099,-5.9099,-5.9099,-5.9099,-5.9099,-5.9099,0.0,-4.692,-4.695,-4.71,-4.71,-4.716,-4.7279,-4.7309,-4.7309,-4.7309,-4.7309,-4.7309,-4.7309,-4.7309,-4.7309,-4.7309,-4.7309,-4.7309,-4.7309,-4.7309,-4.7309,-4.7309,-4.7309,-4.7309,-4.7309,-4.7189,-4.7189,-4.7309,-4.7189,-4.7189,-4.7309,-4.7309,-4.7309,-4.7309,-4.7309,-4.7309,-4.7309,-4.7309,-4.7309,-4.7309,-4.7309,-4.7309,-4.7309,-4.7309,-4.7309,-4.7369,-4.7908,-4.8087,-4.8177,-4.876,-4.894,-4.894,0.0,0.0,0.0,-4.894,0.0,0.0,0.0,0.0,0.0,0.0,0.0,0.0,-4.7309,-4.7309,-4.7309,0.0,0.0,0.0,0.0,0.0,0.0,0.0,0.0,0.0,0.0,0.0,0.0,0.0,0.0,0.0,0.0,-5.1229,-5.1229,-5.1229,-5.1229,-5.1798,-5.3114,-5.3174,-5.3803,-5.5149,-5.5179,-5.5179,-5.5179,-5.5179,-5.5179,-5.5179,-5.5179,-5.5807,-5.6915,-5.7034,-5.7752,-5.8919,-5.9039,-5.9099,-5.9099,-5.9099,-5.9099,-5.9099,-5.9099,-5.9099,-5.9099,-5.9099,-5.9099,-5.9099,-4.7309,-4.7309,-4.7309,-4.7309,-4.7309,-4.7309,-4.7309,-4.7309,-4.7309,-4.7309,-4.7309,-4.7309,-4.7309,-4.7309,-4.7309,-4.7309,-4.7309,-4.7309,-4.7309,-4.7309,-4.7309,-4.7309,-4.7309,-4.7309,-4.7309,-4.7309,-4.7309,-4.7309,-4.7309,-4.7309,-4.7309,-4.7309,-4.7309,-4.7309,-4.7638,-4.7788,-4.7818,-4.8147,-4.8297,-4.8267,-4.7938,0.0,-4.7848,-4.8147,-4.8297,-4.8327,-4.87,-4.882,-4.888,-4.9209,-4.9299,0.0,0.0,-4.9299,-4.9299,0.0,-4.9299,-4.9299,0.0,0.0,0.0,-4.882,0.0,0.0,0.0,-4.8027,-4.7788,0.0,0.0,0.0,0.0,0.0,0.0,0.0,0.0,0.0,0.0,0.0,0.0,0.0,0.0,0.0,0.0,-5.1229,-5.1229,-5.1229,-5.1229,-5.1798,-5.3114,-5.3174,-5.3803,-5.5149,-5.5179,-5.5179,-5.5179,-5.5179,-5.5179,-5.5179,-5.5538,-5.6166,-5.7094,-5.7453,-5.8171,-5.9099,-5.9099,-5.9099,-5.9099,-5.9099,-5.9099,-5.9099,-5.9099,-5.9099,-5.9099,-5.9099,-5.9099,-5.9099,-4.7309,-4.7309,-4.7309,-4.7309,-4.7309,-4.7309,-4.7309,-4.7309,-4.7309,-4.7309,-4.7309,-4.7309,-4.7309,-4.7309,-4.7309,-4.7309,-4.7309,-4.7369,-4.7489,-4.7489,-4.7489,-4.7489,-4.7608,-4.7608,-4.7489,-4.7608,-4.7698,-4.7698,-4.7698,-4.7698,-4.7698,-4.7698,-4.7698,-4.7698,-4.8237,-4.8476,-4.8506,-4.909,-4.9299,-4.9269,0.0,-4.8596,-4.8536,-4.912,-4.9299,-4.9329,-4.9449,-4.9523,-4.9689,-4.9689,-4.9689,-4.9689,-4.9689,-4.9689,0.0,0.0,0.0,0.0,0.0,0.0,0.0,0.0,0.0,-4.9299,0.0,0.0,0.0,0.0,0.0,0.0,0.0,0.0,0.0,0.0,0.0,0.0,0.0,0.0,0.0,0.0,0.0,0.0,0.0,-5.1139,-5.1229,-5.1229,-5.1229,-5.1798,-5.3114,-5.3174,-5.3803,-5.5149,-5.5179,-5.5179,-5.5179,-5.5179,-5.5179,-5.5209,-5.5867,-5.6496,-5.7124,-5.7812,-5.8471,-5.9099,-5.9099,-5.9099,-5.9099,-5.9099,-5.9099,-5.9099,-5.9099,-5.9099,-5.9099,-5.9099,-5.9099,-5.9099,-4.7309,-4.7309,-4.7309,-4.7309,-4.7309,-4.7309,-4.7309,-4.7309,-4.7309,-4.7309,-4.7309,-4.7309,-4.7309,-4.7309,-4.7309,-4.7309,-4.7309,-4.7549,-4.8147,-4.8177,-4.8177,-4.8177,-4.879,-4.8775,-4.8177,-4.879,-4.909,-4.909,-4.909,-4.909,-4.909,-4.909,-4.909,-4.909,-4.9179,-4.9209,-4.9209,-4.9269,-4.9299,0.0,-4.9823,-4.9673,0.0,-4.9269,-4.9299,-4.9389,-4.9912,-5.0511,-5.099,0.0,-5.099,-5.099,0.0,-5.099,-5.099,0.0,0.0,0.0,0.0,0.0,0.0,0.0,-4.9703,0.0,0.0,0.0,0.0,0.0,0.0,0.0,0.0,0.0,0.0,0.0,0.0,0.0,0.0,0.0,0.0,0.0,0.0,0.0,0.0,0.0,-5.1229,-5.1229,-5.1229,-5.1798,-5.3114,-5.3174,-5.3803,-5.5149,-5.5179,-5.5179,-5.5179,-5.5179,-5.5179,-5.5209,-5.5867,-5.6496,-5.7124,-5.7812,-5.8471,-5.9099,-5.9099,-5.9099,-5.9099,-5.9099,-5.9099,-5.9099,-5.9099,-5.9099,-5.9099,-5.9099,-5.9099,-5.9099,-4.7309,-4.7309,-4.7309,-4.7309,-4.7309,-4.7309,-4.7309,-4.7309,-4.7309,-4.7309,-4.7309,-4.7309,-4.7309,-4.7638,-4.7728,-4.7339,-4.7997,-4.8386,0.0,0.0,-4.891,-4.891,-4.9179,-4.9179,-4.891,-4.9179,-4.9299,-4.9299,-4.9299,-4.9299,-4.9299,-4.9299,-4.9299,-4.9329,-4.9673,-4.9823,-4.9853,-5.0242,-5.0391,0.0,0.0,0.0,0.0,-5.0391,-5.0391,-5.0451,-5.072,-5.0943,-5.1229,0.0,-5.1229,0.0,0.0,0.0,0.0,0.0,0.0,0.0,0.0,0.0,0.0,0.0,0.0,0.0,-5.0391,0.0,-4.9823,0.0,0.0,0.0,0.0,0.0,0.0,0.0,0.0,0.0,0.0,0.0,0.0,0.0,0.0,0.0,0.0,0.0,0.0,0.0,0.0,-5.1798,-5.3114,-5.3174,-5.3803,-5.5149,-5.5179,-5.5179,-5.5179,-5.5179,-5.5179,-5.5209,-5.6226,-5.6825,-5.7124,-5.8201,-5.883,-5.9099,-5.9099,-5.9099,-5.9099,-5.9099,-5.9099,-5.9099,-5.9099,-5.9099,-5.9099,-5.9099,-5.9099,-5.9099,-4.7309,-4.7309,-4.7309,-4.7309,-4.7309,-4.7309,-4.7309,-4.7309,-4.7369,-4.7549,-4.7578,-4.7638,-4.7818,-4.8267,-4.8356,-4.7878,-4.876,-4.9179,0.0,0.0,-4.9523,0.0,0.0,0.0,-4.9523,-4.9703,-4.9793,-4.9793,-4.9793,-4.9793,-4.9793,-4.9793,-4.9793,-4.9823,-5.0301,-5.0465,-5.0495,-5.102,-5.1229,-5.1229,-5.1229,-5.1229,-5.1229,-5.1229,-5.1229,-5.1229,-5.1229,-5.1229,-5.1229,-5.1229,-5.1229,0.0,-5.1229,0.0,0.0,0.0,0.0,0.0,-5.1229,0.0,0.0,0.0,0.0,0.0,0.0,0.0,0.0,0.0,0.0,0.0,0.0,0.0,0.0,0.0,0.0,0.0,0.0,0.0,0.0,0.0,0.0,0.0,0.0,0.0,0.0,-5.1229,-5.1229,-5.1798,-5.3114,-5.3174,-5.3803,-5.5149,-5.5179,-5.5179,-5.5179,-5.5179,-5.5269,-5.5478,-5.6585,-5.7184,-5.7423,-5.859,-5.9099,-5.9099,-5.9099,-5.9099,-5.9099,-5.9099,-5.9099,-5.9099,-5.9099,-5.9099,-5.9099,-5.9099,-5.9099,-5.9099,-4.7309,-4.7309,-4.7309,-4.7309,-4.7309,-4.7309,-4.7309,-4.7309,-4.7549,-4.8177,-4.8267,-4.8506,-4.9179,-4.9269,-4.9269,-4.9239,0.0,-4.9523,-5.0076,0.0,-5.0166,0.0,0.0,-5.087,0.0,0.0,-5.1169,-5.1169,-5.1169,-5.1169,-5.1169,-5.1169,-5.1169,-5.1169,-5.1169,-5.1199,-5.1199,-5.1199,-5.1229,-5.1229,-5.1229,-5.1229,-5.1229,0.0,-5.1229,-5.1229,-5.1229,0.0,0.0,-5.1229,-5.1229,0.0,0.0,0.0,0.0,0.0,0.0,0.0,0.0,0.0,0.0,-5.1229,0.0,0.0,0.0,0.0,-5.1199,0.0,0.0,0.0,0.0,0.0,0.0,0.0,0.0,0.0,0.0,0.0,0.0,0.0,0.0,0.0,0.0,0.0,0.0,-5.1229,-5.1229,-5.1798,-5.3114,-5.3174,-5.3803,-5.5149,-5.5179,-5.5179,-5.5179,-5.5179,-5.5508,-5.6188,-5.6795,-5.7453,-5.8112,-5.88,-5.9099,-5.9099,-5.9099,-5.9099,-5.9099,-5.9099,-5.9099,-5.9099,-5.9099,-5.9099,-5.9099,-5.9099,-5.9099,-5.9099,-4.8596,-4.8596,-4.8476,-4.8027,-4.7967,-4.8087,-4.858,-4.8596,-4.8686,-4.894,-4.897,0.0,0.0,-4.9643,-4.9733,0.0,0.0,-5.0481,-5.0196,-5.0614,0.0,0.0,0.0,-5.1063,0.0,0.0,0.0,-5.1229,-5.1229,-5.1229,-5.1229,-5.1229,-5.1229,-5.1229,-5.1229,-5.1229,0.0,0.0,0.0,0.0,0.0,-5.1229,-5.1229,0.0,0.0,-5.1229,-5.1229,-5.1229,0.0,-5.1229,-5.1229,-5.1229,-5.1229,-5.1229,-5.1229,-5.1229,-5.1229,0.0,0.0,0.0,-5.1229,-5.1229,0.0,0.0,0.0,0.0,0.0,0.0,0.0,0.0,0.0,0.0,0.0,0.0,0.0,0.0,0.0,0.0,0.0,0.0,0.0,0.0,0.0,0.0,0.0,-5.1229,-5.1618,-5.2247,0.0,-5.3623,-5.4251,-5.5149,-5.5179,-5.5179,-5.5179,-5.5179,-5.5538,-5.6248,-5.6795,-5.7453,-5.8141,-5.88,-5.9099,-5.9099,-5.9099,-5.9099,-5.9099,-5.9099,-5.9099,-5.9099,-5.9099,-5.9099,-5.9099,-5.9099,-5.9099,-5.9099,-4.9299,-4.9299,-4.9179,-4.876,-4.867,-4.882,-4.9239,-4.9299,-4.9389,0.0,-4.9613,0.0,-4.9942,0.0,-5.0421,0.0,-5.075,-5.105,-5.0554,-5.0943,0.0,-5.1229,-5.1229,0.0,0.0,0.0,0.0,0.0,-5.1229,-5.1229,-5.1229,-5.1229,-5.1229,-5.1229,-5.1229,-5.1229,-5.1229,-5.1229,-5.1229,0.0,0.0,-5.1229,0.0,0.0,-5.1229,-5.1229,0.0,-5.1229,-5.1229,-5.1229,-5.1229,-5.1229,-5.1229,-5.1229,-5.1229,-5.1229,-5.1229,-5.1229,-5.1229,-5.1229,0.0,-5.1229,-5.1229,0.0,-5.1229,0.0,0.0,0.0,0.0,0.0,0.0,0.0,0.0,0.0,0.0,0.0,0.0,0.0,0.0,0.0,0.0,0.0,0.0,0.0,-5.1229,-5.1229,-5.1828,-5.2486,0.0,0.0,-5.4521,-5.5179,-5.5179,-5.5179,-5.5179,-5.5179,-5.5628,-5.6496,-5.6885,-5.7573,-5.8501,-5.8919,-5.9099,-5.9099,-5.9099,-5.9099,-5.9099,-5.9099,-5.9099,-5.9099,-5.9099,-5.9099,-5.9099,-5.9099,-5.9099,-5.9099,-4.9389,-4.9389,-4.9389,-4.9389,-4.9389,-4.9389,0.0,0.0,-4.9583,0.0,-5.0255,-5.0465,-5.1139,-5.1229,-5.1229,-5.1229,-5.1229,-5.1229,-5.1229,-5.1229,0.0,0.0,-5.1229,-5.1229,-5.1229,0.0,0.0,0.0,0.0,-5.1229,-5.1229,-5.1229,-5.1229,-5.1229,-5.1229,-5.1229,-5.1229,-5.1229,-5.1229,-5.1229,-5.1229,-5.1229,-5.1229,-5.1229,-5.1229,-5.1229,-5.1229,-5.1229,-5.1229,-5.1229,-5.1229,-5.1229,-5.1229,-5.1229,-5.1229,-5.1229,-5.1229,-5.1229,-5.1229,-5.1229,-5.1229,-5.1229,0.0,0.0,0.0,0.0,-5.1229,0.0,0.0,0.0,0.0,0.0,0.0,0.0,0.0,0.0,0.0,0.0,0.0,0.0,0.0,0.0,0.0,-5.1229,-5.1229,-5.1229,-5.1858,0.0,0.0,0.0,-5.4551,-5.5179,-5.5179,-5.5179,-5.5179,-5.5179,-5.5837,-5.7094,-5.7094,-5.7812,-5.9099,-5.9099,-5.9099,-5.9099,-5.9099,-5.9099,-5.9099,-5.9099,-5.9099,-5.9099,-5.9099,-5.9099,-5.9099,-5.9099,-5.9099,-5.9099,-5.072,-5.072,-5.072,-5.072,-5.072,-5.072,0.0,0.0,0.0,0.0,-5.096,-5.0973,-5.1199,-5.1229,-5.1229,-5.1229,-5.1229,0.0,0.0,0.0,0.0,-5.1229,-5.1229,-5.1229,-5.1229,-5.1229,0.0,-5.1229,0.0,-5.1229,-5.1229,-5.1229,-5.1229,-5.1229,-5.1229,-5.1229,-5.1229,-5.1229,-5.1229,-5.1229,-5.1229,-5.1229,0.0,0.0,-5.1229,-5.1229,-5.1229,-5.1229,-5.1229,-5.1229,-5.1229,-5.1229,-5.1229,-5.1229,-5.1229,-5.1229,-5.1229,-5.1229,-5.1229,-5.1229,-5.1229,-5.1229,-5.1229,-5.1229,0.0,0.0,0.0,0.0,0.0,0.0,0.0,0.0,0.0,0.0,0.0,0.0,0.0,0.0,0.0,0.0,0.0,0.0,0.0,-5.1229,-5.1229,-5.1229,-5.2276,0.0,0.0,0.0,0.0,-5.5179,-5.5179,-5.5179,-5.5179,-5.5179,-5.5837,-5.7094,-5.7094,-5.7812,-5.9099,-5.9099,-5.9099,-5.9099,-5.9099,-5.9099,-5.9099,-5.9099,-5.9099,-5.9099,-5.9099,-5.9099,-5.9099,-5.9099,-5.9099,-5.9099,-5.1229,-5.1229,-5.1229,-5.1229,0.0,0.0,-5.1229,-5.1229,0.0,-5.1229,-5.1229,0.0,-5.1229,-5.1229,-5.1229,-5.1229,-5.1229,0.0,-5.1229,0.0,0.0,-5.1229,-5.1229,-5.1229,-5.1229,-5.1229,0.0,-5.1229,0.0,-5.1229,-5.1229,-5.1229,-5.1229,-5.1229,-5.1229,-5.1229,-5.1229,-5.1229,-5.1229,-5.1229,-5.1229,0.0,0.0,-5.1229,-5.1229,-5.1229,-5.1229,-5.1229,-5.1229,-5.1229,-5.1229,-5.1229,-5.1229,-5.1229,-5.1229,-5.1229,-5.1229,-5.1229,-5.1229,-5.1229,-5.1229,-5.1229,-5.1229,-5.1229,-5.1229,-5.1229,-5.1229,0.0,0.0,0.0,0.0,0.0,0.0,0.0,0.0,0.0,0.0,0.0,0.0,0.0,0.0,0.0,0.0,0.0,0.0,0.0,0.0,0.0,0.0,0.0,0.0,-5.5179,-5.5179,-5.5179,-5.5179,-5.5478,-5.6107,-5.7094,-5.7393,-5.8082,-5.9099,-5.9099,-5.9099,-5.9099,-5.9099,-5.9099,-5.9099,-5.9099,-5.9099,-5.9099,-5.9099,-5.9099,-5.9099,-5.9099,-5.9099,-5.9099,-5.1229,-5.1229,-5.1229,0.0,0.0,0.0,0.0,-5.1229,0.0,-5.1229,0.0,-5.1229,-5.1229,-5.1229,-5.1229,-5.1229,0.0,-5.1229,-5.1229,-5.1229,-5.1229,-5.1229,-5.1229,-5.1229,-5.1229,-5.1229,-5.1229,0.0,0.0,-5.1229,-5.1229,-5.1229,-5.1229,-5.1229,-5.1229,0.0,0.0,-5.1229,-5.1229,-5.1229,-5.1229,-5.1229,-5.1229,-5.1229,-5.1229,-5.1229,-5.1229,-5.1229,-5.1229,-5.1229,-5.1229,-5.1229,-5.1229,-5.1229,-5.1229,-5.1229,-5.1229,-5.1229,-5.1229,-5.1229,-5.1229,-5.1229,-5.1229,-5.1229,-5.1229,-5.1229,-5.1229,-5.1229,-5.1229,-5.1229,0.0,0.0,0.0,0.0,0.0,0.0,0.0,0.0,0.0,0.0,0.0,0.0,0.0,0.0,0.0,0.0,0.0,0.0,0.0,0.0,0.0,-5.5179,-5.5179,0.0,-5.5179,0.0,-5.6466,-5.7094,-5.7782,-5.8471,-5.9099,-5.9099,-5.9099,-5.9099,-5.9099,-5.9099,-5.9099,-5.9099,-5.9099,-5.9099,-5.9099,-5.9099,-5.9099,-5.9099,-5.9099,-5.9099,-5.1229,-5.1229,-5.1229,-5.1229,0.0,-5.1229,-5.1229,-5.1229,-5.1229,-5.1229,-5.1229,-5.1229,-5.1229,-5.1229,-5.1229,-5.1229,-5.1229,0.0,0.0,0.0,0.0,-5.1229,-5.1229,-5.1229,-5.1229,-5.1229,-5.1229,0.0,0.0,0.0,-5.1229,-5.1229,-5.1229,-5.1229,-5.1229,0.0,-5.1229,-5.1229,0.0,-5.1229,-5.1229,-5.1229,-5.1229,-5.1229,-5.1229,-5.1229,-5.1229,-5.1229,-5.1229,-5.1229,-5.1229,-5.1229,-5.1229,-5.1229,-5.1229,-5.1229,-5.1229,-5.1229,-5.1229,-5.1229,-5.1229,-5.1229,-5.1229,-5.1229,-5.1229,-5.1229,-5.1229,-5.1229,-5.1229,-5.1229,-5.1229,0.0,0.0,0.0,0.0,0.0,0.0,0.0,0.0,0.0,0.0,0.0,0.0,0.0,0.0,0.0,0.0,0.0,0.0,0.0,0.0,0.0,0.0,0.0,0.0,0.0,-5.6466,-5.7094,-5.7782,-5.8471,-5.9099,-5.9099,-5.9099,-5.9099,-5.9099,-5.9099,-5.9099,-5.9099,-5.9099,-5.9099,-5.9099,-5.9099,-5.9099,-5.9099,-5.9099,-5.9099,-5.1229,-5.1229,-5.1229,-5.1229,0.0,0.0,0.0,-5.1229,0.0,-5.1229,-5.1229,-5.1229,-5.1229,-5.1229,-5.1229,-5.1229,-5.1229,-5.1229,-5.1229,-5.1229,-5.1229,-5.1229,-5.1229,0.0,-5.1229,-5.1229,-5.1229,-5.1229,0.0,0.0,-5.1229,0.0,0.0,-5.1229,0.0,-5.1229,0.0,0.0,0.0,-5.1229,-5.1229,-5.1229,-5.1229,-5.1229,-5.1229,-5.1229,-5.1229,-5.1439,-5.1678,-5.1319,-5.1229,-5.1229,-5.1229,-5.1439,-5.1738,-5.1738,-5.1977,-5.2247,-5.2247,-5.2247,-5.2247,-5.2247,-5.2247,-5.2247,-5.2247,-5.2247,-5.2247,-5.2247,-5.2247,-5.2247,-5.2247,-5.2247,0.0,0.0,0.0,0.0,0.0,0.0,0.0,0.0,0.0,0.0,0.0,0.0,0.0,0.0,0.0,0.0,0.0,0.0,0.0,0.0,0.0,0.0,0.0,0.0,0.0,-5.7633,-5.8321,-5.88,-5.9099,-5.9099,-5.9099,-5.9099,-5.9099,-5.9099,-5.9099,-5.9099,-5.9099,-5.9099,-5.9099,-5.9099,-5.9099,-5.9099,-5.9099,-5.9099,-5.1229,-5.1229,0.0,0.0,-5.1229,0.0,-5.1229,-5.1229,-5.1229,-5.1229,-5.1229,-5.1229,-5.1229,-5.1229,-5.1229,-5.1229,-5.1229,-5.1229,-5.1229,-5.1229,-5.1229,-5.1229,-5.1229,-5.1229,-5.1229,-5.1229,-5.1229,0.0,0.0,0.0,0.0,0.0,0.0,0.0,0.0,0.0,0.0,0.0,-5.1229,-5.1229,-5.1229,-5.1229,-5.1229,-5.1229,-5.1319,-5.1439,-5.1439,-5.1858,-5.2336,-5.1798,-5.1648,-5.1648,-5.1648,-5.2007,-5.2396,-5.2396,-5.2785,-5.3174,-5.3174,-5.3174,-5.3174,-5.3174,-5.3174,-5.3174,-5.3174,-5.3174,-5.3174,-5.3174,-5.3174,-5.3174,-5.3174,-5.3174,0.0,0.0,0.0,0.0,0.0,0.0,0.0,0.0,0.0,0.0,0.0,0.0,0.0,0.0,0.0,0.0,0.0,0.0,0.0,0.0,0.0,-5.5508,-5.6218,0.0,-5.7453,0.0,-5.88,-5.9099,-5.9099,-5.9099,-5.9099,-5.9099,-5.9099,-5.9099,-5.9099,-5.9099,-5.9099,-5.9099,-5.9099,-5.9099,-5.9099,-5.9099,-5.9099,-5.9099,0.0,0.0,0.0,0.0,0.0,0.0,-5.1229,-5.1229,-5.1229,-5.1229,-5.1229,-5.1229,-5.1229,-5.1229,-5.1229,-5.1229,-5.1229,-5.1229,-5.1229,-5.1229,-5.1229,-5.1229,-5.1229,-5.1229,-5.1229,-5.1229,-5.1229,0.0,0.0,0.0,0.0,0.0,0.0,0.0,0.0,0.0,0.0,-5.1229,-5.1229,-5.1229,-5.1229,-5.1229,-5.1229,-5.1229,-5.1588,-5.2127,-5.2127,-5.2546,-5.3084,-5.3025,-5.2995,-5.2995,-5.2995,-5.3025,-5.3084,-5.3084,-5.3144,-5.3174,-5.3174,-5.3174,-5.3174,-5.3174,-5.3174,-5.3174,-5.3174,-5.3174,-5.3174,-5.3174,-5.3174,-5.3174,-5.3174,-5.3174,-5.3144,0.0,0.0,0.0,0.0,0.0,0.0,0.0,0.0,0.0,0.0,0.0,0.0,0.0,0.0,0.0,0.0,0.0,0.0,-5.5179,0.0,-5.5508,-5.6218,-5.6795,0.0,-5.8141,-5.88,-5.9099,-5.9099,-5.9099,-5.9099,-5.9099,-5.9099,-5.9099,-5.9099,-5.9099,-5.9099,-5.9099,-5.9099,-5.9099,-5.9099,-5.9099,-5.9099,-5.9099,0.0,0.0,0.0,0.0,0.0,0.0,0.0,-5.1229,-5.1229,-5.1229,-5.1229,-5.1229,-5.1229,-5.1229,-5.1229,-5.1229,-5.1229,-5.1229,-5.1229,-5.1229,-5.1229,-5.1229,-5.1229,-5.1229,-5.1229,-5.1229,-5.1229,0.0,0.0,0.0,0.0,0.0,0.0,0.0,0.0,-5.1229,-5.1229,-5.1229,-5.1229,-5.1259,-5.1648,-5.1798,-5.1858,-5.2247,-5.2546,-5.2785,-5.2785,-5.3234,-5.3803,-5.3803,-5.3533,-5.3174,-5.3174,-5.3473,-5.3803,-5.3803,-5.4072,-5.4401,-5.4401,-5.4401,-5.4401,-5.4401,-5.4401,-5.4401,-5.4401,-5.4401,-5.4401,-5.4401,-5.4401,-5.4401,-5.4401,-5.4401,-5.4251,0.0,0.0,0.0,0.0,0.0,0.0,0.0,0.0,0.0,0.0,0.0,0.0,0.0,0.0,0.0,0.0,0.0,0.0,-5.5179,0.0,-5.6077,-5.6705,-5.7393,-5.8052,-5.871,-5.8979,-5.9099,-5.9099,-5.9099,-5.9099,-5.9099,-5.9099,-5.9099,-5.9099,-5.9099,-5.9099,-5.9099,-5.9099,-5.9099,-5.9099,-5.9099,-5.9099,-5.9099,-5.1229,0.0,-5.1229,0.0,-5.1229,-5.1229,-5.1229,-5.1229,-5.1229,-5.1229,-5.1379,-5.1439,-5.1229,-5.1229,-5.1229,-5.1229,-5.1229,-5.1229,-5.1229,-5.1229,-5.1229,-5.1229,-5.1229,0.0,-5.1229,-5.1229,-5.1229,-5.1229,-5.1229,0.0,0.0,0.0,0.0,0.0,-5.1229,-5.1229,-5.1229,-5.1439,-5.1498,-5.1558,-5.2217,-5.2486,-5.2546,-5.2995,-5.3294,-5.3473,-5.3473,-5.3922,-5.4491,-5.4491,-5.4162,-5.3773,-5.3773,-5.4102,-5.4491,-5.4491,-5.482,-5.5179,-5.5179,-5.5179,-5.5179,-5.5179,-5.5179,-5.5179,-5.5179,-5.5179,-5.5179,-5.5179,-5.5179,-5.5179,-5.5179,-5.5179,-5.5029,-5.4581,0.0,0.0,0.0,0.0,0.0,0.0,-5.491,-5.5179,-5.5179,0.0,0.0,0.0,0.0,0.0,0.0,0.0,0.0,0.0,0.0,0.0,0.0,-5.7872,-5.8471,-5.9099,-5.9099,-5.9099,-5.9099,-5.9099,-5.9099,-5.9099,-5.9099,-5.9099,-5.9099,-5.9099,-5.9099,-5.9099,-5.9099,-5.9099,-5.9099,-5.9099,-5.9099,-5.9099,-5.1229,-5.1229,-5.1229,-5.1229,-5.1229,-5.1229,-5.1229,-5.1229,-5.1229,-5.1229,-5.1798,-5.1947,-5.1289,-5.1229,-5.1229,-5.1229,-5.1229,-5.1229,-5.1229,-5.1229,-5.1229,0.0,0.0,-5.1229,-5.1229,-5.1229,-5.1229,-5.1229,0.0,0.0,-5.0196,0.0,-5.0554,-5.1229,-5.1229,-5.1229,-5.1259,-5.1917,-5.2187,-5.2247,-5.2905,-5.3174,-5.3174,-5.3174,-5.3593,-5.4192,-5.4192,-5.461,-5.5179,-5.5179,-5.5179,-5.5179,-5.5179,-5.5179,-5.5179,-5.5179,-5.5179,-5.5179,-5.5179,-5.5179,-5.5179,-5.5179,-5.5179,-5.5179,-5.5179,-5.5179,-5.5179,-5.5179,-5.5179,-5.5179,-5.5179,-5.5179,-5.5179,-5.5179,0.0,0.0,0.0,0.0,0.0,0.0,-5.5179,-5.5179,-5.5179,0.0,0.0,0.0,0.0,0.0,0.0,0.0,0.0,-5.6188,-5.6218,0.0,-5.8112,-5.8112,-5.8471,-5.9099,-5.9099,-5.9099,-5.9099,-5.9099,-5.9099,-5.9099,-5.9099,-5.9099,-5.9099,-5.9099,-5.9099,-5.9099,-5.9099,-5.9099,-5.9099,-5.9099,-5.9099,-5.9099,-5.1229,-5.1588,-5.1887,-5.1887,-5.2247,-5.2546,-5.2546,-5.2546,-5.2546,-5.2546,-5.2725,-5.2785,-5.2576,-5.2157,-5.1887,0.0,-5.1468,-5.1229,0.0,-5.1229,-5.1229,-5.1229,-5.1229,-5.1229,-5.1229,-5.1229,-5.1229,-5.1229,0.0,0.0,0.0,-5.0853,-5.102,-5.1229,-5.1678,-5.1887,-5.1947,-5.2606,-5.2875,-5.2935,-5.3593,-5.3892,-5.3922,-5.4371,-5.47,-5.488,-5.488,-5.5029,-5.5179,-5.5179,-5.5179,-5.5179,-5.5179,-5.5179,-5.5179,-5.5179,-5.5179,-5.5179,-5.5179,-5.5179,-5.5179,-5.5179,-5.5179,-5.5179,-5.5179,-5.5179,-5.5179,-5.5179,-5.5179,-5.5179,-5.5179,-5.5179,-5.5179,-5.5179,-5.5179,0.0,0.0,0.0,0.0,0.0,-5.5179,-5.5179,0.0,-5.5179,0.0,0.0,0.0,0.0,0.0,0.0,0.0,0.0,-5.7034,0.0,-5.8112,-5.856,-5.889,-5.9099,-5.9099,-5.9099,-5.9099,-5.9099,-5.9099,-5.9099,-5.9099,-5.9099,-5.9099,-5.9099,-5.9099,-5.9099,-5.9099,-5.9099,-5.9099,-5.9099,-5.9099,-5.9099,-5.1947,-5.2276,-5.2576,-5.2576,-5.2905,-5.3174,-5.3174,-5.3174,-5.3174,-5.3174,-5.3414,-5.3563,-5.3563,-5.3204,0.0,-5.2606,-5.2187,-5.1947,-5.1947,-5.1947,-5.1947,-5.1947,-5.1947,-5.1947,-5.1947,0.0,0.0,-5.1947,-5.1947,-5.1947,-5.1947,-5.1947,-5.1947,-5.1977,-5.2396,-5.2576,-5.2606,-5.3294,-5.3563,-5.3623,-5.4311,-5.4581,-5.461,-5.5029,-5.5179,-5.5179,-5.5179,-5.5179,-5.5179,-5.5179,-5.5179,-5.5179,-5.5179,-5.5179,-5.5179,-5.5179,-5.5179,-5.5179,-5.5179,-5.5179,-5.5179,-5.5179,-5.5179,-5.5179,-5.5179,-5.5179,-5.5179,-5.5179,-5.5179,-5.5179,-5.5179,-5.5179,-5.5179,-5.5179,-5.5179,-5.5179,-5.5179,0.0,0.0,0.0,0.0,0.0,0.0,-5.5568,0.0,0.0,0.0,0.0,0.0,0.0,0.0,-5.6885,-5.7693,0.0,-5.8501,-5.889,-5.9099,-5.9099,-5.9099,-5.9099,-5.9099,-5.9099,-5.9099,-5.9099,-5.9099,-5.9099,-5.9099,-5.9099,-5.9099,-5.9099,-5.9099,-5.9099,-5.9099,-5.9099,-5.9099,-5.9099,-5.3174,-5.3204,0.0,0.0,-5.3294,0.0,-5.3324,-5.3324,-5.3324,-5.3324,-5.3892,-5.4281,-5.4281,-5.4281,-5.4012,-5.3384,0.0,0.0,0.0,-5.3174,-5.3174,-5.3174,-5.3174,-5.3174,-5.3174,-5.3174,-5.3174,-5.3174,-5.3174,-5.3174,-5.3174,-5.3174,-5.3174,-5.3174,-5.3234,-5.3264,-5.3294,-5.3982,-5.4281,-5.4341,-5.494,-5.5179,-5.5179,-5.5179,-5.5179,-5.5179,-5.5179,-5.5179,-5.5179,-5.5179,-5.5179,-5.5179,-5.5179,-5.5209,-5.5239,-5.5209,-5.5179,-5.5179,-5.5179,-5.5179,-5.5209,-5.5239,-5.5299,-5.5329,-5.5329,-5.5329,-5.5329,-5.5329,-5.5329,-5.5329,-5.5329,-5.5329,-5.5329,-5.5329,-5.5329,-5.5329,-5.5329,0.0,0.0,0.0,0.0,0.0,0.0,-5.6226,-5.6466,0.0,0.0,0.0,0.0,0.0,-5.6855,-5.8082,-5.8171,-5.8501,-5.9099,-5.9099,-5.9099,-5.9099,-5.9099,-5.9099,-5.9099,-5.9099,-5.9099,-5.9099,-5.9099,-5.9099,-5.9099,-5.9099,-5.9099,-5.9099,-5.9099,-5.9099,-5.9099,-5.9099,-5.9099,-5.9099,0.0,0.0,-5.3952,-5.3952,-5.4371,-5.473,-5.473,-5.473,-5.473,-5.473,-5.485,-5.497,-5.497,-5.497,-5.488,-5.473,-5.3773,-5.3174,-5.3174,-5.3174,-5.3174,-5.3174,-5.3174,-5.3174,-5.3174,-5.3174,-5.3174,-5.3174,-5.3174,-5.3174,-5.3174,-5.3174,-5.3174,-5.3204,-5.3713,-5.3952,-5.4012,-5.467,-5.497,-5.497,-5.5119,-5.5179,-5.5179,-5.5179,-5.5179,-5.5179,-5.5179,-5.5179,-5.5179,-5.5179,-5.5179,-5.5179,-5.5179,-5.5538,-5.5837,-5.5329,-5.5179,-5.5179,-5.5179,-5.5179,-5.5299,-5.5807,-5.6286,-5.6645,-5.6645,-5.6645,-5.6645,-5.6645,-5.6645,-5.6645,-5.6645,-5.6645,-5.6645,-5.6645,-5.6645,-5.6645,-5.6645,-5.6645,0.0,0.0,-5.6645,-5.6705,-5.6855,-5.6885,-5.6944,0.0,0.0,0.0,0.0,-5.7752,-5.7812,-5.8112,-5.862,-5.8949,-5.9099,-5.9099,-5.9099,-5.9099,-5.9099,-5.9099,-5.9099,-5.9099,-5.9099,-5.9099,-5.9099,-5.9099,-5.9099,-5.9099,-5.9099,-5.9099,-5.9099,-5.9099,-5.9099,-5.9099,-5.9099,-5.9099,-5.4102,-5.4401,-5.467,-5.467,-5.497,-5.5179,-5.5179,-5.5179,-5.5179,-5.5179,-5.5179,-5.5179,-5.5179,-5.5179,-5.5179,-5.5179,-5.4521,-5.4102,-5.4102,-5.4102,-5.4102,-5.4102,-5.4102,-5.4102,-5.4102,-5.4102,-5.4102,-5.4102,-5.4102,-5.4102,-5.4102,-5.4102,-5.4102,-5.4102,-5.4491,-5.467,-5.467,-5.5029,-5.5179,-5.5179,-5.5179,-5.5179,-5.5179,-5.5179,-5.5179,-5.5179,-5.5179,-5.5179,-5.5239,-5.5538,-5.5658,-5.5688,-5.5957,-5.6316,-5.6526,-5.6166,-5.6047,-5.6047,-5.6047,-5.6047,-5.6137,-5.6496,-5.6855,-5.7094,-5.7094,-5.7094,-5.7094,-5.7094,-5.7094,-5.7094,-5.7094,-5.7094,-5.7094,-5.7094,-5.7094,-5.7094,-5.7094,-5.7094,0.0,-5.7094,-5.7094,-5.7214,-5.7543,-5.7573,-5.7693,-5.7992,0.0,0.0,-5.856,-5.859,-5.859,-5.859,-5.8919,-5.9099,-5.9099,-5.9099,-5.9099,-5.9099,-5.9099,-5.9099,-5.9099,-5.9099,-5.9099,-5.9099,-5.9099,-5.9099,-5.9099,-5.9099,-5.9099,-5.9099,-5.9099,-5.9099,-5.9099,-5.9099,-5.9099,-5.9099,-5.5179,-5.5179,-5.5179,-5.5179,-5.5179,-5.5179,-5.5179,-5.5179,-5.5179,-5.5179,-5.5179,-5.5179,-5.5179,-5.5179,-5.5179,-5.5179,-5.5179,-5.5179,-5.5179,-5.5179,-5.5179,-5.5179,-5.5179,-5.5179,-5.5179,-5.5179,-5.5179,-5.5179,-5.5179,-5.5179,-5.5179,-5.5179,-5.5179,-5.5179,-5.5179,-5.5179,-5.5179,-5.5179,-5.5179,-5.5179,-5.5179,-5.5179,-5.5179,-5.5179,-5.5179,-5.5209,-5.5299,-5.5329,-5.5448,-5.6077,-5.6368,-5.6406,-5.6944,-5.7154,-5.7244,-5.7244,-5.7304,-5.7363,-5.7154,-5.7184,-5.7244,-5.7244,-5.7334,-5.7393,-5.7393,-5.7393,-5.7393,-5.7393,-5.7393,-5.7393,-5.7393,-5.7393,-5.7393,-5.7393,-5.7393,-5.7393,-5.7393,0.0,-5.7393,-5.7393,-5.7393,-5.7633,-5.8231,-5.8261,-5.8501,-5.9069,-5.9099,-5.9099,0.0,-5.9099,-5.9099,-5.9099,-5.9099,-5.9099,-5.9099,-5.9099,-5.9099,-5.9099,-5.9099,-5.9099,-5.9099,-5.9099,-5.9099,-5.9099,-5.9099,-5.9099,-5.9099,-5.9099,-5.9099,-5.9099,-5.9099,-5.9099,-5.9099,-5.9099,-5.9099,-5.9099,-5.5179,-5.5179,-5.5179,-5.5179,-5.5179,-5.5179,-5.5179,-5.5179,-5.5179,-5.5179,-5.5179,-5.5179,-5.5179,-5.5179,-5.5179,-5.5179,-5.5179,-5.5179,-5.5179,-5.5179,-5.5179,-5.5179,-5.5179,-5.5179,-5.5179,-5.5179,-5.5179,-5.5179,-5.5179,-5.5179,-5.5179,-5.5179,-5.5179,-5.5179,-5.5179,-5.5179,-5.5179,-5.5179,-5.5179,-5.5179,-5.5179,-5.5179,-5.5179,-5.5179,-5.5179,-5.5269,-5.5807,-5.6017,-5.6107,-5.6735,-5.6944,-5.6974,-5.7064,-5.7483,-5.7962,-5.7962,-5.8351,-5.853,-5.7393,-5.7513,-5.7962,-5.7962,-5.8381,-5.88,-5.88,-5.88,-5.88,-5.88,-5.88,-5.88,-5.88,-5.88,-5.88,-5.88,-5.88,-5.88,-5.88,0.0,-5.88,-5.88,-5.88,-5.883,-5.8949,-5.8949,-5.9009,-5.9099,-5.9099,-5.9099,-5.9099,-5.9099,-5.9099,-5.9099,-5.9099,-5.9099,-5.9099,-5.9099,-5.9099,-5.9099,-5.9099,-5.9099,-5.9099,-5.9099,-5.9099,-5.9099,-5.9099,-5.9099,-5.9099,-5.9099,-5.9099,-5.9099,-5.9099,-5.9099,-5.9099,-5.9099,-5.9099,-5.9099,-5.5179,-5.5179,-5.5179,-5.5179,-5.5179,-5.5179,-5.5179,-5.5179,-5.5179,-5.5179,-5.5179,-5.5179,-5.5179,-5.5179,-5.5179,-5.5179,-5.5179,-5.5179,-5.5179,-5.5179,-5.5179,-5.5179,-5.5179,-5.5179,-5.5179,-5.5179,-5.5179,-5.5179,-5.5179,-5.5179,-5.5179,-5.5179,-5.5179,-5.5179,-5.5179,-5.5179,-5.5179,-5.5179,-5.5179,-5.5179,-5.5179,-5.5418,-5.5718,-5.5718,-5.5927,-5.6256,-5.6555,-5.6675,-5.6765,-5.7423,-5.7633,-5.7723,-5.8052,-5.8411,-5.865,-5.865,-5.886,-5.8979,-5.8351,-5.8411,-5.865,-5.865,-5.889,-5.9099,-5.9099,-5.9099,-5.9099,-5.9099,-5.9099,-5.9099,-5.9099,-5.9099,-5.9099,-5.9099,-5.9099,0.0,0.0,-5.9099,-5.9099,-5.9099,-5.9099,-5.9099,-5.9099,-5.9099,-5.9099,-5.9099,-5.9099,-5.9099,-5.9099,-5.9099,-5.9099,-5.9099,-5.9099,-5.9099,-5.9099,-5.9099,-5.9099,-5.9099,-5.9099,-5.9099,-5.9099,-5.9099,-5.9099,-5.9099,-5.9099,-5.9099,-5.9099,-5.9099,-5.9099,-5.9099,-5.9099,-5.9099,-5.9099,-5.9099,-5.9099,-5.9099,-5.5179,-5.5179,-5.5179,-5.5179,-5.5179,-5.5179,-5.5179,-5.5179,-5.5179,-5.5179,-5.5179,-5.5179,-5.5179,-5.5179,-5.5179,-5.5179,-5.5179,-5.5179,-5.5179,-5.5179,-5.5179,-5.5179,-5.5179,-5.5179,-5.5179,-5.5179,-5.5179,-5.5179,-5.5179,-5.5179,-5.5179,-5.5179,-5.5179,-5.5179,-5.5179,-5.5179,-5.5179,-5.5179,-5.5269,-5.5418,-5.5418,-5.5807,-5.6376,-5.6376,-5.6675,-5.7124,-5.7274,-5.7334,-5.7423,-5.8112,-5.8351,-5.8441,-5.8949,-5.9099,-5.9099,-5.9099,-5.9099,-5.9099,-5.9099,-5.9099,-5.9099,-5.9099,-5.9099,-5.9099,-5.9099,-5.9099,-5.9099,-5.9099,-5.9099,-5.9099,-5.9099,-5.9099,-5.9099,-5.9099,0.0,0.0,0.0,-5.9099,-5.9099,-5.9099,-5.9099,-5.9099,-5.9099,-5.9099,-5.9099,-5.9099,-5.9099,-5.9099,-5.9099,-5.9099,-5.9099,-5.9099,-5.9099,-5.9099,-5.9099,-5.9099,-5.9099,-5.9099,-5.9099,-5.9099,-5.9099,-5.9099,-5.9099,-5.9099,-5.9099,-5.9099,-5.9099,-5.9099,-5.9099,-5.9099,-5.9099,-5.9099,-5.9099,-5.9099,-5.9099,-5.9099,-5.5179,-5.5179,-5.5179,-5.5179,-5.5179,-5.5179,-5.5179,-5.5179,-5.5179,-5.5179,-5.5179,-5.5179,-5.5179,-5.5179,-5.5179,-5.5179,-5.5179,-5.5179,-5.5179,-5.5179,-5.5179,-5.5179,-5.5179,-5.5179,-5.5179,-5.5179,-5.5179,-5.5179,-5.5179,-5.5179,-5.5179,-5.5179,-5.5179,-5.5179,-5.5179,-5.5179,-5.5179,-5.5179,-5.5538,-5.6158,-5.6158,-5.6466,-5.7034,-5.7034,-5.7064,-5.7184,-5.7812,-5.8052,-5.8141,-5.88,-5.9039,-5.9039,-5.9099,-5.9099,-5.9099,-5.9099,-5.9099,-5.9099,-5.9099,-5.9099,-5.9099,-5.9099,-5.9099,-5.9099,-5.9099,-5.9099,-5.9099,-5.9099,-5.9099,-5.9099,-5.9099,-5.9099,-5.9099,-5.9099,0.0,0.0,-5.9099,-5.9099,-5.9099,-5.9099,-5.9099,-5.9099,-5.9099,-5.9099,-5.9099,-5.9099,-5.9099,-5.9099,-5.9099,-5.9099,-5.9099,-5.9099,-5.9099,-5.9099,-5.9099,-5.9099,-5.9099,-5.9099,-5.9099,-5.9099,-5.9099,-5.9099,-5.9099,-5.9099,-5.9099,-5.9099,-5.9099,-5.9099,-5.9099,-5.9099,-5.9099,-5.9099,-5.9099,-5.9099,-5.9099,-5.9099,-5.5179,-5.5179,-5.5179,-5.5179,-5.5179,-5.5179,-5.5179,-5.5179,-5.5179,-5.5179,-5.5179,-5.5179,-5.5179,-5.5179,-5.5179,-5.5179,-5.5179,-5.5179,-5.5179,-5.5179,-5.5179,-5.5179,-5.5179,-5.5179,-5.5179,-5.5179,-5.5179,-5.5179,-5.5179,-5.5179,-5.5179,-5.5179,-5.5179,-5.5179,-5.5179,-5.5418,-5.5807,-5.5807,-5.6166,-5.6735,-5.6735,-5.7124,-5.7723,-5.7723,-5.7992,-5.8381,-5.865,-5.874,-5.877,-5.9009,-5.9099,-5.9099,-5.9099,-5.9099,-5.9099,-5.9099,-5.9099,-5.9099,-5.9099,-5.9099,-5.9099,-5.9099,-5.9099,-5.9099,-5.9099,-5.9099,-5.9099,-5.9099,-5.9099,-5.9099,-5.9099,-5.9099,-5.9099,-5.9099,0.0,-5.9099,-5.9099,-5.9099,-5.9099,-5.9099,-5.9099,-5.9099,-5.9099,-5.9099,-5.9099,-5.9099,-5.9099,-5.9099,-5.9099,-5.9099,-5.9099,-5.9099,-5.9099,-5.9099,-5.9099,-5.9099,-5.9099,-5.9099,-5.9099,-5.9099,-5.9099,-5.9099,-5.9099,-5.9099,-5.9099,-5.9099,-5.9099,-5.9099,-5.9099,-5.9099,-5.9099,-5.9099,-5.9099,-5.9099,-5.9099,-5.9099,-5.5179,-5.5179,-5.5179,-5.5179,-5.5179,-5.5179,-5.5179,-5.5179,-5.5179,-5.5179,-5.5179,-5.5179,-5.5179,-5.5179,-5.5179,-5.5179,-5.5179,-5.5179,-5.5179,-5.5179,-5.5179,-5.5179,-5.5179,-5.5179,-5.5179,-5.5179,-5.5179,-5.5179,-5.5179,-5.5179,-5.5179,-5.5179,-5.5299,-5.5508,-5.5508,-5.5867,-5.6466,-5.6466,-5.6825,-5.7423,-5.7423,-5.7812,-5.8441,-5.8441,-5.871,-5.9099,-5.9099,-5.9099,-5.9099,-5.9099,-5.9099,-5.9099,-5.9099,-5.9099,-5.9099,-5.9099,-5.9099,-5.9099,-5.9099,-5.9099,-5.9099,-5.9099,-5.9099,-5.9099,-5.9099,-5.9099,-5.9099,-5.9099,-5.9099,-5.9099,-5.9099,-5.9099,-5.9099,-5.9099,-5.9099,-5.9099,-5.9099,-5.9099,-5.9099,-5.9099,-5.9099,-5.9099,-5.9099,-5.9099,-5.9099,-5.9099,-5.9099,-5.9099,-5.9099,-5.9099,-5.9099,-5.9099,-5.9099,-5.9099,-5.9099,-5.9099,-5.9099,-5.9099,-5.9099,-5.9099,-5.9099,-5.9099,-5.9099,-5.9099,-5.9099,-5.9099,-5.9099,-5.9099,-5.9099,-5.9099,-5.9099,-5.9099,-5.9099,-5.9099,-5.9099,-5.9099,-5.5179,-5.5179,-5.5179,-5.5179,-5.5179,-5.5179,-5.5179,-5.5179,-5.5179,-5.5179,-5.5179,-5.5179,-5.5179,-5.5179,-5.5179,-5.5179,-5.5179,-5.5179,-5.5179,-5.5179,-5.5179,-5.5179,-5.5179,-5.5179,-5.5179,-5.5179,-5.5179,-5.5179,-5.5179,-5.5179,-5.5209,-5.5209,-5.5538,-5.6248,-5.6248,-5.6526,-5.7094,-5.7094,-5.7513,-5.8141,-5.8141,-5.853,-5.9099,-5.9099,-5.9099,-5.9099,-5.9099,-5.9099,-5.9099,-5.9099,-5.9099,-5.9099,-5.9099,-5.9099,-5.9099,-5.9099,-5.9099,-5.9099,-5.9099,-5.9099,-5.9099,-5.9099,-5.9099,-5.9099,-5.9099,-5.9099,-5.9099,-5.9099,-5.9099,-5.9099,-5.9099,-5.9099,-5.9099,-5.9099,-5.9099,-5.9099,-5.9099,-5.9099,-5.9099,-5.9099,-5.9099,-5.9099,-5.9099,-5.9099,-5.9099,-5.9099,-5.9099,-5.9099,-5.9099,-5.9099,-5.9099,-5.9099,-5.9099,-5.9099,-5.9099,-5.9099,-5.9099,-5.9099,-5.9099,-5.9099,-5.9099,-5.9099,-5.9099,-5.9099,-5.9099,-5.9099,-5.9099,-5.9099,-5.9099,-5.9099,-5.9099,-5.9099,-5.9099,-5.9099,-5.9099,-5.9099,-5.5179,-5.5179,-5.5179,-5.5179,-5.5179,-5.5179,-5.5179,-5.5179,-5.5179,-5.5179,-5.5179,-5.5179,-5.5179,-5.5179,-5.5179,-5.5179,-5.5179,-5.5179,-5.5179,-5.5179,-5.5179,-5.5179,-5.5179,-5.5179,-5.5179,-5.5179,-5.5179,-5.5179,-5.5179,-5.5418,-5.5867,-5.5867,-5.6226,-5.6825,-5.6825,-5.7184,-5.7812,-5.7812,-5.8201,-5.88,-5.88,-5.8919,-5.9099,-5.9099,-5.9099,-5.9099,-5.9099,-5.9099,-5.9099,-5.9099,-5.9099,-5.9099,-5.9099,-5.9099,-5.9099,-5.9099,-5.9099,-5.9099,-5.9099,-5.9099,-5.9099,-5.9099,-5.9099,-5.9099,-5.9099,-5.9099,-5.9099,-5.9099,-5.9099,-5.9099,-5.9099,-5.9099,-5.9099,-5.9099,-5.9099,-5.9099,-5.9099,-5.9099,-5.9099,-5.9099,-5.9099,-5.9099,-5.9099,-5.9099,-5.9099,-5.9099,-5.9099,-5.9099,-5.9099,-5.9099,-5.9099,-5.9099,-5.9099,-5.9099,-5.9099,-5.9099,-5.9099,-5.9099,-5.9099,-5.9099,-5.9099,-5.9099,-5.9099,-5.9099,-5.9099,-5.9099,-5.9099,-5.9099,-5.9099,-5.9099,-5.9099,-5.9099,-5.9099,-5.9099,-5.9099,-5.9099,-5.5179,-5.5179,-5.5179,-5.5179,-5.5179,-5.5179,-5.5179,-5.5179,-5.5179,-5.5179,-5.5179,-5.5179,-5.5179,-5.5179,-5.5179,-5.5179,-5.5179,-5.5179,-5.5179,-5.5179,-5.5299,-5.5568,-5.5598,-5.5448,-5.5209,-5.5448,-5.5598,-5.5598,-5.5807,-5.6137,-5.6526,-5.6526,-5.6885,-5.7513,-5.7513,-5.7872,-5.853,-5.853,-5.874,-5.9099,-5.9099,-5.9099,-5.9099,-5.9099,-5.9099,-5.9099,-5.9099,-5.9099,-5.9099,-5.9099,-5.9099,-5.9099,-5.9099,-5.9099,-5.9099,-5.9099,-5.9099,-5.9099,-5.9099,-5.9099,-5.9099,-5.9099,-5.9099,-5.9099,-5.9099,-5.9099,-5.9099,-5.9099,-5.9099,-5.9099,-5.9099,-5.9099,-5.9099,-5.9099,-5.9099,-5.9099,-5.9099,-5.9099,-5.9099,-5.9099,-5.9099,-5.9099,-5.9099,-5.9099,-5.9099,-5.9099,-5.9099,-5.9099,-5.9099,-5.9099,-5.9099,-5.9099,-5.9099,-5.9099,-5.9099,-5.9099,-5.9099,-5.9099,-5.9099,-5.9099,-5.9099,-5.9099,-5.9099,-5.9099,-5.9099,-5.9099,-5.9099,-5.9099,-5.9099,-5.9099,-5.9099,-5.9099,-5.9099,-5.9099,-5.9099,-5.9099,-5.5179,-5.5179,-5.5179,-5.5179,-5.5179,-5.5179,-5.5179,-5.5179,-5.5179,-5.5179,-5.5179,-5.5179,-5.5179,-5.5179,-5.5179,-5.5179,-5.5239,-5.5269,-5.5269,-5.5329,-5.5628,-5.6226,-5.6308,-5.5957,-5.5359,-5.5957,-5.6308,-5.6308,-5.6825,-5.7124,-5.7184,-5.7184,-5.7543,-5.8201,-5.8201,-5.853,-5.9099,-5.9099,-5.9099,-5.9099,-5.9099,-5.9099,-5.9099,-5.9099,-5.9099,-5.9099,-5.9099,-5.9099,-5.9099,-5.9099,-5.9099,-5.9099,-5.9099,-5.9099,-5.9099,-5.9099,-5.9099,-5.9099,-5.9099,-5.9099,-5.9099,-5.9099,-5.9099,-5.9099,-5.9099,-5.9099,-5.9099,-5.9099,-5.9099,-5.9099,-5.9099,-5.9099,-5.9099,-5.9099,-5.9099,-5.9099,-5.9099,-5.9099,-5.9099,-5.9099,-5.9099,-5.9099,-5.9099,-5.9099,-5.9099,-5.9099,-5.9099,-5.9099,-5.9099,-5.9099,-5.9099,-5.9099,-5.9099,-5.9099,-5.9099,-5.9099,-5.9099,-5.9099,-5.9099,-5.9099,-5.9099,-5.9099,-5.9099,-5.9099,-5.9099,-5.9099,-5.9099,-5.9099,-5.9099,-5.9099,-5.9099,-5.9099,-5.9099,-5.9099,-5.9099,-5.9099,-5.5179,-5.5179,-5.5179,-5.5179,-5.5179,-5.5179,-5.5179,-5.5179,-5.5179,-5.5179,-5.5179,-5.5179,-5.5179,-5.5179,-5.5179,-5.5179,-5.5658,-5.5957,-5.5957,-5.6406,-5.6735,-5.6885,-5.6885,-5.6825,-5.6675,-5.6825,-5.6885,-5.6885,-5.7034,-5.7363,-5.7902,-5.7902,-5.8261,-5.889,-5.889,-5.8979,-5.9099,-5.9099,-5.9099,-5.9099,-5.9099,-5.9099,-5.9099,-5.9099,-5.9099,-5.9099,-5.9099,-5.9099,-5.9099,-5.9099,-5.9099,-5.9099,-5.9099,-5.9099,-5.9099,-5.9099,-5.9099,-5.9099,-5.9099,-5.9099,-5.9099,-5.9099,-5.9099,-5.9099,-5.9099,-5.9099,-5.9099,-5.9099,-5.9099,-5.9099,-5.9099,-5.9099,-5.9099,-5.9099,-5.9099,-5.9099,-5.9099,-5.9099,-5.9099,-5.9099,-5.9099,-5.9099,-5.9099,-5.9099,-5.9099,-5.9099,-5.9099,-5.9099,-5.9099,-5.9099,-5.9099,-5.9099,-5.9099,-5.9099,-5.9099,-5.9099,-5.9099,-5.9099,-5.9099,-5.9099,-5.9099,-5.9099,-5.9099,-5.9099,-5.9099,-5.9099,-5.9099,-5.9099,-5.9099,-5.9099,-5.9099,-5.9099,-5.9099,-5.9099,-5.9099,-5.9099,-5.5179,-5.5179,-5.5179,-5.5179,-5.5179,-5.5179,-5.5179,-5.5179,-5.5179,-5.5179,-5.5179,-5.5179,-5.5179,-5.5179,-5.5329,-5.5628,-5.6226,-5.6615,-5.6615,-5.6915,-5.7244,-5.7573,-5.7573,-5.7723,-5.8052,-5.8052,-5.7902,-5.7573,-5.7902,-5.8231,-5.859,-5.859,-5.877,-5.9099,-5.9099,-5.9099,-5.9099,-5.9099,-5.9099,-5.9099,-5.9099,-5.9099,-5.9099,-5.9099,-5.9099,-5.9099,-5.9099,-5.9099,-5.9099,-5.9099,-5.9099,-5.9099,-5.9099,-5.9099,-5.9099,-5.9099,-5.9099,-5.9099,-5.9099,-5.9099,-5.9099,-5.9099,-5.9099,-5.9099,-5.9099,-5.9099,-5.9099,-5.9099,-5.9099,-5.9099,-5.9099,-5.9099,-5.9099,-5.9099,-5.9099,-5.9099,-5.9099,-5.9099,-5.9099,-5.9099,-5.9099,-5.9099,-5.9099,-5.9099,-5.9099,-5.9099,-5.9099,-5.9099,-5.9099,-5.9099,-5.9099,-5.9099,-5.9099,-5.9099,-5.9099,-5.9099,-5.9099,-5.9099,-5.9099,-5.9099,-5.9099,-5.9099,-5.9099,-5.9099,-5.9099,-5.9099,-5.9099,-5.9099,-5.9099,-5.9099,-5.9099,-5.9099,-5.9099,-5.9099,-5.9099,-5.9099,-5.5179,-5.5179,-5.5179,-5.5179,-5.5179,-5.5179,-5.5179,-5.5179,-5.5179,-5.5179,-5.5299,-5.5359,-5.5359,-5.5448,-5.5748,-5.6286,-5.6915,-5.7274,-5.7274,-5.7363,-5.7693,-5.8261,-5.8291,-5.853,-5.9099,-5.9099,-5.883,-5.8291,-5.883,-5.9099,-5.9099,-5.9099,-5.9099,-5.9099,-5.9099,-5.9099,-5.9099,-5.9099,-5.9099,-5.9099,-5.9099,-5.9099,-5.9099,-5.9099,-5.9099,-5.9099,-5.9099,-5.9099,-5.9099,-5.9099,-5.9099,-5.9099,-5.9099,-5.9099,-5.9099,-5.9099,-5.9099,-5.9099,-5.9099,-5.9099,-5.9099,-5.9099,-5.9099,-5.9099,-5.9099,-5.9099,-5.9099,-5.9099,-5.9099,-5.9099,-5.9099,-5.9099,-5.9099,-5.9099,-5.9099,-5.9099,-5.9099,-5.9099,-5.9099,-5.9099,-5.9099,-5.9099,-5.9099,-5.9099,-5.9099,-5.9099,-5.9099,-5.9099,-5.9099,-5.9099,-5.9099,-5.9099,-5.9099,-5.9099,-5.9099,-5.9099,-5.9099,-5.9099,-5.9099,-5.9099,-5.9099,-5.9099,-5.9099,-5.9099,-5.9099,-5.9099,-5.9099,-5.9099,-5.9099,-5.9099,-5.9099,-5.9099,-5.9099,-5.9099,-5.9099,-5.9099,-5.5179,-5.5179,-5.5179,-5.5179,-5.5179,-5.5179,-5.5179,-5.5179,-5.5179,-5.5179,-5.5688,-5.6047,-5.6047,-5.6526,-5.6885,-5.6974,-5.7603,-5.7992,-5.7992,-5.853,-5.889,-5.8979,-5.8979,-5.9009,-5.9099,-5.9099,-5.9069,-5.8979,-5.9069,-5.9099,-5.9099,-5.9099,-5.9099,-5.9099,-5.9099,-5.9099,-5.9099,-5.9099,-5.9099,-5.9099,-5.9099,-5.9099,-5.9099,-5.9099,-5.9099,-5.9099,-5.9099,-5.9099,-5.9099,-5.9099,-5.9099,-5.9099,-5.9099,-5.9099,-5.9099,-5.9099,-5.9099,-5.9099,-5.9099,-5.9099,-5.9099,-5.9099,-5.9099,-5.9099,-5.9099,-5.9099,-5.9099,-5.9099,-5.9099,-5.9099,-5.9099,-5.9099,-5.9099,-5.9099,-5.9099,-5.9099,-5.9099,-5.9099,-5.9099,-5.9099,-5.9099,-5.9099,-5.9099,-5.9099,-5.9099,-5.9099,-5.9099,-5.9099,-5.9099,-5.9099,-5.9099,-5.9099,-5.9099,-5.9099,-5.9099,-5.9099,-5.9099,-5.9099,-5.9099,-5.9099,-5.9099,-5.9099,-5.9099,-5.9099,-5.9099,-5.9099,-5.9099,-5.9099,-5.9099,-5.9099,-5.9099,-5.9099,-5.9099,-5.9099,-5.9099,-5.9099,-5.5179,-5.5179,-5.5179,-5.5179,-5.5179,-5.5179,-5.5179,-5.5508,-5.5748,-5.5748,-5.6286,-5.6675,-5.6675,-5.7274,-5.7663,-5.7663,-5.8291,-5.868,-5.868,-5.8949,-5.9099,-5.9099,-5.9099,-5.9099,-5.9099,-5.9099,-5.9099,-5.9099,-5.9099,-5.9099,-5.9099,-5.9099,-5.9099,-5.9099,-5.9099,-5.9099,-5.9099,-5.9099,-5.9099,-5.9099,-5.9099,-5.9099,-5.9099,-5.9099,-5.9099,-5.9099,-5.9099,-5.9099,-5.9099,-5.9099,-5.9099,-5.9099,-5.9099,-5.9099,-5.9099,-5.9099,-5.9099,-5.9099,-5.9099,-5.9099,-5.9099,-5.9099,-5.9099,-5.9099,-5.9099,-5.9099,-5.9099,-5.9099,-5.9099,-5.9099,-5.9099,-5.9099,-5.9099,-5.9099,-5.9099,-5.9099,-5.9099,-5.9099,-5.9099,-5.9099,-5.9099,-5.9099,-5.9099,-5.9099,-5.9099,-5.9099,-5.9099,-5.9099,-5.9099,-5.9099,-5.9099,-5.9099,-5.9099,-5.9099,-5.9099,-5.9099,-5.9099,-5.9099,-5.9099,-5.9099,-5.9099,-5.9099,-5.9099,-5.9099,-5.9099,-5.9099,-5.9099,-5.9099,-5.9099,-5.9099,-5.9099,-5.9099,-5.9099,-5.9099,-5.9099,-5.9099]},{"header":{"parameterUnit":"m.s-1","parameterCategory":1,"la1":30.6,"la2":28.766,"lo1":-90.7593,"lo2":-88.6598,"dy":0.0162,"dx":0.0183,"nx":116,"ny":114,"refTime":"2023-03-25T12:00:00:Z","depth":0,"parameterNumber":3,"parameterNumberName":"V-component_of_WINDS"},"data":[0.0,0.0,0.0,0.0,0.0,0.0,0.0,0.0,0.0,0.0,0.0,0.0,0.0,0.0,0.0,0.0,0.0,0.0,0.0,0.0,0.0,0.0,0.0,0.0,0.0,0.0,0.0,0.0,0.0,0.0,0.0,0.0,0.0,0.0,0.0,0.0,0.0,0.0,0.0,0.0,0.0,0.0,0.0,0.0,0.0,0.0,0.0,0.0,0.0,0.0,0.0,0.0,0.0,0.0,0.0,0.0,0.0,0.0,0.0,0.0,0.0,0.0,0.0,0.0,0.0,0.0,0.0,0.0,0.0,0.0,0.0,0.0,0.0,0.0,0.0,0.0,0.0,0.0,0.0,0.0,0.0,0.0,0.0,0.0,0.0,0.0,0.0,0.0,0.0,0.0,0.0,0.0,0.0,0.0,0.0,0.0,0.0,0.0,0.0,0.0,0.0,0.0,0.0,0.0,0.0,0.0,0.0,0.0,0.0,0.0,0.0,0.0,0.0,0.0,0.0,0.0,0.0,0.0,0.0,0.0,0.0,0.0,0.0,0.0,0.0,0.0,0.0,0.0,0.0,0.0,0.0,0.0,0.0,0.0,0.0,0.0,0.0,0.0,0.0,0.0,0.0,0.0,0.0,0.0,0.0,0.0,0.0,0.0,0.0,0.0,0.0,0.0,0.0,0.0,0.0,0.0,0.0,0.0,0.0,0.0,0.0,0.0,0.0,0.0,0.0,0.0,0.0,0.0,0.0,0.0,0.0,0.0,0.0,0.0,0.0,0.0,0.0,0.0,0.0,0.0,0.0,0.0,0.0,0.0,0.0,0.0,0.0,0.0,0.0,0.0,0.0,0.0,0.0,0.0,0.0,0.0,0.0,0.0,0.0,0.0,0.0,0.0,0.0,0.0,0.0,0.0,0.0,0.0,0.0,0.0,0.0,0.0,0.0,0.0,0.0,0.0,0.0,0.0,0.0,0.0,0.0,0.0,0.0,0.0,0.0,0.0,0.0,0.0,0.0,0.0,0.0,0.0,0.0,0.0,0.0,0.0,0.0,0.0,0.0,0.0,0.0,0.0,0.0,0.0,0.0,0.0,0.0,0.0,0.0,0.0,0.0,0.0,0.0,0.0,0.0,0.0,0.0,0.0,0.0,0.0,0.0,0.0,0.0,0.0,0.0,0.0,0.0,0.0,0.0,0.0,0.0,0.0,0.0,0.0,0.0,0.0,0.0,0.0,0.0,0.0,0.0,0.0,0.0,0.0,0.0,0.0,0.0,0.0,0.0,0.0,0.0,0.0,0.0,0.0,0.0,0.0,0.0,0.0,0.0,0.0,0.0,0.0,0.0,0.0,0.0,0.0,0.0,0.0,0.0,0.0,0.0,0.0,0.0,0.0,0.0,0.0,0.0,0.0,0.0,0.0,0.0,0.0,0.0,0.0,0.0,0.0,0.0,0.0,0.0,0.0,0.0,0.0,0.0,0.0,0.0,0.0,0.0,0.0,0.0,0.0,0.0,0.0,0.0,0.0,0.0,0.0,0.0,0.0,0.0,0.0,0.0,0.0,0.0,0.0,0.0,0.0,0.0,0.0,0.0,0.0,0.0,0.0,0.0,0.0,0.0,0.0,0.0,0.0,0.0,0.0,0.0,0.0,0.0,0.0,0.0,0.0,0.0,0.0,0.0,0.0,0.0,0.0,0.0,0.0,0.0,0.0,0.0,0.0,0.0,0.0,0.0,0.0,0.0,0.0,0.0,0.0,0.0,0.0,0.0,0.0,0.0,0.0,0.0,0.0,0.0,0.0,0.0,0.0,0.0,0.0,0.0,0.0,0.0,0.0,0.0,0.0,0.0,0.0,0.0,0.0,0.0,0.0,0.0,0.0,0.0,0.0,0.0,0.0,0.0,0.0,0.0,0.0,0.0,0.0,0.0,0.0,0.0,0.0,0.0,0.0,0.0,0.0,0.0,0.0,0.0,0.0,0.0,0.0,0.0,0.0,0.0,0.0,0.0,0.0,0.0,0.0,0.0,0.0,0.0,0.0,0.0,0.0,0.0,0.0,0.0,0.0,0.0,0.0,0.0,0.0,0.0,0.0,0.0,0.0,0.0,0.0,0.0,0.0,0.0,0.0,0.0,0.0,0.0,0.0,0.0,0.0,0.0,0.0,0.0,0.0,0.0,0.0,0.0,0.0,0.0,0.0,0.0,0.0,0.0,0.0,0.0,0.0,0.0,0.0,0.0,0.0,0.0,0.0,0.0,0.0,0.0,0.0,0.0,0.0,0.0,0.0,0.0,0.0,0.0,0.0,0.0,0.0,0.0,0.0,0.0,0.0,0.0,0.0,0.0,0.0,0.0,0.0,0.0,0.0,0.0,0.0,0.0,0.0,0.0,0.0,0.0,0.0,0.0,0.0,0.0,0.0,0.0,0.0,0.0,0.0,0.0,0.0,0.0,0.0,0.0,0.0,0.0,0.0,0.0,0.0,0.0,0.0,0.0,0.0,0.0,0.0,0.0,0.0,0.0,0.0,0.0,0.0,0.0,0.0,0.0,0.0,0.0,0.0,0.0,0.0,0.0,0.0,0.0,0.0,0.0,0.0,0.0,0.0,0.0,0.0,0.0,0.0,0.0,0.0,0.0,0.0,0.0,0.0,0.0,0.0,0.0,0.0,0.0,0.0,0.0,0.0,0.0,0.0,0.0,0.0,0.0,0.0,0.0,0.0,0.0,0.0,0.0,0.0,0.0,0.0,0.0,0.0,0.0,0.0,0.0,0.0,0.0,0.0,0.0,0.0,0.0,0.0,0.0,0.0,0.0,0.0,0.0,0.0,0.0,0.0,0.0,0.0,0.0,0.0,0.0,0.0,0.0,0.0,0.0,0.0,0.0,0.0,0.0,0.0,0.0,0.0,0.0,0.0,0.0,0.0,0.0,0.0,0.0,0.0,0.0,0.0,0.0,0.0,0.0,0.0,0.0,0.0,0.0,0.0,0.0,0.0,0.0,0.0,0.0,0.0,0.0,0.0,0.0,0.0,0.0,0.0,0.0,0.0,0.0,0.0,0.0,0.0,0.0,0.0,0.0,0.0,0.0,0.0,0.0,0.0,0.0,0.0,0.0,0.0,0.0,0.0,0.0,0.0,0.0,0.0,0.0,0.0,0.0,0.0,0.0,0.0,0.0,0.0,0.0,0.0,0.0,0.0,0.0,0.0,0.0,0.0,0.0,0.0,0.0,0.0,0.0,0.0,0.0,0.0,0.0,0.0,0.0,0.0,0.0,0.0,0.0,0.0,0.0,0.0,0.0,0.0,0.0,0.0,0.0,0.0,0.0,0.0,0.0,0.0,0.0,0.0,0.0,0.0,0.0,0.0,0.0,0.0,0.0,0.0,0.0,0.0,0.0,0.0,0.0,0.0,0.0,0.0,0.0,0.0,0.0,0.0,0.0,0.0,0.0,0.0,0.0,0.0,0.0,0.0,0.0,0.0,0.0,0.0,0.0,0.0,0.0,0.0,0.0,0.0,0.0,0.0,0.0,0.0,0.0,0.0,0.0,0.0,0.0,0.0,0.0,0.0,0.0,0.0,0.0,0.0,0.0,0.0,0.0,0.0,0.0,0.0,0.0,0.0,0.0,0.0,0.0,0.0,0.0,0.0,0.0,0.0,0.0,0.0,0.0,0.0,0.0,0.0,0.0,0.0,0.0,0.0,0.0,0.0,0.0,0.0,0.0,0.0,0.0,0.0,0.0,0.0,0.0,0.0,0.0,0.0,0.0,0.0,0.0,0.0,0.0,0.0,0.0,0.0,0.0,0.0,0.0,0.0,0.0,0.0,0.0,0.0,0.0,0.0,0.0,0.0,0.0,0.0,0.0,0.0,0.0,0.0,0.0,0.0,0.0,0.0,0.0,0.0,0.0,0.0,0.0,0.0,0.0,0.0,0.0,0.0,0.0,0.0,0.0,0.0,0.0,0.0,0.0,0.0,0.0,0.0,0.0,0.0,0.0,0.0,0.0,0.0,0.0,0.0,0.0,0.0,0.0,0.0,0.0,0.0,0.0,0.0,0.0,0.0,0.0,0.0,0.0,0.0,0.0,0.0,0.0,0.0,0.0,0.0,0.0,0.0,0.0,0.0,0.0,0.0,0.0,0.0,0.0,0.0,0.0,0.0,0.0,0.0,0.0,0.0,0.0,0.0,0.0,0.0,0.0,0.0,0.0,0.0,0.0,0.0,0.0,0.0,0.0,0.0,0.0,0.0,0.0,0.0,0.0,0.0,0.0,0.0,0.0,0.0,0.0,0.0,0.0,0.0,0.0,0.0,0.0,0.0,0.0,0.0,0.0,0.0,0.0,0.0,0.0,0.0,0.0,0.0,0.0,0.0,0.0,0.0,0.0,0.0,0.0,0.0,0.0,0.0,0.0,0.0,0.0,0.0,0.0,0.0,0.0,0.0,0.0,0.0,0.0,0.0,0.0,0.0,0.0,0.0,0.0,0.0,0.0,0.0,0.0,0.0,0.0,0.0,0.0,0.0,0.0,0.0,0.0,0.0,0.0,0.0,0.0,0.0,0.0,0.0,0.0,0.0,0.0,0.0,0.0,0.0,0.0,0.0,0.0,0.0,0.0,0.0,0.0,0.0,0.0,0.0,0.0,0.0,0.0,0.0,0.0,0.0,0.0,0.0,0.0,0.0,0.0,0.0,0.0,0.0,0.0,0.0,0.0,0.0,0.0,0.0,0.0,0.0,0.0,0.0,0.0,0.0,0.0,0.0,0.0,0.0,0.0,0.0,0.0,0.0,0.0,0.0,0.0,0.0,0.0,0.0,0.0,0.0,0.0,0.0,0.0,0.0,0.0,0.0,0.0,0.0,0.0,0.0,0.0,0.0,0.0,0.0,0.0,0.0,0.0,0.0,0.0,0.0,0.0,0.0,0.0,0.0,0.0,0.0,0.0,0.0,0.0,0.0,0.0,0.0,0.0,0.0,0.0,0.0,0.0,0.0,0.0,0.0,0.0,0.0,0.0,0.0,0.0,0.0,0.0,0.0,0.0,0.0,0.0,0.0,0.0,0.0,0.0,0.0,0.0,0.0,0.0,0.0,0.0,0.0,0.0,0.0,0.0,0.0,0.0,0.0,0.0,0.0,0.0,0.0,0.0,0.0,0.0,0.0,0.0,0.0,0.0,0.0,0.0,0.0,0.0,0.0,0.0,0.0,0.0,0.0,0.0,0.0,0.0,0.0,0.0,0.0,0.0,0.0,0.0,0.0,0.0,0.0,0.0,0.0,0.0,0.0,0.0,0.0,0.0,0.0,0.0,0.0,0.0,0.0,0.0,0.0,0.0,0.0,0.0,0.0,0.0,0.0,0.0,0.0,0.0,0.0,0.0,0.0,0.0,0.0,0.0,0.0,0.0,0.0,0.0,0.0,0.0,0.0,0.0,0.0,0.0,0.0,0.0,0.0,0.0,0.0,0.0,0.0,0.0,0.0,0.0,0.0,0.0,0.0,0.0,0.0,0.0,0.0,0.0,0.0,0.0,0.0,0.0,0.0,0.0,0.0,0.0,0.0,0.0,0.0,0.0,0.0,0.0,0.0,0.0,0.0,0.0,0.0,0.0,0.0,0.0,0.0,0.0,0.0,0.0,0.0,0.0,0.0,0.0,0.0,0.0,0.0,0.0,0.0,0.0,0.0,0.0,0.0,0.0,0.0,0.0,0.0,0.0,0.0,0.0,0.0,0.0,0.0,0.0,0.0,0.0,0.0,0.0,0.0,0.0,0.0,0.0,0.0,0.0,0.0,0.0,0.0,0.0,0.0,0.0,0.0,0.0,0.0,0.0,0.0,0.0,0.0,0.0,0.0,0.0,0.0,0.0,0.0,0.0,0.0,0.0,0.0,0.0,0.0,0.0,0.0,0.0,0.0,0.0,0.0,0.0,0.0,0.0,0.0,0.0,0.0,0.0,0.0,0.0,0.0,0.0,0.0,0.0,0.0,0.0,0.0,0.0,0.0,0.0,0.0,0.0,0.0,0.0,0.0,0.0,0.0,0.0,0.0,0.0,0.0,0.0,0.0,0.0,0.0,0.0,0.0,0.0,0.0,0.0,0.0,0.0,0.0,3.1574,0.0,0.0,0.0,0.0,0.0,0.0,0.0,0.0,0.0,0.0,0.0,0.0,0.0,0.0,0.0,0.0,0.0,0.0,0.0,0.0,0.0,0.0,0.0,0.0,0.0,0.0,0.0,0.0,0.0,0.0,0.0,0.0,0.0,0.0,0.0,0.0,0.0,0.0,3.3111,3.3111,3.3111,3.3111,3.3111,3.3111,3.3111,0.0,0.0,0.0,0.0,0.0,0.0,0.0,0.0,0.0,0.0,0.0,0.0,0.0,0.0,0.0,0.0,0.0,0.0,0.0,0.0,0.0,0.0,0.0,0.0,0.0,0.0,0.0,0.0,0.0,0.0,0.0,0.0,0.0,0.0,0.0,0.0,0.0,0.0,0.0,0.0,0.0,0.0,0.0,0.0,0.0,0.0,0.0,0.0,0.0,0.0,0.0,0.0,0.0,0.0,0.0,0.0,0.0,0.0,0.0,0.0,0.0,0.0,0.0,0.0,0.0,0.0,0.0,0.0,0.0,0.0,0.0,3.1879,0.0,0.0,0.0,0.0,0.0,0.0,0.0,0.0,0.0,0.0,0.0,0.0,0.0,0.0,0.0,0.0,0.0,0.0,0.0,0.0,0.0,0.0,0.0,0.0,3.3111,3.3111,3.3111,3.3111,0.0,0.0,0.0,0.0,0.0,0.0,0.0,3.3111,3.3111,3.3111,3.3111,3.3111,3.3111,3.3111,3.3111,3.3111,3.3111,0.0,0.0,0.0,0.0,0.0,0.0,0.0,0.0,0.0,0.0,0.0,0.0,0.0,0.0,0.0,0.0,0.0,0.0,0.0,0.0,0.0,0.0,0.0,0.0,0.0,0.0,0.0,0.0,0.0,0.0,0.0,0.0,0.0,0.0,0.0,0.0,0.0,0.0,0.0,0.0,0.0,0.0,0.0,0.0,0.0,0.0,0.0,0.0,0.0,0.0,0.0,0.0,0.0,0.0,0.0,0.0,0.0,0.0,0.0,0.0,0.0,0.0,0.0,3.4068,3.4727,3.4775,3.5906,3.581,3.463,3.2765,3.2345,3.2935,0.0,0.0,0.0,0.0,0.0,0.0,0.0,0.0,0.0,0.0,0.0,0.0,0.0,0.0,0.0,0.0,0.0,0.0,0.0,0.0,0.0,0.0,3.3111,3.3111,3.3111,3.3111,3.3111,3.3111,0.0,0.0,0.0,0.0,0.0,3.3111,3.3111,3.3111,3.3111,3.3111,3.3111,3.3111,3.3111,3.3111,3.3111,3.3111,3.3111,3.3111,0.0,0.0,0.0,0.0,0.0,0.0,0.0,0.0,0.0,0.0,0.0,0.0,0.0,0.0,0.0,0.0,0.0,0.0,0.0,0.0,0.0,0.0,0.0,0.0,0.0,0.0,0.0,0.0,0.0,0.0,0.0,0.0,0.0,0.0,0.0,0.0,0.0,0.0,0.0,0.0,0.0,3.6204,3.6204,0.0,0.0,0.0,0.0,0.0,0.0,0.0,0.0,0.0,0.0,0.0,0.0,0.0,3.2905,3.4117,3.4117,3.4117,3.4117,3.5523,3.6168,3.6168,3.631,3.631,3.6096,3.5804,0.0,3.3434,3.4007,0.0,0.0,0.0,0.0,0.0,0.0,0.0,0.0,0.0,0.0,0.0,0.0,0.0,0.0,0.0,0.0,0.0,0.0,0.0,0.0,0.0,3.3111,3.3111,3.3111,3.3111,3.3111,3.3111,3.3111,0.0,0.0,0.0,3.3111,3.3111,3.3111,3.3111,3.3111,3.3111,3.3111,3.3111,3.3111,3.3111,3.3111,3.3111,3.3111,3.3111,3.3111,0.0,0.0,0.0,0.0,0.0,0.0,0.0,0.0,0.0,0.0,0.0,0.0,0.0,0.0,0.0,0.0,0.0,0.0,0.0,0.0,0.0,0.0,0.0,0.0,0.0,0.0,0.0,0.0,0.0,0.0,0.0,0.0,0.0,0.0,0.0,0.0,0.0,0.0,0.0,3.6207,3.6405,3.6405,3.5235,3.4921,0.0,0.0,0.0,0.0,0.0,0.0,0.0,0.0,0.0,3.5475,3.4896,3.4896,3.5523,3.5523,3.5523,3.5523,3.6121,3.6405,3.6405,3.6405,3.6405,3.6405,3.6405,3.5924,3.5178,3.5497,3.5211,3.4529,0.0,0.0,0.0,0.0,3.5024,3.5655,0.0,0.0,0.0,0.0,0.0,0.0,0.0,0.0,0.0,0.0,0.0,0.0,3.3111,3.3111,3.3111,3.3111,3.3111,3.3111,3.3111,3.3111,3.3111,3.3111,3.3111,3.3111,3.3111,3.3111,3.3111,3.3111,3.3111,3.3111,3.3111,3.3111,3.3111,3.3111,3.3111,3.3111,3.3111,3.3111,3.3111,3.3111,0.0,0.0,0.0,0.0,0.0,0.0,0.0,0.0,0.0,0.0,0.0,0.0,0.0,0.0,0.0,0.0,0.0,0.0,0.0,0.0,0.0,0.0,0.0,0.0,0.0,0.0,0.0,0.0,0.0,0.0,0.0,0.0,0.0,0.0,0.0,0.0,0.0,3.6405,3.6405,3.6405,3.5523,3.5307,0.0,0.0,0.0,0.0,0.0,0.0,3.6358,3.5475,3.5379,3.6358,3.6405,3.6405,3.6405,3.6405,3.6405,3.6405,3.6405,3.6405,3.6405,3.6405,3.6405,3.6405,3.6405,3.6405,3.6405,3.6405,3.581,3.4921,3.4921,3.4921,3.4921,3.4921,3.5523,3.6405,0.0,0.0,0.0,0.0,0.0,0.0,0.0,0.0,0.0,0.0,0.0,3.3111,3.3111,3.3111,3.3111,3.3111,3.3111,3.3111,3.3111,3.3111,3.3111,3.3111,3.3111,3.3111,3.3111,3.3111,3.3111,3.3111,3.3111,3.3111,3.3111,3.3111,3.3111,3.3111,3.3111,3.3111,3.3111,3.3111,3.3111,3.3111,3.3111,0.0,0.0,0.0,0.0,0.0,0.0,0.0,0.0,0.0,0.0,0.0,0.0,0.0,0.0,0.0,0.0,0.0,0.0,0.0,0.0,0.0,0.0,0.0,0.0,0.0,0.0,0.0,0.0,0.0,0.0,0.0,0.0,0.0,0.0,0.0,0.0,0.0,0.0,3.6405,3.6358,0.0,0.0,0.0,0.0,3.6405,3.6358,3.631,3.6405,3.6358,3.631,3.6405,3.6405,3.6405,3.6405,3.6405,3.6405,3.6405,3.6405,3.6405,3.6405,3.6405,3.6405,3.6405,3.6405,3.6405,3.6405,3.6405,3.6358,3.631,3.631,3.631,3.631,3.631,3.6358,3.6405,0.0,0.0,0.0,0.0,0.0,0.0,0.0,0.0,3.3111,3.3111,3.3111,3.3111,3.3111,3.3111,3.3111,3.3111,3.3111,3.3111,3.3111,3.3111,3.3111,3.3111,3.3111,3.3111,3.3111,3.3111,3.3111,3.3111,3.3111,3.3111,3.3111,3.3111,3.3111,3.3111,3.3111,3.3111,3.3111,3.3111,3.3111,3.3111,3.3111,3.3111,0.0,0.0,0.0,0.0,0.0,0.0,0.0,0.0,0.0,0.0,0.0,0.0,0.0,0.0,0.0,0.0,0.0,0.0,0.0,0.0,0.0,0.0,0.0,0.0,0.0,0.0,0.0,0.0,0.0,0.0,0.0,0.0,0.0,0.0,0.0,0.0,0.0,3.6405,3.6405,0.0,3.6405,3.6405,3.6405,3.6405,3.6405,3.6405,3.6405,3.6405,3.6405,3.6405,3.6405,3.6405,3.6405,3.6405,3.6405,3.6405,3.6405,3.6405,3.6405,3.6405,3.6405,3.6405,3.6405,3.6405,3.6405,3.6405,3.6405,3.6405,3.6405,3.6405,3.6405,3.6405,3.6405,3.6405,0.0,0.0,0.0,0.0,0.0,0.0,0.0,0.0,3.3111,3.3111,3.3111,3.3111,3.3111,3.3111,3.3111,3.3111,3.3111,3.3111,3.3111,3.3111,3.3111,3.3111,3.3111,3.3111,3.3111,3.3111,3.3111,3.3111,3.3111,3.3111,3.3111,3.3111,3.3111,3.3111,3.3111,3.3111,3.3111,3.3111,3.3111,3.3111,3.3111,3.3111,3.3111,0.0,0.0,0.0,0.0,0.0,0.0,0.0,0.0,0.0,0.0,0.0,0.0,0.0,0.0,0.0,0.0,0.0,0.0,0.0,0.0,0.0,0.0,0.0,0.0,0.0,0.0,0.0,0.0,0.0,0.0,0.0,0.0,0.0,0.0,0.0,3.6405,3.6405,3.6405,3.6405,3.6405,3.6405,3.6405,3.6405,3.6405,3.6405,3.6405,3.6405,3.6405,3.6405,3.6405,3.6405,3.6405,3.6405,3.6405,3.6405,3.6405,3.6405,3.6405,3.6405,3.6405,3.6405,3.6405,3.6405,3.6405,3.6405,3.6405,3.6405,3.6405,3.6405,3.6405,3.6405,3.6405,3.6405,0.0,0.0,0.0,0.0,0.0,0.0,0.0,3.3093,3.3136,3.3111,3.3093,3.3136,3.3111,3.3111,3.3111,3.3111,3.3111,3.3111,3.3111,3.3111,3.3111,3.3111,3.3111,3.3111,3.3111,3.3111,3.3111,3.3111,3.3111,3.3111,3.3111,3.3111,3.3111,3.3111,3.3111,3.3111,3.3111,3.3111,3.3111,3.3111,3.3111,3.3111,3.3111,0.0,0.0,0.0,0.0,0.0,0.0,0.0,0.0,0.0,0.0,0.0,0.0,0.0,0.0,0.0,0.0,0.0,0.0,0.0,0.0,0.0,0.0,0.0,0.0,0.0,0.0,0.0,0.0,0.0,0.0,0.0,0.0,0.0,3.6405,3.6405,3.6405,3.6405,3.6405,3.6405,3.6405,3.6405,3.6405,3.6405,3.6405,3.6405,3.6405,3.6405,3.6405,3.6405,3.6405,3.6405,3.6405,3.6405,3.6405,3.6405,3.6405,3.6405,3.6405,3.6405,3.6405,3.6405,3.6405,3.6405,3.6405,3.6405,3.6405,3.6405,3.6405,3.6405,3.6405,3.6405,3.6405,3.6405,0.0,0.0,0.0,0.0,0.0,0.0,0.0,3.342,3.352,3.3162,3.342,3.352,3.3162,3.3111,3.3111,3.3111,3.3111,3.3111,3.3111,3.3111,3.3111,3.3111,3.3111,3.3111,3.3111,3.3111,3.3111,3.3111,3.3111,3.3111,3.3111,3.3111,3.3111,3.3111,3.3111,3.3111,3.3111,3.3111,3.3111,3.3111,3.3111,3.3111,3.3111,0.0,0.0,0.0,0.0,0.0,0.0,0.0,0.0,0.0,0.0,0.0,0.0,0.0,0.0,0.0,0.0,0.0,0.0,0.0,0.0,0.0,0.0,0.0,0.0,0.0,0.0,0.0,0.0,0.0,0.0,0.0,0.0,3.6405,3.6405,3.6405,3.6405,3.6405,3.6405,3.6405,3.6405,3.6405,3.6405,3.6405,3.6405,3.6405,3.6405,3.6405,3.6405,3.6405,3.6405,3.6405,3.6405,3.6405,3.6405,3.6405,3.6405,3.6405,3.6405,3.6405,3.6405,3.6405,3.6405,3.6405,3.6405,3.6405,3.6405,3.6405,3.6405,3.6405,3.6405,3.6405,3.6405,3.6405,0.0,0.0,0.0,0.0,0.0,0.0,0.0,3.4048,3.4123,3.3796,3.4048,3.4123,3.3796,3.3571,3.342,3.342,3.3219,3.3111,3.3111,3.3111,3.3111,3.3111,3.3111,3.3111,3.3111,3.3111,3.3111,3.3111,3.3111,3.3111,3.3111,3.3111,3.3111,3.3111,3.3111,3.3111,3.3111,3.3111,3.3111,3.3111,3.3111,3.3111,3.3111,3.3111,3.3771,3.468,3.468,3.5429,3.6405,3.6405,0.0,0.0,0.0,0.0,0.0,0.0,0.0,0.0,0.0,0.0,0.0,0.0,0.0,0.0,0.0,0.0,0.0,0.0,0.0,0.0,0.0,0.0,0.0,0.0,3.6405,3.6405,3.6405,3.6405,3.6405,3.6405,3.6405,3.6405,3.6405,3.6405,3.6405,3.6405,3.6405,3.6405,3.6405,3.6405,3.6405,3.6405,3.6405,3.6405,3.6405,3.6631,3.6757,3.6757,3.6935,3.7061,3.7061,3.7061,3.7061,0.0,3.7061,3.7061,3.7061,3.7061,3.7061,0.0,0.0,0.0,0.0,0.0,3.6405,3.6405,0.0,0.0,0.0,0.0,0.0,0.0,0.0,3.4731,3.4756,3.4726,3.4731,3.4801,3.4726,3.4299,3.3997,3.3997,3.3545,3.3244,3.3169,3.3119,3.3111,3.3111,3.3111,3.3111,3.3111,3.3111,3.3111,3.3111,3.3111,3.3111,3.3111,3.3111,3.3111,3.3111,3.3111,3.3111,3.3111,3.3111,3.3111,3.3111,3.3111,3.3111,3.3136,3.3187,3.3822,3.4726,3.4756,3.5479,3.6405,3.6405,0.0,0.0,0.0,0.0,0.0,0.0,0.0,0.0,0.0,0.0,0.0,0.0,0.0,0.0,0.0,0.0,0.0,0.0,0.0,0.0,0.0,0.0,0.0,0.0,3.6405,3.6405,3.6405,3.6405,3.6405,3.6405,3.6405,3.6405,3.6405,3.6405,3.6405,3.6405,3.6405,3.6405,3.6405,0.0,0.0,0.0,0.0,3.6606,3.6606,3.7036,3.7287,3.7287,3.7764,3.8015,3.8015,3.8015,3.8015,3.8015,3.8015,3.8015,3.8015,3.8015,3.8015,3.7914,3.6935,3.6606,3.6606,3.6606,3.6606,3.6606,0.0,0.0,0.0,0.0,0.0,0.0,0.0,3.5056,3.5182,3.4776,3.5056,3.5182,3.4731,3.4625,3.4575,3.4575,3.4474,3.4223,3.3771,3.3319,3.3111,3.3111,3.3111,3.3111,3.3111,3.3111,3.3111,3.3111,3.3111,3.3111,3.3111,3.3111,3.3111,3.3111,3.3111,3.3111,3.3111,3.3111,3.3111,3.3111,3.3111,3.3111,3.3162,3.3571,3.4148,3.4776,3.5182,3.5805,3.6405,3.6405,3.6405,3.6405,3.6405,3.6405,0.0,0.0,0.0,0.0,0.0,0.0,0.0,0.0,0.0,0.0,0.0,0.0,0.0,0.0,0.0,0.0,0.0,0.0,0.0,3.6405,3.6405,3.6405,3.6405,3.6405,3.6405,3.6405,3.6405,3.6405,3.6405,3.6405,3.6405,3.6405,3.6405,3.6405,3.6405,3.6832,0.0,3.7036,3.7462,3.7688,3.7688,3.7789,3.7839,3.7839,0.0,0.0,3.8015,3.8015,3.8015,3.8015,3.8015,3.8015,3.8015,3.8015,3.8015,3.799,3.7764,3.7688,3.7688,3.7688,3.7688,3.7688,0.0,0.0,0.0,0.0,0.0,0.0,0.0,3.578,3.5855,3.5579,3.578,3.5855,3.5579,3.5303,3.5082,3.5082,3.4831,3.45,3.3947,3.3646,3.337,3.3136,3.3111,3.3111,3.3111,3.3111,3.3111,3.3111,3.3111,3.3111,3.3111,3.3111,3.3111,3.3111,3.3111,3.3111,3.3111,3.3111,3.3111,3.3111,3.3111,3.3244,3.352,3.3796,3.4248,3.4756,3.5307,3.5906,3.6405,3.6405,3.6405,3.6405,3.6405,3.6405,3.6405,0.0,0.0,0.0,0.0,0.0,0.0,0.0,0.0,0.0,0.0,0.0,0.0,0.0,0.0,3.6405,0.0,0.0,3.6405,3.6405,3.6405,3.6405,3.6405,3.6405,3.6405,3.6405,3.6405,3.6405,3.6405,3.6405,3.6531,3.6807,3.6832,3.6933,3.7161,3.7437,3.7588,3.7588,3.7864,3.8015,3.8015,3.8291,3.8442,3.8442,3.8718,3.8843,3.8843,3.8843,3.8843,3.8843,3.8843,3.8843,3.8843,3.8843,3.8843,3.8843,3.8843,3.8492,3.8015,3.8015,3.8015,3.8015,0.0,0.0,0.0,0.0,0.0,0.0,0.0,3.6405,3.6405,3.6405,3.6405,3.6405,3.6405,3.5981,3.5658,3.5658,3.5157,3.47,3.4248,3.4022,3.3696,3.3244,3.3187,3.3111,3.3111,3.3111,3.3111,3.3111,3.3111,3.3111,3.3111,3.3111,3.3111,3.3111,3.3111,3.3111,3.3111,3.3111,3.3111,3.3136,3.3194,3.3495,3.3922,3.4148,3.45,3.4906,3.5458,3.5981,3.6405,3.6405,3.6405,3.6405,3.6405,3.6405,3.6405,3.6405,3.6405,0.0,0.0,0.0,0.0,0.0,0.0,0.0,0.0,3.6405,3.6405,3.6405,3.6405,3.6405,3.6405,3.6405,3.6405,3.6405,3.6405,3.6405,3.6405,3.6405,3.6405,3.6405,3.6405,3.6455,3.6556,3.6556,3.6807,3.7312,3.7337,3.7538,3.799,3.8115,3.8165,3.8165,3.8291,3.8341,3.8341,3.8793,3.907,3.9044,3.9471,3.9697,3.9697,3.9697,3.9697,3.9697,3.9697,3.9697,3.9697,3.9697,3.9697,3.9697,3.9362,3.8686,3.7966,3.8216,3.8341,3.8341,0.0,0.0,0.0,0.0,0.0,0.0,0.0,0.0,3.6405,3.6405,3.6405,3.6405,3.6405,3.6355,3.6329,3.6329,3.5755,3.5382,3.5307,3.4449,3.3872,3.3796,3.3345,3.3111,3.3111,3.3111,3.3111,3.3111,3.3111,3.3111,3.3111,3.3111,3.3111,3.3111,3.3111,3.3111,3.3111,3.3111,3.3111,3.3162,3.3621,3.3847,3.3997,3.4931,3.5357,3.5483,3.6081,3.6355,3.6405,3.6405,3.6405,3.6405,3.6405,3.6405,3.6405,3.6405,3.6405,3.6405,3.6405,3.6405,3.6405,3.6405,3.6405,3.6405,0.0,0.0,3.6405,3.6405,3.6405,3.6405,3.6405,3.6405,3.6405,3.6405,3.6405,3.6405,3.6405,3.6405,3.6405,3.6405,3.6405,3.6606,3.7036,3.7086,3.7312,3.7864,3.7914,3.7939,3.8015,3.8492,3.8768,3.8768,3.9245,3.9496,3.9496,3.9572,3.9597,3.9597,3.9672,3.9697,3.9697,3.9697,3.9697,3.9697,3.9697,3.9697,3.9697,3.9697,3.9697,3.9569,3.8243,3.7671,3.7733,3.9007,3.9496,3.9496,0.0,0.0,0.0,0.0,0.0,0.0,0.0,0.0,0.0,3.6405,3.6405,3.6405,3.6405,3.6405,3.6405,3.6405,3.6157,3.5881,3.5508,3.5082,3.4575,3.3922,3.3671,3.3395,3.3136,3.3111,3.3111,3.3111,3.3111,3.3111,3.3111,3.3111,3.3111,3.3111,3.3111,3.3111,3.3111,3.3111,3.3269,3.3571,3.3796,3.4274,3.4856,3.5332,3.5708,3.6056,3.6329,3.6405,0.0,3.6405,3.6405,3.6405,3.6405,3.6405,3.6405,3.6405,3.6405,3.6405,3.6405,3.6405,3.6405,3.6405,3.6405,3.6405,3.6405,3.6405,3.6405,3.6405,3.6405,3.6405,3.6405,3.6405,3.6405,0.0,3.6405,3.6405,3.6405,3.6405,3.6531,3.6857,3.6883,3.6935,3.7161,3.7462,3.7889,3.8467,3.8517,3.8642,3.8969,3.922,3.9346,3.9346,3.9572,3.9697,3.9697,3.9697,3.9697,3.9697,3.9697,3.9258,3.8425,3.8664,3.8419,3.7888,3.7888,3.7888,3.7888,3.7888,3.8435,3.9164,3.8544,3.887,3.9599,3.875,3.84,3.853,0.0,0.0,0.0,0.0,0.0,0.0,0.0,0.0,0.0,0.0,3.6405,3.6405,3.6405,3.6405,3.6405,3.6405,3.6405,3.6182,3.5805,3.5583,3.5132,3.4399,3.4198,3.3872,3.3319,3.3294,3.3244,3.3111,3.3111,3.3111,3.3111,3.3111,3.3111,3.3111,3.3111,3.3111,3.3136,3.3244,3.3545,3.3922,3.4223,3.4826,3.5508,3.5658,3.6006,3.6405,3.6405,3.6405,3.6405,3.6405,3.6405,3.6405,3.6405,3.6405,3.6405,3.6405,3.6405,3.6405,3.6405,3.6405,3.6405,3.6405,3.6405,3.6405,3.6405,3.6405,3.6405,3.6405,3.6405,3.6405,3.6405,3.6405,3.6405,3.6405,3.6405,3.6405,3.6405,3.6531,3.6782,3.7136,3.7462,3.7638,3.7638,3.8015,3.8492,3.9069,3.9094,3.9117,3.9104,3.9465,3.9517,3.9129,3.9465,3.954,3.9247,3.9247,3.9111,3.8863,3.8863,3.8305,3.7309,3.7989,3.7702,3.6652,3.7508,3.7655,3.7258,3.7711,3.8577,3.952,3.9109,3.9654,4.0478,3.8623,3.8174,3.8679,0.0,0.0,0.0,0.0,0.0,0.0,0.0,0.0,0.0,0.0,0.0,0.0,0.0,3.6405,3.6405,3.6405,3.6405,3.6405,3.638,3.583,3.5483,3.5458,3.4931,3.4449,3.3897,3.3872,3.3621,3.3111,3.3111,3.3111,3.3111,3.3111,3.3111,3.3111,3.3111,3.3111,3.3119,3.3646,3.3897,3.3997,3.5031,3.5458,3.5558,3.6132,3.638,3.6405,3.6405,3.6405,3.6405,3.6405,3.6405,3.6405,3.6405,3.6405,3.6405,3.6405,3.6405,3.6405,3.6405,3.6405,3.6405,3.6405,3.6405,3.6405,3.6405,3.6405,3.6405,3.6405,3.6405,3.6405,3.6405,3.6405,3.6405,3.6405,3.6405,3.6405,3.6405,3.6883,3.7161,3.7186,3.8215,3.8869,0.0,3.8894,3.9069,3.9622,3.9672,3.9052,3.7636,3.8921,3.9025,3.7636,3.8973,3.922,3.8136,3.8136,3.7682,3.67,3.67,3.6665,3.6643,3.8171,3.8026,3.6745,3.9843,4.0281,3.8943,4.0523,4.1168,4.1114,3.9654,3.9133,3.9133,3.9109,3.9959,4.1171,0.0,0.0,0.0,0.0,0.0,0.0,0.0,0.0,0.0,0.0,0.0,0.0,0.0,0.0,0.0,0.0,3.6405,3.6405,3.6405,3.6182,3.5931,3.5508,3.5332,3.4956,3.4449,3.4449,3.4349,3.4173,3.3796,3.3621,3.3621,3.3244,3.3269,3.3621,3.3621,3.3822,3.4173,3.4374,3.465,3.4981,3.5357,3.5755,3.6107,3.6329,3.6405,3.6405,0.0,3.6405,3.6405,3.6405,3.6405,3.6405,3.6405,3.6405,3.6405,3.6405,3.6405,3.6405,3.6405,3.6405,3.6405,3.6405,3.6405,3.6405,3.6405,3.6405,3.6405,3.6405,3.6405,3.6405,3.6405,3.6405,3.6121,3.5235,3.581,3.6221,3.5673,3.6552,3.7462,3.8265,3.8693,0.0,0.0,0.0,0.0,3.9672,3.9697,3.9465,3.8973,3.9763,4.0015,3.9516,3.9277,3.9491,4.0252,3.9145,3.8445,3.8106,3.7144,3.6809,3.7121,3.7758,3.7882,3.773,3.8781,3.8955,3.8491,3.9013,3.9898,4.0773,4.0296,4.0773,4.1719,4.1719,4.1997,4.2333,0.0,0.0,0.0,0.0,0.0,0.0,0.0,0.0,0.0,0.0,0.0,0.0,0.0,0.0,0.0,0.0,0.0,3.6405,3.6405,3.6405,3.6207,3.5855,3.583,3.5579,3.4981,3.4781,3.4625,3.4424,3.4073,3.3897,3.3897,3.3746,3.3847,3.4198,3.4198,3.4399,3.468,3.4881,3.5182,3.5508,3.5708,3.6031,3.6405,3.6405,3.6405,0.0,3.6405,3.6405,3.6405,3.6405,3.6405,3.6405,3.6405,3.6405,3.6405,3.6405,3.6405,3.6405,3.6405,3.6405,3.6405,3.6405,3.6405,3.6405,3.6405,3.6405,3.6405,3.6405,3.6405,3.6263,3.5763,3.6073,3.581,3.397,3.4919,3.577,3.5274,3.6257,3.7468,3.8718,3.8612,3.8757,0.0,0.0,0.0,3.9645,3.9697,3.9565,3.9244,3.9459,3.9755,4.0005,3.9296,3.9506,4.0764,3.9753,3.9042,3.864,3.7665,3.7381,3.7694,3.8339,3.8168,3.7445,3.858,3.8402,3.7424,3.858,3.9639,4.065,4.1248,4.2069,4.2986,4.2986,4.2986,4.2886,0.0,0.0,0.0,0.0,0.0,0.0,0.0,0.0,0.0,0.0,0.0,0.0,0.0,0.0,0.0,0.0,0.0,0.0,3.6405,3.6405,3.6405,3.6405,3.6405,3.6107,3.5558,3.5031,3.455,3.4022,3.3997,3.3972,3.3997,3.45,3.468,3.4731,3.4731,3.4776,3.4851,3.5332,3.5533,3.5583,3.6157,3.6405,3.6405,3.6405,3.6405,3.6405,3.6405,3.6405,3.6405,3.6405,3.6405,3.6405,3.6405,3.6405,3.6405,3.6405,3.6405,3.6405,3.6405,3.6405,3.6405,3.6405,3.6405,3.6405,3.6405,3.6405,3.6405,3.6405,3.6358,3.5906,0.0,0.0,3.5403,3.2733,3.387,3.5146,3.5196,3.6152,3.7287,0.0,0.0,0.0,0.0,0.0,0.0,3.9515,0.0,3.9244,3.837,3.8176,3.8359,3.9102,3.8959,3.922,3.9968,3.9855,3.9348,3.8342,3.8223,3.8223,3.8283,3.9873,3.8912,3.6213,3.9323,3.8971,3.6396,3.9464,4.0707,4.088,4.2375,4.2986,4.2849,4.2849,4.2849,4.2737,0.0,0.0,0.0,0.0,0.0,0.0,0.0,0.0,0.0,0.0,0.0,0.0,0.0,0.0,0.0,0.0,0.0,0.0,3.6405,3.6405,3.6405,3.6405,3.6405,3.6355,3.6157,3.6053,3.5927,3.5776,3.5328,3.5082,3.5082,3.4806,3.4906,3.5282,3.5282,3.5554,3.6003,3.6081,3.6157,3.6157,3.6355,3.6405,3.6405,3.6405,3.6405,3.6405,3.6405,3.6405,3.6405,3.6405,3.6405,3.6405,3.6405,3.6405,3.6405,3.6405,3.6405,3.6405,3.6405,3.6405,3.6405,3.6405,3.6405,3.6405,3.6405,3.6405,3.6405,3.6405,3.5619,3.4824,3.4483,0.0,0.0,3.2582,3.474,0.0,3.5899,3.7285,0.0,3.7871,0.0,3.7636,3.8007,3.8102,0.0,0.0,3.8479,3.8587,3.873,3.7986,3.8205,3.9561,3.8805,3.9603,4.2177,4.0998,4.0277,3.9989,3.8757,3.8223,3.8283,3.9873,4.0163,3.9522,4.1476,4.1899,4.1248,4.2012,4.2375,4.2432,4.2849,4.2263,4.1191,4.1191,4.0476,3.9405,0.0,0.0,0.0,0.0,0.0,0.0,0.0,0.0,0.0,0.0,0.0,0.0,0.0,0.0,0.0,0.0,0.0,0.0,0.0,3.5523,3.5523,3.5523,3.5523,3.581,3.6405,3.6132,3.6006,3.6006,3.5658,3.5205,3.4642,3.5176,3.5279,3.5034,3.56,3.6081,3.6405,3.6405,3.6405,0.0,0.0,3.6405,3.6405,3.6405,3.6405,3.6405,3.6405,3.6405,3.6405,3.6405,3.6405,3.6405,3.6405,3.6405,3.6405,3.6405,3.6405,3.6405,3.6405,3.6405,3.6405,3.6405,3.6405,3.6405,3.6405,3.6405,3.6405,3.6405,3.5331,3.4239,3.3624,3.397,3.3773,0.0,0.0,0.0,3.6063,3.6781,3.7589,0.0,3.7317,0.0,3.7423,3.7333,3.7321,0.0,3.8107,3.8398,3.8238,3.7036,3.7537,4.0083,3.8892,3.9756,4.2986,4.2069,4.1305,4.0592,4.0419,3.9931,3.9288,4.0937,4.1248,4.065,0.0,4.1558,4.088,4.088,4.088,4.088,4.088,4.0361,3.9522,3.9522,3.8994,3.8283,0.0,0.0,0.0,0.0,0.0,0.0,0.0,0.0,0.0,0.0,0.0,0.0,0.0,0.0,0.0,0.0,0.0,0.0,0.0,0.0,3.4678,3.4678,3.4678,3.521,3.6358,3.5906,3.5608,3.5608,3.5608,3.4905,3.3648,3.535,3.5523,3.4434,3.5619,3.6216,3.6405,3.6405,3.6405,3.6405,3.6405,3.6405,3.6405,0.0,3.6405,3.6405,3.6405,3.6405,3.6405,3.6405,3.6405,3.6405,3.6405,3.6405,3.6405,3.6405,3.6405,3.6405,3.6405,3.6405,3.6405,3.6405,3.6405,3.6405,3.6405,3.6405,3.6405,3.6405,3.5162,3.3773,3.2532,3.3155,3.3105,3.0927,0.0,3.5856,3.5958,3.5892,3.6619,3.8582,3.6727,3.5749,3.6904,3.6193,3.5922,3.6467,3.7929,3.8444,3.7551,3.5999,3.679,4.0453,3.9464,4.0047,4.2681,4.2681,4.1842,4.0303,4.1728,4.1615,4.0361,4.1728,4.1615,4.0303,0.0,0.0,3.8223,3.8223,3.8223,3.8223,3.8223,3.8045,3.7925,3.8104,3.8045,3.8104,0.0,0.0,0.0,0.0,0.0,0.0,0.0,0.0,0.0,0.0,3.6405,3.6405,0.0,0.0,0.0,0.0,0.0,0.0,0.0,0.0,0.0,3.6048,3.6048,3.6168,3.6405,3.6329,3.6254,3.6254,3.6254,3.5567,3.4243,3.4581,3.4629,3.4434,3.4629,3.5379,3.6405,3.6405,3.6405,3.6405,3.6405,3.6405,3.6405,3.6405,0.0,0.0,3.6405,3.6405,3.6405,3.6405,3.6405,3.6405,3.6405,3.6405,3.6405,3.6405,3.6405,3.6405,3.6405,3.6405,3.6405,3.6405,3.6405,3.6405,3.6405,3.6405,0.0,3.6405,3.441,3.2582,3.2331,3.1571,3.1235,3.1825,3.4185,3.5958,3.5856,3.764,3.7767,0.0,3.4847,3.5058,3.4439,3.4602,0.0,0.0,0.0,3.8236,3.8089,3.6531,3.7156,4.0476,4.1615,4.1785,4.1019,4.1019,4.0187,3.8639,3.8876,3.8876,3.8639,3.8935,3.8876,3.8639,3.8639,0.0,3.8223,3.8223,3.8223,3.8223,3.8223,3.7385,3.6417,3.7746,3.7385,3.6478,0.0,0.0,0.0,0.0,0.0,0.0,0.0,3.6405,3.6405,3.6405,3.6405,3.6405,3.6405,3.6405,3.6405,0.0,0.0,0.0,0.0,0.0,0.0,0.0,3.5379,0.0,3.6358,3.6405,0.0,0.0,0.0,3.5017,3.4385,0.0,0.0,3.4434,3.5114,3.581,3.6405,3.6405,3.6405,3.6405,3.6405,3.6405,3.6405,0.0,0.0,0.0,3.6405,3.6405,3.6405,3.6405,3.6405,3.6405,3.6405,3.6405,3.6405,3.6405,3.6405,3.6405,3.6405,3.6405,3.6405,3.6405,3.6405,3.6405,3.6405,3.6405,3.6405,3.6405,3.4191,3.228,3.228,3.1378,3.0895,3.1499,3.4268,3.6053,3.5195,3.7082,3.7477,3.457,3.4847,3.4857,0.0,3.4904,0.0,0.0,0.0,3.7865,3.7002,3.7783,3.903,4.0534,4.1362,4.1362,4.0592,4.0592,3.9756,3.8223,3.9873,3.9814,3.8223,3.9053,3.8994,3.8223,3.8223,0.0,3.8164,3.7303,3.7424,3.8127,3.761,3.7453,3.7597,3.8691,3.8598,3.817,0.0,0.0,0.0,0.0,0.0,0.0,0.0,3.6405,3.6405,3.6405,3.6405,3.6405,3.6405,3.6405,3.6405,0.0,0.0,0.0,0.0,0.0,0.0,0.0,0.0,0.0,0.0,0.0,0.0,0.0,0.0,0.0,0.0,0.0,0.0,0.0,0.0,0.0,3.6405,3.6405,3.6405,0.0,0.0,0.0,0.0,0.0,0.0,0.0,0.0,3.6405,3.6405,3.6405,3.6405,3.6405,3.6405,3.6405,3.6405,3.6405,3.6405,3.6405,3.6405,3.6405,3.6405,3.6405,3.6405,3.6405,3.6405,3.6405,3.6405,3.6405,3.4191,3.2325,3.2415,3.1429,3.0689,3.1093,3.3754,3.5329,3.4095,3.5979,3.6703,0.0,3.4902,0.0,3.3505,3.5085,0.0,0.0,0.0,0.0,3.6881,3.9206,4.0592,4.0592,4.0592,4.0419,4.0129,4.0419,3.9639,3.7746,4.0592,4.0476,3.7746,3.8994,3.8876,3.7686,3.7435,0.0,0.0,3.6058,3.6531,3.7918,3.7121,3.783,3.9264,4.0098,4.0418,4.0663,0.0,0.0,0.0,0.0,0.0,0.0,0.0,3.6405,3.6405,3.6405,3.6405,3.6405,3.6405,3.6405,3.6405,0.0,0.0,0.0,0.0,0.0,0.0,0.0,0.0,0.0,0.0,0.0,0.0,0.0,0.0,0.0,0.0,0.0,0.0,0.0,0.0,0.0,0.0,3.6405,0.0,0.0,0.0,0.0,0.0,0.0,0.0,0.0,0.0,3.6405,3.6405,3.6405,3.6405,3.6405,3.6405,3.6405,3.6405,3.6405,3.6405,3.6405,3.6405,3.6405,3.6405,3.6405,3.6405,3.6405,3.6405,3.6405,3.6405,3.6405,3.4191,3.2415,3.2884,3.0819,2.9624,3.1296,3.2268,3.2696,3.2419,3.5332,3.5945,3.1767,0.0,0.0,3.2535,0.0,0.0,0.0,0.0,0.0,4.0105,4.0419,4.0592,4.0592,4.0592,3.9873,3.8461,3.9873,3.903,3.6051,3.7783,3.7723,3.6051,3.6152,3.6152,3.5949,3.4932,0.0,0.0,3.4739,3.5828,3.7382,3.7298,3.8306,3.9982,4.1536,4.2065,4.2305,0.0,0.0,0.0,0.0,0.0,0.0,3.6405,3.6405,3.6405,3.6405,3.6405,3.6405,3.6405,3.6405,3.6405,3.6405,0.0,0.0,0.0,0.0,0.0,0.0,0.0,0.0,0.0,0.0,0.0,0.0,0.0,0.0,0.0,0.0,0.0,0.0,0.0,0.0,0.0,0.0,0.0,0.0,0.0,0.0,0.0,0.0,0.0,0.0,0.0,0.0,3.6405,3.6405,3.6405,3.6405,3.6405,3.6405,3.6405,3.6405,3.6405,3.6405,3.6405,3.6405,3.6405,3.6405,3.6405,3.6216,3.5379,3.581,3.6168,3.5379,3.365,3.2437,3.2929,3.0963,2.9656,3.0574,3.2656,3.351,3.1657,3.5699,3.6865,3.1556,3.3473,0.0,0.0,0.0,0.0,0.0,0.0,0.0,4.2012,4.1133,4.1019,4.2012,4.1133,4.0303,3.9639,3.9347,3.8521,3.7243,3.7925,3.7385,3.5806,3.6121,3.5707,3.4805,3.5674,0.0,0.0,3.7298,3.881,4.0341,4.0637,4.1821,4.3373,4.4339,4.4702,4.4642,0.0,0.0,0.0,0.0,0.0,3.6405,3.6405,3.6405,3.6405,3.6405,3.6405,3.6405,3.6405,3.6405,3.6405,3.6405,3.6405,0.0,0.0,0.0,0.0,0.0,0.0,0.0,0.0,0.0,3.6216,3.581,3.5283,0.0,0.0,0.0,0.0,0.0,0.0,0.0,0.0,0.0,0.0,0.0,0.0,0.0,0.0,0.0,0.0,0.0,0.0,0.0,0.0,0.0,0.0,3.6405,3.6405,3.6405,3.6405,3.6405,3.6405,3.6405,3.6405,3.6405,3.6405,3.6405,3.6405,3.6168,3.521,3.5715,3.6121,3.5187,3.3552,3.2634,3.3646,3.1536,2.9914,3.09,3.3071,3.3754,3.1286,3.5617,3.7049,0.0,0.0,0.0,0.0,0.0,0.0,0.0,0.0,0.0,0.0,4.1476,4.1133,4.2263,4.1191,4.0361,3.9873,3.9229,3.8461,3.7506,3.7659,3.6875,3.5314,3.6269,3.6119,3.514,0.0,0.0,0.0,3.9748,4.1245,4.2685,4.2612,4.3514,4.4946,4.4829,4.4767,4.4706,0.0,0.0,0.0,0.0,0.0,0.0,3.6405,3.6405,3.6405,3.6405,3.6405,3.6405,3.6405,3.6405,3.6405,3.6405,3.6405,0.0,0.0,0.0,0.0,0.0,0.0,0.0,0.0,0.0,3.5763,3.4434,3.5715,3.5715,3.4434,3.5763,0.0,0.0,0.0,0.0,0.0,0.0,0.0,0.0,0.0,0.0,0.0,0.0,0.0,0.0,0.0,0.0,0.0,0.0,0.0,0.0,0.0,3.6405,3.6405,3.6405,3.6405,3.6405,3.6405,3.6405,3.6405,3.6405,3.6405,3.6405,3.6358,3.6405,3.6405,3.6358,3.4191,3.3,3.5361,3.2373,3.033,3.2705,3.3134,3.2587,3.1112,3.4736,3.589,0.0,0.0,0.0,0.0,0.0,0.0,0.0,0.0,0.0,0.0,4.1476,4.0592,4.0592,4.0592,3.9814,3.8223,3.9756,3.8971,3.5806,3.631,3.5681,3.4211,3.6303,3.7318,0.0,0.0,0.0,0.0,4.0957,4.2178,4.352,4.1861,4.2241,4.352,4.1884,4.1245,4.1501,0.0,0.0,0.0,0.0,0.0,0.0,0.0,3.6405,3.6405,3.6405,3.6405,3.6405,3.6405,3.6405,3.6405,3.6405,3.6405,0.0,0.0,0.0,0.0,0.0,0.0,0.0,0.0,3.6405,3.6216,3.5763,3.6216,3.5715,3.4434,3.5763,3.5906,0.0,0.0,0.0,0.0,0.0,0.0,0.0,0.0,0.0,0.0,0.0,0.0,0.0,0.0,0.0,0.0,0.0,0.0,0.0,0.0,0.0,0.0,3.6405,3.6405,3.6405,3.6405,3.6405,3.6405,3.6405,3.6405,3.6168,3.5235,3.5763,3.6168,3.521,3.4623,3.4574,3.5636,3.3438,3.2197,3.4239,3.4626,3.4459,0.0,0.0,0.0,3.4292,3.6397,0.0,0.0,0.0,0.0,0.0,0.0,0.0,0.0,4.2488,4.2263,4.2263,4.1191,4.0361,3.9814,3.8141,3.6993,3.6247,3.6519,3.6499,3.6387,3.8526,0.0,0.0,0.0,0.0,0.0,4.2825,4.3917,4.522,4.2328,4.2981,4.5281,4.3544,4.3669,4.4583,0.0,0.0,0.0,0.0,0.0,0.0,0.0,3.6405,3.6405,3.6405,3.6405,3.6405,3.6405,3.6405,3.6405,3.6405,3.6405,0.0,0.0,0.0,0.0,0.0,0.0,0.0,3.6405,3.6405,3.6405,3.6405,3.6405,3.5953,3.5162,3.6001,3.5953,3.5187,3.6026,3.6405,0.0,0.0,0.0,0.0,0.0,0.0,3.6405,0.0,0.0,0.0,0.0,0.0,0.0,0.0,0.0,0.0,0.0,0.0,0.0,0.0,3.6405,3.6405,3.6405,3.6405,3.6405,3.6405,3.6405,0.0,3.5331,3.581,3.6168,3.5331,3.5184,3.5489,3.6444,3.4797,3.389,3.5799,3.6108,3.5945,0.0,0.0,0.0,3.6911,0.0,0.0,0.0,0.0,0.0,0.0,0.0,0.0,0.0,4.2432,4.2069,4.2069,4.1133,3.9989,3.8794,3.7599,3.6822,3.6603,3.7609,3.8246,3.8611,4.0738,0.0,0.0,0.0,0.0,0.0,4.3979,4.4374,4.5013,4.2264,4.2517,4.4251,4.3146,4.3419,4.4189,0.0,0.0,0.0,0.0,0.0,0.0,0.0,3.6405,3.6405,3.6405,3.6405,3.6405,3.6405,3.6405,3.6405,3.6405,0.0,0.0,0.0,0.0,0.0,0.0,0.0,0.0,3.6405,3.6405,3.6405,3.6405,3.6405,3.6358,3.6263,3.6358,3.6358,3.6263,3.6358,3.6405,3.6405,3.6405,3.6405,3.6405,3.6405,3.6405,0.0,0.0,0.0,0.0,0.0,0.0,0.0,0.0,0.0,0.0,0.0,0.0,0.0,0.0,0.0,0.0,0.0,3.6405,3.6405,3.6405,3.6405,3.6405,3.6405,3.6405,0.0,3.6405,3.5844,3.5936,3.7692,3.6256,3.5451,3.7329,3.7583,0.0,0.0,3.7979,0.0,0.0,0.0,0.0,0.0,0.0,0.0,0.0,0.0,0.0,0.0,4.159,4.0707,4.0592,4.0639,3.9157,3.6032,3.7867,3.8192,3.7,3.9493,4.0716,4.0824,4.2934,0.0,0.0,0.0,0.0,0.0,4.4103,4.3458,4.3544,4.1756,4.1245,4.1565,4.1437,4.1437,4.1565,0.0,0.0,0.0,0.0,0.0,0.0,0.0,0.0,0.0,0.0,3.6405,3.6405,3.6405,3.6405,3.6405,0.0,0.0,0.0,0.0,0.0,0.0,0.0,0.0,0.0,3.6405,3.6405,3.6405,3.6405,3.6405,3.5858,3.4872,3.5906,3.5858,3.4921,3.5953,3.6405,3.6405,3.6405,3.6405,3.6405,3.6405,3.6405,0.0,0.0,0.0,0.0,3.6405,3.6405,0.0,0.0,0.0,0.0,0.0,0.0,0.0,0.0,3.6405,3.6405,3.6405,0.0,3.6405,3.6405,3.6405,3.6405,0.0,3.6405,3.6405,3.6405,3.6869,3.7494,3.794,3.7342,3.7334,3.8948,0.0,0.0,3.853,0.0,0.0,0.0,0.0,0.0,0.0,0.0,0.0,0.0,0.0,0.0,0.0,4.2625,4.1842,4.065,4.0996,4.0279,3.8299,3.7551,3.8046,3.9645,4.1576,4.2668,4.3044,4.4841,0.0,0.0,0.0,0.0,4.4041,4.103,4.1351,4.3396,4.0408,4.1629,4.4951,4.3606,4.3941,4.489,0.0,0.0,0.0,0.0,0.0,0.0,0.0,0.0,0.0,0.0,0.0,3.6405,3.6405,3.6405,0.0,0.0,0.0,0.0,0.0,0.0,0.0,0.0,0.0,3.6405,3.6405,3.6405,3.6405,3.6405,3.6405,3.6026,3.5331,3.6048,3.6001,3.5379,3.6073,3.6405,3.6405,3.6405,3.6405,3.6405,3.6405,0.0,0.0,0.0,0.0,0.0,3.6405,3.6405,0.0,3.6405,3.6405,3.6405,0.0,0.0,0.0,0.0,3.6405,3.6405,3.6405,3.6405,3.6405,3.6405,3.6405,3.6405,3.6405,3.6405,3.6405,3.6405,3.7236,3.8015,3.8015,3.8284,3.8792,3.9569,3.9025,0.0,0.0,0.0,0.0,0.0,0.0,0.0,0.0,0.0,0.0,0.0,0.0,0.0,0.0,4.2319,4.1476,4.065,4.0387,3.9868,3.9023,3.9411,4.0338,4.1692,4.3636,4.4683,4.4951,4.5853,4.6301,0.0,0.0,0.0,4.4706,4.2051,4.2051,4.3544,4.167,4.2643,4.5013,4.4041,4.4312,4.4767,0.0,0.0,0.0,0.0,0.0,0.0,0.0,0.0,0.0,0.0,0.0,0.0,0.0,0.0,0.0,0.0,0.0,0.0,0.0,0.0,0.0,0.0,3.6405,3.6405,3.6405,3.6405,3.6405,3.6405,3.6405,3.6405,3.6405,3.6405,3.6405,3.6405,3.6405,3.6405,3.6405,3.6405,3.6405,3.6405,3.6405,0.0,0.0,0.0,0.0,0.0,0.0,0.0,0.0,3.6405,3.6405,3.6405,3.6405,0.0,0.0,0.0,0.0,0.0,3.6405,3.6405,3.6405,3.6405,3.6405,3.6405,3.6405,3.6405,3.6405,3.6405,3.7186,3.7914,3.799,3.8868,3.9597,0.0,0.0,0.0,0.0,0.0,0.0,0.0,0.0,0.0,0.0,0.0,0.0,0.0,0.0,0.0,0.0,4.1728,4.0961,4.0961,4.022,3.9862,3.9862,4.2047,4.3262,4.3601,4.5448,4.6301,4.6301,4.6301,4.6301,0.0,0.0,0.0,4.5793,4.4041,4.3333,4.3333,4.3333,4.3333,4.3333,4.3333,4.3482,4.3271,0.0,0.0,0.0,0.0,0.0,0.0,0.0,0.0,0.0,0.0,0.0,0.0,0.0,0.0,0.0,0.0,0.0,0.0,0.0,0.0,0.0,3.6405,3.6405,3.6405,3.6405,3.6405,3.6405,3.6405,3.6405,3.6405,3.6405,3.6405,3.6405,3.6405,3.6405,3.6405,3.6405,3.6405,3.6405,3.6405,3.6405,0.0,0.0,0.0,0.0,0.0,0.0,0.0,0.0,3.6405,3.6405,3.6405,3.6405,0.0,0.0,0.0,0.0,0.0,3.6405,3.6405,3.6405,3.6405,3.6405,3.6405,3.6405,3.6405,3.6405,3.6405,3.686,3.7462,3.7914,3.8542,3.9145,0.0,0.0,3.9697,0.0,0.0,0.0,0.0,0.0,0.0,0.0,0.0,0.0,0.0,0.0,0.0,0.0,4.2737,4.2625,4.2625,4.3342,4.3746,4.3746,4.3349,4.4002,4.5814,4.613,4.6301,4.6301,4.6301,4.6301,0.0,0.0,4.4103,4.3979,4.2264,4.1565,4.1565,4.1565,4.1565,4.1565,4.1565,4.2454,4.3583,0.0,0.0,0.0,0.0,0.0,0.0,0.0,0.0,0.0,0.0,0.0,0.0,0.0,0.0,0.0,0.0,0.0,0.0,0.0,0.0,3.6405,3.6405,3.6405,3.6405,3.6405,3.6405,3.6405,3.6405,3.6405,3.6405,3.6405,3.6405,3.6405,3.6405,3.6405,3.6405,3.6405,3.6405,3.6405,3.6405,0.0,0.0,0.0,0.0,0.0,0.0,0.0,0.0,0.0,0.0,3.6405,3.6405,3.6405,0.0,0.0,0.0,0.0,0.0,3.6405,3.6405,3.6405,3.6405,3.6405,3.6405,3.6405,3.6405,3.6405,3.6405,3.6857,3.7337,3.7914,0.0,3.9095,3.9597,0.0,0.0,0.0,0.0,0.0,0.0,0.0,0.0,0.0,0.0,0.0,0.0,0.0,0.0,0.0,0.0,4.2986,4.2986,4.4041,4.4618,4.4618,4.4734,4.5303,4.6301,4.6301,4.6301,4.6301,4.6301,4.6301,4.624,0.0,4.5074,4.4951,4.3294,4.258,4.258,4.258,4.258,4.258,4.258,4.2454,4.2454,0.0,0.0,0.0,0.0,0.0,0.0,0.0,0.0,0.0,0.0,0.0,0.0,0.0,0.0,0.0,0.0,0.0,0.0,0.0,3.6405,3.6405,3.6405,3.6405,3.6405,3.6405,3.6405,3.6405,3.6405,3.6405,3.6405,3.6405,3.6405,3.6405,3.6405,3.6405,3.6405,3.6405,3.6405,3.6405,3.6405,0.0,0.0,0.0,0.0,0.0,0.0,0.0,0.0,0.0,0.0,0.0,0.0,0.0,0.0,0.0,3.6405,3.6405,3.6405,3.6405,3.6405,3.6405,3.6405,3.6405,3.6405,3.6405,3.6405,3.6405,3.6405,3.6757,3.7161,3.7713,3.8391,0.0,3.9597,3.9697,0.0,0.0,0.0,0.0,0.0,0.0,0.0,0.0,0.0,0.0,0.0,0.0,0.0,0.0,0.0,4.3037,4.3162,4.4116,4.4694,4.4819,4.5824,4.6301,4.6301,4.6301,4.6301,4.6301,4.6301,4.6301,4.6301,4.6301,4.6059,4.5611,4.4682,4.3855,4.3146,4.3544,4.3458,4.3146,4.3544,4.2895,4.2011,0.0,0.0,0.0,0.0,0.0,0.0,0.0,0.0,0.0,0.0,0.0,0.0,0.0,0.0,0.0,0.0,0.0,0.0,0.0,3.6405,3.6405,3.6405,3.6405,3.6405,3.6405,3.6405,3.6405,3.6405,3.6405,3.6405,3.6405,3.6405,3.6405,3.6405,3.6405,3.6405,3.6405,3.6405,3.6405,3.6405,3.6405,0.0,0.0,0.0,0.0,0.0,0.0,0.0,0.0,0.0,0.0,0.0,0.0,0.0,3.6405,3.6405,3.6405,3.6405,3.6405,3.6405,3.6405,3.6405,3.6405,3.6405,3.6405,3.6405,3.6405,3.6405,3.643,3.6631,3.7136,3.814,3.9095,3.9597,0.0,0.0,0.0,0.0,0.0,0.0,0.0,0.0,0.0,0.0,0.0,0.0,0.0,0.0,0.0,0.0,0.0,4.374,4.4317,4.4895,4.5422,4.6024,4.6301,4.6301,4.6301,4.6301,4.6301,4.6301,4.6301,4.6301,4.6301,4.5403,4.3979,4.5464,4.4251,4.1565,4.3083,4.2769,4.1565,4.3146,4.3583,4.3793,0.0,0.0,0.0,0.0,0.0,0.0,0.0,0.0,0.0,0.0,0.0,0.0,0.0,0.0,0.0,0.0,0.0,0.0,0.0,3.6405,3.6405,3.6405,3.6405,3.6405,3.6405,3.6405,3.6405,3.6405,3.6405,3.6405,3.6405,3.6405,3.6405,3.6405,3.6405,3.6405,3.6405,3.6405,3.6405,3.6405,3.6405,3.6405,0.0,0.0,0.0,0.0,0.0,0.0,0.0,0.0,3.6405,3.6405,3.6405,3.6405,3.6405,3.6405,3.6405,3.6405,3.6405,3.6405,3.6405,3.6405,3.6405,3.6405,3.6405,3.6405,3.6405,3.6405,3.6405,3.6681,3.7538,0.0,3.9446,3.9672,0.0,0.0,0.0,0.0,0.0,0.0,0.0,0.0,0.0,0.0,0.0,0.0,0.0,0.0,0.0,0.0,0.0,4.379,4.4342,4.4895,4.5472,4.6024,4.6301,4.6301,4.6301,4.6301,4.6301,4.6301,4.6301,4.6301,4.6301,4.5914,4.5281,4.489,4.3917,4.2832,4.3458,4.3979,4.446,4.5074,4.5342,4.5403,0.0,0.0,0.0,0.0,0.0,0.0,0.0,0.0,0.0,0.0,0.0,0.0,0.0,0.0,0.0,0.0,0.0,0.0,3.6405,3.6405,3.6405,3.6405,3.6405,3.6405,3.6405,3.6405,3.6405,3.6405,3.6405,3.6405,3.6405,3.6405,3.6405,3.6405,3.6405,3.6405,3.6405,3.6405,3.6405,3.6405,3.6405,3.6405,0.0,0.0,0.0,0.0,0.0,0.0,0.0,0.0,3.6405,3.6405,3.6405,3.6405,3.6405,3.6405,3.6405,3.6405,3.6405,3.6405,3.6405,3.6405,3.6405,3.6405,3.6405,3.6405,3.6405,3.6405,3.6405,3.6757,3.7789,3.8642,0.0,0.0,0.0,0.0,0.0,0.0,0.0,0.0,0.0,0.0,0.0,0.0,0.0,0.0,0.0,0.0,0.0,0.0,0.0,0.0,4.4418,4.4995,4.5748,4.6125,4.6301,4.6301,4.6301,4.6301,4.6301,4.6301,4.6301,4.6301,4.6301,4.5999,4.5403,4.4767,4.4497,4.4497,4.4497,4.5281,4.6301,4.6301,4.6301,4.6301,0.0,0.0,0.0,0.0,0.0,0.0,0.0,0.0,0.0,0.0,0.0,0.0,0.0,0.0,0.0,0.0,0.0,0.0,3.6405,3.6405,3.6405,3.6405,3.6405,3.6405,3.6405,3.6405,3.6405,3.6405,3.6405,3.6405,3.6405,3.6405,3.6405,3.6405,3.6405,3.6405,3.6405,3.6405,3.6405,3.6405,3.6405,3.6405,3.6405,0.0,0.0,0.0,0.0,0.0,0.0,0.0,3.6405,3.6405,3.6405,3.6405,3.6405,3.6405,3.6405,3.6405,3.6405,3.6405,3.6405,3.6405,3.6405,3.6405,3.6405,3.6405,3.6405,3.6405,3.6405,3.6757,3.7814,3.8015,0.0,0.0,0.0,0.0,0.0,0.0,0.0,0.0,0.0,0.0,0.0,0.0,0.0,0.0,0.0,0.0,0.0,0.0,0.0,0.0,4.4618,4.5171,4.6301,4.6301,4.6301,4.6301,4.6301,4.6301,4.6301,4.6301,4.6301,4.6301,4.6301,4.5342,4.3855,4.5586,4.6301,4.6301,4.6301,4.6301,4.6301,4.6301,4.6301,4.6326,0.0,0.0,0.0,0.0,0.0,0.0,0.0,0.0,0.0,0.0,0.0,0.0,0.0,0.0,0.0,0.0,0.0,0.0,3.6405,3.6405,3.6405,3.6405,3.6405,3.6405,3.6405,3.6405,3.6405,3.6405,3.6405,3.6405,3.6405,3.6405,3.6405,3.6405,3.6405,3.6405,3.6405,3.6405,3.6405,3.6405,3.6405,3.6405,3.6405,0.0,0.0,0.0,0.0,0.0,0.0,0.0,0.0,0.0,3.6935,3.6732,3.6405,3.6405,3.6405,3.6405,3.6405,3.6405,3.6405,3.6405,3.6405,3.6405,3.6405,3.6405,3.6405,3.6405,3.6985,3.7613,3.7939,3.8668,0.0,0.0,0.0,0.0,0.0,0.0,0.0,0.0,0.0,0.0,0.0,0.0,0.0,0.0,0.0,0.0,0.0,0.0,0.0,0.0,4.4618,4.5171,4.6301,4.6301,4.6301,4.6301,4.6301,4.6301,4.6301,4.6301,4.6301,4.6301,4.6301,4.5999,4.5611,4.612,4.6301,4.6301,4.6301,4.6301,4.6301,4.6301,4.6552,4.6878,0.0,0.0,0.0,0.0,0.0,0.0,0.0,0.0,0.0,0.0,3.6405,3.6405,0.0,0.0,0.0,0.0,0.0,0.0,0.0,3.6405,3.6405,3.6405,3.6405,3.6405,3.6405,3.6405,3.6405,3.6405,3.6405,3.6405,3.6405,3.6405,3.6405,3.6405,3.6405,3.6405,3.6405,3.6405,3.6405,3.6405,3.6405,3.6405,3.643,0.0,0.0,0.0,0.0,0.0,0.0,0.0,0.0,0.0,3.7513,3.7136,3.6732,3.6732,3.6581,3.6405,3.6405,3.6405,3.6405,3.6405,3.6405,3.6405,3.6405,3.6405,3.6405,3.6405,3.7061,3.7739,3.7965,3.8743,0.0,0.0,0.0,0.0,0.0,0.0,0.0,0.0,0.0,0.0,0.0,0.0,0.0,0.0,0.0,0.0,0.0,0.0,0.0,0.0,4.4618,4.5171,4.6301,4.6301,4.6301,4.6301,4.6301,4.6301,4.6301,4.6301,4.6301,4.6301,4.6301,4.6301,4.6301,4.6301,4.6301,4.6301,4.6301,4.6451,4.6652,4.6652,4.6979,4.7431,0.0,0.0,0.0,0.0,0.0,0.0,0.0,0.0,0.0,0.0,3.6405,3.6405,0.0,0.0,0.0,0.0,0.0,0.0,0.0,3.6405,3.6405,3.6405,3.6405,3.6405,3.6405,3.6405,3.6405,3.6405,3.6405,3.6405,3.6405,3.6405,3.6405,3.6405,3.6405,3.6405,3.6405,3.6405,3.6405,3.6405,3.6455,3.648,3.6531,3.7061,0.0,0.0,0.0,0.0,0.0,0.0,0.0,0.0,3.809,3.7713,3.7236,3.7186,3.6908,3.6556,3.6505,3.648,3.648,3.648,3.6455,3.6405,3.6405,3.6405,3.6405,3.6405,0.0,3.7412,3.7914,3.8517,0.0,0.0,0.0,0.0,0.0,0.0,0.0,0.0,0.0,0.0,0.0,0.0,0.0,0.0,0.0,0.0,0.0,0.0,0.0,4.4593,4.4669,4.5221,4.6301,4.6301,4.6301,0.0,4.6301,4.6301,4.6301,4.6301,4.6301,4.6301,4.6301,4.6301,4.6301,4.6301,4.6301,4.6326,4.6376,4.6702,4.7093,4.7118,4.7531,4.7983,0.0,0.0,0.0,0.0,0.0,0.0,0.0,0.0,0.0,0.0,0.0,0.0,0.0,0.0,0.0,0.0,0.0,0.0,0.0,3.6405,3.6405,3.6405,3.6405,3.6405,3.6405,3.6405,3.6405,3.6405,3.6405,3.6405,3.6405,3.6405,3.6405,3.6405,3.6405,3.6405,3.6405,3.6405,3.6405,3.6455,3.6883,3.7059,3.7061,3.7613,3.7839,0.0,0.0,0.0,0.0,0.0,0.0,0.0,3.8743,3.8291,3.7739,3.7312,3.7412,3.7563,3.7136,3.7059,3.7059,3.7059,3.6732,3.6405,3.6405,3.6405,3.6405,3.6405,3.7136,3.7864,3.799,0.0,0.0,0.0,0.0,0.0,0.0,0.0,0.0,0.0,0.0,0.0,0.0,0.0,0.0,0.0,0.0,0.0,0.0,0.0,0.0,4.4593,4.507,4.5623,4.6301,4.6301,4.6301,0.0,4.6301,4.6301,4.6301,4.6301,4.6301,4.6301,4.6301,4.6301,4.6301,4.6301,4.6301,4.6351,4.6778,4.7029,4.7118,4.7581,4.8109,4.8586,0.0,0.0,0.0,0.0,0.0,0.0,0.0,0.0,0.0,0.0,0.0,0.0,0.0,0.0,0.0,0.0,0.0,0.0,0.0,0.0,3.6405,3.6405,3.6405,3.6405,3.6405,3.6405,3.6405,3.6405,3.6405,3.6405,3.6405,3.6405,3.6405,3.6405,3.6405,3.6405,3.643,3.6681,3.6807,3.6857,3.7362,3.7588,3.7638,3.8191,3.8417,3.8442,3.8718,0.0,0.0,0.0,0.0,0.0,0.0,0.0,3.8366,3.8065,3.799,3.7939,3.7663,3.7588,3.7588,3.7588,3.7362,3.7161,3.7161,3.7161,3.7161,3.7161,3.7613,3.809,0.0,0.0,0.0,0.0,0.0,0.0,0.0,0.0,0.0,0.0,0.0,0.0,0.0,0.0,0.0,0.0,0.0,0.0,0.0,4.3514,4.4066,4.4593,4.5196,4.5748,4.6301,4.6301,4.6301,4.6301,4.6301,4.6301,4.6301,4.6301,4.6301,4.6301,4.6301,4.6301,4.6301,4.6301,4.6476,4.6728,4.7029,4.7456,4.7958,4.8209,4.8686,4.9163,0.0,0.0,0.0,0.0,0.0,0.0,0.0,0.0,0.0,0.0,0.0,0.0,0.0,0.0,0.0,0.0,0.0,0.0,0.0,0.0,0.0,3.6405,3.6405,3.6455,3.6556,3.6556,3.6606,3.6707,3.6707,3.6707,3.6681,3.6505,3.6455,3.6556,3.6556,3.6606,3.6732,3.7136,3.7337,3.7387,3.7939,3.8165,3.8216,3.8793,3.907,3.9069,3.9521,3.9697,3.9697,3.9697,0.0,0.0,0.0,0.0,3.9045,3.8944,3.8592,3.8266,3.8191,3.8165,3.814,3.804,3.8015,3.8015,3.8015,3.8015,3.804,3.814,3.8165,0.0,0.0,0.0,0.0,0.0,0.0,0.0,0.0,0.0,0.0,0.0,0.0,0.0,0.0,0.0,0.0,0.0,0.0,0.0,4.2986,4.3589,4.4141,4.4618,4.5271,4.5849,4.6301,4.6301,4.6301,4.6301,4.6301,4.6301,4.6301,4.6301,4.6301,4.6301,4.6301,4.6376,4.6451,4.6451,4.6778,4.728,4.738,4.7983,4.8786,4.8887,4.9213,4.959,0.0,0.0,0.0,0.0,0.0,0.0,0.0,0.0,0.0,0.0,3.6405,3.6405,0.0,0.0,0.0,0.0,0.0,0.0,0.0,0.0,0.0,3.6405,3.6405,3.6631,3.7061,3.7086,3.7312,3.7789,3.7789,3.7789,3.7764,3.6857,3.6656,3.7086,3.7086,3.7337,3.7789,3.7864,3.7889,3.7939,3.8517,3.8768,3.8818,3.9371,3.9597,3.9597,3.9672,3.9697,3.9697,3.9697,3.9697,0.0,0.0,0.0,3.9496,3.907,3.9145,3.9371,3.8894,3.8768,3.8642,3.814,3.8015,3.8015,0.0,0.0,3.814,0.0,0.0,0.0,0.0,0.0,0.0,0.0,0.0,0.0,0.0,0.0,0.0,0.0,0.0,0.0,0.0,0.0,0.0,0.0,0.0,0.0,4.2986,4.3966,4.4543,4.4618,4.5648,4.6225,4.6301,4.6301,4.6301,4.6301,4.6301,4.6301,4.6301,4.6301,4.6301,4.6301,4.6301,4.6577,4.6968,4.6968,4.733,4.7857,4.836,4.8636,4.8837,4.9314,4.954,4.959,0.0,0.0,0.0,0.0,0.0,0.0,0.0,0.0,0.0,0.0,0.0,3.6405,0.0,0.0,0.0,0.0,0.0,0.0,0.0,0.0,0.0,3.7287,3.7287,3.7387,3.7638,3.7638,3.7764,3.8015,3.8015,3.8015,3.799,3.7513,3.7412,3.7638,3.7638,3.7789,3.8015,3.8341,3.8492,3.8542,3.9094,3.932,3.9346,3.9597,3.9697,3.9697,3.9697,3.9697,3.9697,3.9697,3.9697,3.9697,3.9697,0.0,0.0,0.0,3.9496,3.9647,3.9396,3.932,3.927,3.9019,3.8944,3.8944,3.8944,3.8944,3.9019,0.0,0.0,0.0,0.0,0.0,0.0,0.0,0.0,0.0,0.0,0.0,0.0,0.0,0.0,0.0,0.0,0.0,0.0,0.0,0.0,4.2986,4.2986,4.4016,4.4618,4.4618,4.5723,4.6301,4.6301,4.6301,4.6301,4.6301,4.6301,4.6301,4.6301,4.6301,4.6301,4.6301,4.6301,4.6627,4.7068,4.7068,4.7631,4.841,4.8661,4.8962,4.9264,4.9515,4.959,4.959,0.0,0.0,0.0,0.0,0.0,0.0,0.0,0.0,0.0,0.0,0.0,0.0,0.0,0.0,0.0,0.0,0.0,0.0,0.0,0.0,0.0,3.8015,3.8015,3.8065,3.8216,3.8216,3.8291,3.8442,3.8442,3.8442,3.8442,3.8442,3.8442,3.8442,3.8291,3.8291,3.8467,3.8894,3.9069,3.912,3.9521,3.9697,3.9697,3.9697,3.9697,3.9697,3.9697,3.9697,3.9697,3.9697,3.9697,3.9697,0.0,0.0,0.0,0.0,0.0,3.9697,3.9697,3.9697,3.9697,3.9697,3.9697,3.9697,0.0,0.0,3.9697,0.0,0.0,0.0,0.0,0.0,0.0,0.0,0.0,0.0,0.0,0.0,0.0,0.0,0.0,0.0,0.0,0.0,0.0,0.0,0.0,4.2986,4.2986,4.4016,4.4618,4.4618,4.5723,4.6301,4.6301,4.6301,4.6301,4.6301,4.6301,4.6301,4.6301,4.6301,4.6376,4.6527,4.6527,4.6828,4.733,4.7481,4.8109,4.8987,4.8987,4.9238,4.959,4.959,4.959,4.959,0.0,0.0,0.0,0.0,0.0,0.0,0.0,0.0,0.0,0.0,0.0,0.0,3.7086,3.7136,3.7362,3.7914,3.7965,0.0,0.0,0.0,0.0,3.8015,3.8015,0.0,3.8869,3.8818,3.9069,3.9597,3.9597,3.9597,3.9597,3.9597,3.9597,3.9597,3.9069,3.912,3.9597,3.9647,3.9647,3.9647,3.9697,3.9697,3.9697,3.9697,3.9697,3.9697,3.9697,3.9697,3.9697,3.9697,0.0,0.0,0.0,0.0,3.9697,0.0,0.0,0.0,3.9697,3.9697,3.9697,3.9697,3.9697,3.9697,0.0,0.0,0.0,0.0,0.0,0.0,0.0,0.0,0.0,0.0,0.0,0.0,0.0,0.0,0.0,0.0,0.0,0.0,0.0,0.0,0.0,0.0,0.0,4.2986,4.2986,4.4016,4.4618,4.4618,4.5723,4.6301,4.6301,4.6301,4.6301,4.6301,4.6301,4.6301,4.6301,4.6301,4.6602,4.7043,4.7043,4.738,4.7908,4.846,4.9038,4.9565,4.9565,4.9565,4.959,4.959,4.959,4.959,0.0,0.0,0.0,0.0,0.0,0.0,0.0,0.0,0.0,0.0,0.0,0.0,0.0,3.7713,3.7939,3.8517,3.8894,0.0,0.0,0.0,0.0,3.9094,3.9094,3.9195,3.9396,3.9396,3.9496,3.9697,3.9697,3.9697,3.9697,3.9697,3.9697,3.9697,3.9496,3.9521,3.9697,3.9697,3.9697,3.9697,3.9697,3.9697,3.9697,3.9697,3.9697,3.9697,3.9697,3.9697,3.9697,0.0,0.0,0.0,0.0,0.0,3.9697,3.9697,3.9697,3.9697,3.9697,3.9697,3.9697,3.9697,3.9697,3.9697,3.9697,3.9697,0.0,0.0,0.0,0.0,0.0,0.0,0.0,0.0,0.0,0.0,0.0,0.0,0.0,0.0,0.0,0.0,0.0,0.0,0.0,0.0,0.0,0.0,4.2986,4.4016,4.4618,4.4618,4.5723,4.6301,4.6301,4.6301,4.6301,4.6301,4.6301,4.6301,4.6326,4.6677,4.6954,4.7118,4.7883,4.8284,4.8485,4.8686,4.9113,4.959,4.959,4.959,4.959,4.959,4.959,4.959,0.0,0.0,0.0,0.0,0.0,0.0,0.0,0.0,0.0,3.7462,0.0,0.0,0.0,0.0,3.8542,3.9094,3.9471,3.9697,3.9697,3.9697,3.9697,3.9697,3.9697,3.9697,3.9697,3.9521,3.9496,3.9697,3.9496,3.9521,3.9697,3.9697,3.9697,3.9697,3.9697,3.9697,3.9697,3.9697,3.9697,3.9697,3.9697,3.9697,3.9697,3.9697,3.9697,3.9697,3.9697,3.9697,0.0,0.0,0.0,0.0,0.0,0.0,0.0,3.9697,3.9697,3.9697,3.9697,3.9697,3.9697,0.0,3.9697,3.9697,3.9697,0.0,0.0,0.0,0.0,0.0,0.0,0.0,0.0,0.0,0.0,0.0,0.0,0.0,0.0,0.0,0.0,0.0,0.0,0.0,0.0,0.0,0.0,0.0,4.2986,4.4016,4.4794,4.5171,4.5924,4.6301,4.6301,4.6301,4.6301,4.6301,4.6301,4.6301,4.6326,4.6878,4.723,4.7431,4.836,4.8761,4.8786,4.8962,4.9264,4.959,4.959,4.959,4.959,4.959,4.959,4.959,0.0,0.0,0.0,0.0,0.0,0.0,0.0,0.0,3.804,3.804,0.0,0.0,0.0,0.0,0.0,3.9647,3.9697,3.9697,3.9697,3.9697,3.9697,3.9697,0.0,0.0,3.9697,3.917,3.917,3.9697,3.917,3.917,3.9697,3.9697,3.9697,3.9697,3.9697,3.9697,3.9697,3.9697,3.9697,3.9697,3.9697,3.9697,3.9697,3.9697,3.9697,3.9697,3.9697,3.9697,0.0,3.9697,0.0,0.0,0.0,0.0,0.0,0.0,0.0,3.9697,0.0,0.0,0.0,0.0,0.0,0.0,3.9697,0.0,0.0,0.0,0.0,0.0,0.0,0.0,0.0,0.0,0.0,0.0,0.0,0.0,0.0,0.0,0.0,0.0,0.0,0.0,0.0,0.0,0.0,4.2986,4.2986,4.4016,4.5146,4.6276,4.6301,4.6301,4.6301,4.6301,4.6301,4.6301,4.6301,4.6326,4.6351,4.6903,4.7431,4.7958,4.8535,4.8786,4.8837,4.9364,4.959,4.959,4.959,4.959,4.959,4.959,4.959,4.959,0.0,0.0,0.0,0.0,0.0,0.0,3.799,3.8366,3.8617,0.0,0.0,0.0,3.9446,3.9471,3.9521,3.9672,3.9697,3.9697,3.9697,3.9697,3.9697,3.9697,3.9697,3.9697,3.9697,3.9546,3.9546,3.9697,3.9546,3.9546,3.9697,3.9697,3.9697,3.9697,3.9697,3.9697,3.9697,3.9697,3.9697,3.9697,3.9697,3.9697,3.9697,3.9697,3.9697,0.0,0.0,3.9697,3.9697,0.0,3.9697,3.9697,0.0,0.0,3.9697,0.0,0.0,0.0,3.9697,0.0,0.0,0.0,0.0,0.0,0.0,0.0,0.0,0.0,0.0,0.0,0.0,0.0,0.0,0.0,0.0,0.0,0.0,0.0,0.0,0.0,0.0,0.0,0.0,0.0,0.0,0.0,4.2986,4.2986,4.2986,4.4016,4.5146,4.6276,4.6301,4.6301,4.6301,4.6301,4.6301,4.6301,4.6301,4.6527,4.6928,4.7456,4.8008,4.856,4.9113,4.9364,4.9389,4.954,4.959,4.959,4.959,4.959,4.959,4.959,4.959,4.959,0.0,0.0,0.0,0.0,0.0,3.8442,3.8668,3.8994,3.922,0.0,0.0,0.0,3.9697,3.9697,3.9697,3.9697,3.9697,3.9697,3.9697,3.9697,3.9697,3.9697,3.9697,3.9697,3.9697,3.9471,3.9471,3.9697,3.9471,3.9471,3.9697,3.9697,3.9697,3.9697,3.9697,3.9697,3.9697,3.9697,3.9697,3.9697,3.9697,3.9697,3.9697,3.9697,3.9697,0.0,0.0,0.0,3.9697,3.9697,3.9697,0.0,0.0,0.0,0.0,0.0,0.0,0.0,3.9697,3.9697,0.0,0.0,0.0,0.0,3.9697,3.9697,3.9697,0.0,0.0,0.0,0.0,0.0,0.0,0.0,0.0,0.0,0.0,0.0,0.0,0.0,0.0,0.0,0.0,0.0,0.0,4.2986,4.2986,4.3187,4.3639,4.4267,4.5146,4.6276,4.6301,4.6301,4.6301,4.6301,4.6301,4.6301,4.6301,4.6602,4.7093,4.7682,4.8234,4.8812,4.9364,4.959,4.959,4.959,4.959,4.959,4.959,4.959,4.959,4.959,4.959,4.959,0.0,0.0,3.8366,3.8868,3.902,3.912,3.9622,3.9697,3.9697,0.0,3.9697,3.9697,3.9697,3.9697,3.9697,3.9697,3.9697,3.9697,3.9697,3.9697,3.9697,3.9697,3.9697,3.9697,3.9697,3.922,3.9195,3.9697,3.9195,3.922,3.9697,3.9697,3.9697,3.9697,3.9697,3.9697,3.9697,3.9697,3.9697,3.9697,3.9697,3.9697,3.9697,0.0,3.9697,3.9697,3.9772,3.9798,3.9798,3.9848,3.9873,0.0,0.0,0.0,0.0,0.0,3.9873,3.9873,3.9873,0.0,0.0,0.0,0.0,0.0,3.9697,3.9697,3.9697,0.0,0.0,0.0,0.0,0.0,0.0,0.0,0.0,0.0,0.0,0.0,0.0,0.0,0.0,0.0,0.0,4.2986,4.2986,4.2986,4.2986,4.3463,4.4568,4.4618,4.5146,4.6276,4.6301,4.6301,4.6301,4.6301,4.6301,4.6301,4.6301,4.6627,4.723,4.7707,4.8259,4.8887,4.9389,4.959,4.959,4.959,4.959,4.959,4.959,4.959,4.959,4.959,4.959,4.959,0.0,3.9371,3.9396,3.9521,3.9521,3.9572,3.9672,3.9697,3.9697,3.9697,3.9697,3.9697,3.9697,3.9697,3.9697,3.9697,3.9697,3.9697,3.9697,3.9697,3.9697,3.9697,3.9697,3.9697,3.9697,3.9597,3.9597,3.9697,3.9597,3.9597,3.9697,3.9697,3.9697,3.9697,3.9697,3.9697,3.9697,3.9697,3.9697,3.9697,3.9697,3.9697,3.9697,3.9697,3.9697,3.9747,4.0199,4.035,4.0425,4.0824,4.0974,4.0974,0.0,0.0,0.0,4.0974,0.0,0.0,0.0,0.0,0.0,0.0,0.0,0.0,3.9697,3.9697,3.9697,0.0,0.0,0.0,0.0,0.0,0.0,0.0,0.0,0.0,0.0,0.0,0.0,0.0,0.0,0.0,0.0,4.2986,4.2986,4.2986,4.2986,4.3463,4.4568,4.4618,4.5146,4.6276,4.6301,4.6301,4.6301,4.6301,4.6301,4.6301,4.6301,4.6828,4.7757,4.7857,4.846,4.9439,4.954,4.959,4.959,4.959,4.959,4.959,4.959,4.959,4.959,4.959,4.959,4.959,3.9697,3.9697,3.9697,3.9697,3.9697,3.9697,3.9697,3.9697,3.9697,3.9697,3.9697,3.9697,3.9697,3.9697,3.9697,3.9697,3.9697,3.9697,3.9697,3.9697,3.9697,3.9697,3.9697,3.9697,3.9697,3.9697,3.9697,3.9697,3.9697,3.9697,3.9697,3.9697,3.9697,3.9697,3.9973,4.0099,4.0124,4.04,4.0526,4.0501,4.0224,0.0,4.0149,4.04,4.0526,4.0551,4.0774,4.0874,4.0924,4.12,4.1275,0.0,0.0,4.1275,4.1275,0.0,4.1275,4.1275,0.0,0.0,0.0,4.0874,0.0,0.0,0.0,4.03,4.0099,0.0,0.0,0.0,0.0,0.0,0.0,0.0,0.0,0.0,0.0,0.0,0.0,0.0,0.0,0.0,0.0,4.2986,4.2986,4.2986,4.2986,4.3463,4.4568,4.4618,4.5146,4.6276,4.6301,4.6301,4.6301,4.6301,4.6301,4.6301,4.6602,4.7129,4.7908,4.8209,4.8812,4.959,4.959,4.959,4.959,4.959,4.959,4.959,4.959,4.959,4.959,4.959,4.959,4.959,3.9697,3.9697,3.9697,3.9697,3.9697,3.9697,3.9697,3.9697,3.9697,3.9697,3.9697,3.9697,3.9697,3.9697,3.9697,3.9697,3.9697,3.9747,3.9848,3.9848,3.9848,3.9848,3.9948,3.9948,3.9848,3.9948,4.0023,4.0023,4.0023,4.0023,4.0023,4.0023,4.0023,4.0023,4.0475,4.0676,4.0701,4.11,4.1275,4.125,0.0,4.0777,4.0727,4.1125,4.1275,4.13,4.1401,4.1555,4.1601,4.1601,4.1601,4.1601,4.1601,4.1601,0.0,0.0,0.0,0.0,0.0,0.0,0.0,0.0,0.0,4.1275,0.0,0.0,0.0,0.0,0.0,0.0,0.0,0.0,0.0,0.0,0.0,0.0,0.0,0.0,0.0,0.0,0.0,0.0,0.0,4.2911,4.2986,4.2986,4.2986,4.3463,4.4568,4.4618,4.5146,4.6276,4.6301,4.6301,4.6301,4.6301,4.6301,4.6326,4.6878,4.7405,4.7933,4.851,4.9063,4.959,4.959,4.959,4.959,4.959,4.959,4.959,4.959,4.959,4.959,4.959,4.959,4.959,3.9697,3.9697,3.9697,3.9697,3.9697,3.9697,3.9697,3.9697,3.9697,3.9697,3.9697,3.9697,3.9697,3.9697,3.9697,3.9697,3.9697,3.9898,4.04,4.0425,4.0425,4.0425,4.0849,4.0927,4.0425,4.0849,4.11,4.11,4.11,4.11,4.11,4.11,4.11,4.11,4.1175,4.12,4.12,4.125,4.1275,0.0,4.1806,4.1681,0.0,4.125,4.1275,4.1351,4.1882,4.2384,4.2785,0.0,4.2785,4.2785,0.0,4.2785,4.2785,0.0,0.0,0.0,0.0,0.0,0.0,0.0,4.1706,0.0,0.0,0.0,0.0,0.0,0.0,0.0,0.0,0.0,0.0,0.0,0.0,0.0,0.0,0.0,0.0,0.0,0.0,0.0,0.0,0.0,4.2986,4.2986,4.2986,4.3463,4.4568,4.4618,4.5146,4.6276,4.6301,4.6301,4.6301,4.6301,4.6301,4.6326,4.6878,4.7405,4.7933,4.851,4.9063,4.959,4.959,4.959,4.959,4.959,4.959,4.959,4.959,4.959,4.959,4.959,4.959,4.959,3.9697,3.9697,3.9697,3.9697,3.9697,3.9697,3.9697,3.9697,3.9697,3.9697,3.9697,3.9697,3.9697,3.9973,4.0049,3.9722,4.0275,4.0601,0.0,0.0,4.0949,4.0949,4.1175,4.1175,4.0949,4.1175,4.1275,4.1275,4.1275,4.1275,4.1275,4.1275,4.1275,4.13,4.1681,4.1806,4.1831,4.2158,4.2283,0.0,0.0,0.0,0.0,4.2283,4.2283,4.2333,4.2559,4.2841,4.2986,0.0,4.2986,0.0,0.0,0.0,0.0,0.0,0.0,0.0,0.0,0.0,0.0,0.0,0.0,0.0,4.2283,0.0,4.1806,0.0,0.0,0.0,0.0,0.0,0.0,0.0,0.0,0.0,0.0,0.0,0.0,0.0,0.0,0.0,0.0,0.0,0.0,0.0,0.0,4.3463,4.4568,4.4618,4.5146,4.6276,4.6301,4.6301,4.6301,4.6301,4.6301,4.6326,4.7179,4.7682,4.7933,4.8837,4.9364,4.959,4.959,4.959,4.959,4.959,4.959,4.959,4.959,4.959,4.959,4.959,4.959,4.959,3.9697,3.9697,3.9697,3.9697,3.9697,3.9697,3.9697,3.9697,3.9747,3.9898,3.9923,3.9973,4.0124,4.0501,4.0576,4.0174,4.0824,4.1175,0.0,0.0,4.1555,0.0,0.0,0.0,4.1555,4.1706,4.1781,4.1781,4.1781,4.1781,4.1781,4.1781,4.1781,4.1806,4.2208,4.2439,4.2464,4.2811,4.2986,4.2986,4.2986,4.2986,4.2986,4.2986,4.2986,4.2986,4.2986,4.2986,4.2986,4.2986,4.2986,0.0,4.2986,0.0,0.0,0.0,0.0,0.0,4.2986,0.0,0.0,0.0,0.0,0.0,0.0,0.0,0.0,0.0,0.0,0.0,0.0,0.0,0.0,0.0,0.0,0.0,0.0,0.0,0.0,0.0,0.0,0.0,0.0,0.0,0.0,4.2986,4.2986,4.3463,4.4568,4.4618,4.5146,4.6276,4.6301,4.6301,4.6301,4.6301,4.6376,4.6552,4.7481,4.7983,4.8184,4.9163,4.959,4.959,4.959,4.959,4.959,4.959,4.959,4.959,4.959,4.959,4.959,4.959,4.959,4.959,3.9697,3.9697,3.9697,3.9697,3.9697,3.9697,3.9697,3.9697,3.9898,4.0425,4.0501,4.0701,4.1175,4.125,4.125,4.1225,0.0,4.1555,4.2112,0.0,4.2187,0.0,0.0,4.2685,0.0,0.0,4.2936,4.2936,4.2936,4.2936,4.2936,4.2936,4.2936,4.2936,4.2936,4.2961,4.2961,4.2961,4.2986,4.2986,4.2986,4.2986,4.2986,0.0,4.2986,4.2986,4.2986,0.0,0.0,4.2986,4.2986,0.0,0.0,0.0,0.0,0.0,0.0,0.0,0.0,0.0,0.0,4.2986,0.0,0.0,0.0,0.0,4.2961,0.0,0.0,0.0,0.0,0.0,0.0,0.0,0.0,0.0,0.0,0.0,0.0,0.0,0.0,0.0,0.0,0.0,0.0,4.2986,4.2986,4.3463,4.4568,4.4618,4.5146,4.6276,4.6301,4.6301,4.6301,4.6301,4.6577,4.7043,4.7657,4.8209,4.8761,4.9339,4.959,4.959,4.959,4.959,4.959,4.959,4.959,4.959,4.959,4.959,4.959,4.959,4.959,4.959,4.0777,4.0777,4.0676,4.03,4.0249,4.035,4.0674,4.0777,4.0852,4.0974,4.1,0.0,0.0,4.1656,4.1731,0.0,0.0,4.2359,4.2213,4.2564,0.0,0.0,0.0,4.2942,0.0,0.0,0.0,4.2986,4.2986,4.2986,4.2986,4.2986,4.2986,4.2986,4.2986,4.2986,0.0,0.0,0.0,0.0,0.0,4.2986,4.2986,0.0,0.0,4.2986,4.2986,4.2986,0.0,4.2986,4.2986,4.2986,4.2986,4.2986,4.2986,4.2986,4.2986,0.0,0.0,0.0,4.2986,4.2986,0.0,0.0,0.0,0.0,0.0,0.0,0.0,0.0,0.0,0.0,0.0,0.0,0.0,0.0,0.0,0.0,0.0,0.0,0.0,0.0,0.0,0.0,0.0,4.2986,4.3313,4.384,0.0,4.4995,4.5522,4.6276,4.6301,4.6301,4.6301,4.6301,4.6602,4.7093,4.7657,4.8209,4.8786,4.9339,4.959,4.959,4.959,4.959,4.959,4.959,4.959,4.959,4.959,4.959,4.959,4.959,4.959,4.959,4.1275,4.1275,4.1175,4.0824,4.0749,4.0874,4.1225,4.1275,4.1351,0.0,4.163,0.0,4.1907,0.0,4.2308,0.0,4.2585,4.2836,4.2514,4.2841,0.0,4.2986,4.2986,0.0,0.0,0.0,0.0,0.0,4.2986,4.2986,4.2986,4.2986,4.2986,4.2986,4.2986,4.2986,4.2986,4.2986,4.2986,0.0,0.0,4.2986,0.0,0.0,4.2986,4.2986,0.0,4.2986,4.2986,4.2986,4.2986,4.2986,4.2986,4.2986,4.2986,4.2986,4.2986,4.2986,4.2986,4.2986,0.0,4.2986,4.2986,0.0,4.2986,0.0,0.0,0.0,0.0,0.0,0.0,0.0,0.0,0.0,0.0,0.0,0.0,0.0,0.0,0.0,0.0,0.0,0.0,0.0,4.2986,4.2986,4.3489,4.4041,0.0,0.0,4.5748,4.6301,4.6301,4.6301,4.6301,4.6301,4.6677,4.7405,4.7732,4.8309,4.9088,4.9439,4.959,4.959,4.959,4.959,4.959,4.959,4.959,4.959,4.959,4.959,4.959,4.959,4.959,4.959,4.1351,4.1351,4.1351,4.1351,4.1351,4.1351,0.0,0.0,4.1605,0.0,4.2263,4.2439,4.2911,4.2986,4.2986,4.2986,4.2986,4.2986,4.2986,4.2986,0.0,0.0,4.2986,4.2986,4.2986,0.0,0.0,0.0,0.0,4.2986,4.2986,4.2986,4.2986,4.2986,4.2986,4.2986,4.2986,4.2986,4.2986,4.2986,4.2986,4.2986,4.2986,4.2986,4.2986,4.2986,4.2986,4.2986,4.2986,4.2986,4.2986,4.2986,4.2986,4.2986,4.2986,4.2986,4.2986,4.2986,4.2986,4.2986,4.2986,4.2986,0.0,0.0,0.0,0.0,4.2986,0.0,0.0,0.0,0.0,0.0,0.0,0.0,0.0,0.0,0.0,0.0,0.0,0.0,0.0,0.0,0.0,4.2986,4.2986,4.2986,4.3514,0.0,0.0,0.0,4.5773,4.6301,4.6301,4.6301,4.6301,4.6301,4.6853,4.7908,4.7908,4.851,4.959,4.959,4.959,4.959,4.959,4.959,4.959,4.959,4.959,4.959,4.959,4.959,4.959,4.959,4.959,4.959,4.2559,4.2559,4.2559,4.2559,4.2559,4.2559,0.0,0.0,0.0,0.0,4.276,4.2866,4.2961,4.2986,4.2986,4.2986,4.2986,0.0,0.0,0.0,0.0,4.2986,4.2986,4.2986,4.2986,4.2986,0.0,4.2986,0.0,4.2986,4.2986,4.2986,4.2986,4.2986,4.2986,4.2986,4.2986,4.2986,4.2986,4.2986,4.2986,4.2986,0.0,0.0,4.2986,4.2986,4.2986,4.2986,4.2986,4.2986,4.2986,4.2986,4.2986,4.2986,4.2986,4.2986,4.2986,4.2986,4.2986,4.2986,4.2986,4.2986,4.2986,4.2986,0.0,0.0,0.0,0.0,0.0,0.0,0.0,0.0,0.0,0.0,0.0,0.0,0.0,0.0,0.0,0.0,0.0,0.0,0.0,4.2986,4.2986,4.2986,4.3865,0.0,0.0,0.0,0.0,4.6301,4.6301,4.6301,4.6301,4.6301,4.6853,4.7908,4.7908,4.851,4.959,4.959,4.959,4.959,4.959,4.959,4.959,4.959,4.959,4.959,4.959,4.959,4.959,4.959,4.959,4.959,4.2986,4.2986,4.2986,4.2986,0.0,0.0,4.2986,4.2986,0.0,4.2986,4.2986,0.0,4.2986,4.2986,4.2986,4.2986,4.2986,0.0,4.2986,0.0,0.0,4.2986,4.2986,4.2986,4.2986,4.2986,0.0,4.2986,0.0,4.2986,4.2986,4.2986,4.2986,4.2986,4.2986,4.2986,4.2986,4.2986,4.2986,4.2986,4.2986,0.0,0.0,4.2986,4.2986,4.2986,4.2986,4.2986,4.2986,4.2986,4.2986,4.2986,4.2986,4.2986,4.2986,4.2986,4.2986,4.2986,4.2986,4.2986,4.2986,4.2986,4.2986,4.2986,4.2986,4.2986,4.2986,0.0,0.0,0.0,0.0,0.0,0.0,0.0,0.0,0.0,0.0,0.0,0.0,0.0,0.0,0.0,0.0,0.0,0.0,0.0,0.0,0.0,0.0,0.0,0.0,4.6301,4.6301,4.6301,4.6301,4.6552,4.7079,4.7908,4.8159,4.8736,4.959,4.959,4.959,4.959,4.959,4.959,4.959,4.959,4.959,4.959,4.959,4.959,4.959,4.959,4.959,4.959,4.2986,4.2986,4.2986,0.0,0.0,0.0,0.0,4.2986,0.0,4.2986,0.0,4.2986,4.2986,4.2986,4.2986,4.2986,0.0,4.2986,4.2986,4.2986,4.2986,4.2986,4.2986,4.2986,4.2986,4.2986,4.2986,0.0,0.0,4.2986,4.2986,4.2986,4.2986,4.2986,4.2986,0.0,0.0,4.2986,4.2986,4.2986,4.2986,4.2986,4.2986,4.2986,4.2986,4.2986,4.2986,4.2986,4.2986,4.2986,4.2986,4.2986,4.2986,4.2986,4.2986,4.2986,4.2986,4.2986,4.2986,4.2986,4.2986,4.2986,4.2986,4.2986,4.2986,4.2986,4.2986,4.2986,4.2986,4.2986,0.0,0.0,0.0,0.0,0.0,0.0,0.0,0.0,0.0,0.0,0.0,0.0,0.0,0.0,0.0,0.0,0.0,0.0,0.0,0.0,0.0,4.6301,4.6301,0.0,4.6301,0.0,4.738,4.7908,4.8485,4.9063,4.959,4.959,4.959,4.959,4.959,4.959,4.959,4.959,4.959,4.959,4.959,4.959,4.959,4.959,4.959,4.959,4.2986,4.2986,4.2986,4.2986,0.0,4.2986,4.2986,4.2986,4.2986,4.2986,4.2986,4.2986,4.2986,4.2986,4.2986,4.2986,4.2986,0.0,0.0,0.0,0.0,4.2986,4.2986,4.2986,4.2986,4.2986,4.2986,0.0,0.0,0.0,4.2986,4.2986,4.2986,4.2986,4.2986,0.0,4.2986,4.2986,0.0,4.2986,4.2986,4.2986,4.2986,4.2986,4.2986,4.2986,4.2986,4.2986,4.2986,4.2986,4.2986,4.2986,4.2986,4.2986,4.2986,4.2986,4.2986,4.2986,4.2986,4.2986,4.2986,4.2986,4.2986,4.2986,4.2986,4.2986,4.2986,4.2986,4.2986,4.2986,4.2986,0.0,0.0,0.0,0.0,0.0,0.0,0.0,0.0,0.0,0.0,0.0,0.0,0.0,0.0,0.0,0.0,0.0,0.0,0.0,0.0,0.0,0.0,0.0,0.0,0.0,4.738,4.7908,4.8485,4.9063,4.959,4.959,4.959,4.959,4.959,4.959,4.959,4.959,4.959,4.959,4.959,4.959,4.959,4.959,4.959,4.959,4.2986,4.2986,4.2986,4.2986,0.0,0.0,0.0,4.2986,0.0,4.2986,4.2986,4.2986,4.2986,4.2986,4.2986,4.2986,4.2986,4.2986,4.2986,4.2986,4.2986,4.2986,4.2986,0.0,4.2986,4.2986,4.2986,4.2986,0.0,0.0,4.2986,0.0,0.0,4.2986,0.0,4.2986,0.0,0.0,0.0,4.2986,4.2986,4.2986,4.2986,4.2986,4.2986,4.2986,4.2986,4.3162,4.3363,4.3062,4.2986,4.2986,4.2986,4.3162,4.3413,4.3413,4.3614,4.384,4.384,4.384,4.384,4.384,4.384,4.384,4.384,4.384,4.384,4.384,4.384,4.384,4.384,4.384,0.0,0.0,0.0,0.0,0.0,0.0,0.0,0.0,0.0,0.0,0.0,0.0,0.0,0.0,0.0,0.0,0.0,0.0,0.0,0.0,0.0,0.0,0.0,0.0,0.0,4.836,4.8937,4.9339,4.959,4.959,4.959,4.959,4.959,4.959,4.959,4.959,4.959,4.959,4.959,4.959,4.959,4.959,4.959,4.959,4.2986,4.2986,0.0,0.0,4.2986,0.0,4.2986,4.2986,4.2986,4.2986,4.2986,4.2986,4.2986,4.2986,4.2986,4.2986,4.2986,4.2986,4.2986,4.2986,4.2986,4.2986,4.2986,4.2986,4.2986,4.2986,4.2986,0.0,0.0,0.0,0.0,0.0,0.0,0.0,0.0,0.0,0.0,0.0,4.2986,4.2986,4.2986,4.2986,4.2986,4.2986,4.3062,4.3162,4.3162,4.3514,4.3915,4.3463,4.3338,4.3338,4.3338,4.3639,4.3966,4.3966,4.4292,4.4618,4.4618,4.4618,4.4618,4.4618,4.4618,4.4618,4.4618,4.4618,4.4618,4.4618,4.4618,4.4618,4.4618,4.4618,0.0,0.0,0.0,0.0,0.0,0.0,0.0,0.0,0.0,0.0,0.0,0.0,0.0,0.0,0.0,0.0,0.0,0.0,0.0,0.0,0.0,4.6577,4.7068,0.0,4.8209,0.0,4.9339,4.959,4.959,4.959,4.959,4.959,4.959,4.959,4.959,4.959,4.959,4.959,4.959,4.959,4.959,4.959,4.959,4.959,0.0,0.0,0.0,0.0,0.0,0.0,4.2986,4.2986,4.2986,4.2986,4.2986,4.2986,4.2986,4.2986,4.2986,4.2986,4.2986,4.2986,4.2986,4.2986,4.2986,4.2986,4.2986,4.2986,4.2986,4.2986,4.2986,0.0,0.0,0.0,0.0,0.0,0.0,0.0,0.0,0.0,0.0,4.2986,4.2986,4.2986,4.2986,4.2986,4.2986,4.2986,4.3288,4.374,4.374,4.4091,4.4543,4.4493,4.4468,4.4468,4.4468,4.4493,4.4543,4.4543,4.4593,4.4618,4.4618,4.4618,4.4618,4.4618,4.4618,4.4618,4.4618,4.4618,4.4618,4.4618,4.4618,4.4618,4.4618,4.4618,4.4593,0.0,0.0,0.0,0.0,0.0,0.0,0.0,0.0,0.0,0.0,0.0,0.0,0.0,0.0,0.0,0.0,0.0,0.0,4.6301,0.0,4.6577,4.7068,4.7657,0.0,4.8786,4.9339,4.959,4.959,4.959,4.959,4.959,4.959,4.959,4.959,4.959,4.959,4.959,4.959,4.959,4.959,4.959,4.959,4.959,0.0,0.0,0.0,0.0,0.0,0.0,0.0,4.2986,4.2986,4.2986,4.2986,4.2986,4.2986,4.2986,4.2986,4.2986,4.2986,4.2986,4.2986,4.2986,4.2986,4.2986,4.2986,4.2986,4.2986,4.2986,4.2986,0.0,0.0,0.0,0.0,0.0,0.0,0.0,0.0,4.2986,4.2986,4.2986,4.2986,4.3011,4.3338,4.3463,4.3514,4.384,4.4091,4.4292,4.4292,4.4669,4.5146,4.5146,4.492,4.4618,4.4618,4.4869,4.5146,4.5146,4.5372,4.5648,4.5648,4.5648,4.5648,4.5648,4.5648,4.5648,4.5648,4.5648,4.5648,4.5648,4.5648,4.5648,4.5648,4.5648,4.5522,0.0,0.0,0.0,0.0,0.0,0.0,0.0,0.0,0.0,0.0,0.0,0.0,0.0,0.0,0.0,0.0,0.0,0.0,4.6301,0.0,4.7054,4.7581,4.8159,4.8711,4.9264,4.949,4.959,4.959,4.959,4.959,4.959,4.959,4.959,4.959,4.959,4.959,4.959,4.959,4.959,4.959,4.959,4.959,4.959,4.2986,0.0,4.2986,0.0,4.2986,4.2986,4.2986,4.2986,4.2986,4.2986,4.3112,4.3162,4.2986,4.2986,4.2986,4.2986,4.2986,4.2986,4.2986,4.2986,4.2986,4.2986,4.2986,0.0,4.2986,4.2986,4.2986,4.2986,4.2986,0.0,0.0,0.0,0.0,0.0,4.2986,4.2986,4.2986,4.3162,4.3212,4.3263,4.3815,4.4041,4.4091,4.4468,4.4719,4.4869,4.4869,4.5246,4.5723,4.5723,4.5447,4.5121,4.5121,4.5397,4.5723,4.5723,4.5999,4.6301,4.6301,4.6301,4.6301,4.6301,4.6301,4.6301,4.6301,4.6301,4.6301,4.6301,4.6301,4.6301,4.6301,4.6301,4.6175,4.5799,0.0,0.0,0.0,0.0,0.0,0.0,4.6075,4.6301,4.6301,0.0,0.0,0.0,0.0,0.0,0.0,0.0,0.0,0.0,0.0,0.0,0.0,4.856,4.9063,4.959,4.959,4.959,4.959,4.959,4.959,4.959,4.959,4.959,4.959,4.959,4.959,4.959,4.959,4.959,4.959,4.959,4.959,4.959,4.2986,4.2986,4.2986,4.2986,4.2986,4.2986,4.2986,4.2986,4.2986,4.2986,4.3463,4.3589,4.3037,4.2986,4.2986,4.2986,4.2986,4.2986,4.2986,4.2986,4.2986,0.0,0.0,4.2986,4.2986,4.2986,4.2986,4.2986,0.0,0.0,4.2213,0.0,4.2514,4.2986,4.2986,4.2986,4.3011,4.3564,4.379,4.384,4.4392,4.4618,4.4618,4.4618,4.497,4.5472,4.5472,4.5824,4.6301,4.6301,4.6301,4.6301,4.6301,4.6301,4.6301,4.6301,4.6301,4.6301,4.6301,4.6301,4.6301,4.6301,4.6301,4.6301,4.6301,4.6301,4.6301,4.6301,4.6301,4.6301,4.6301,4.6301,4.6301,4.6301,0.0,0.0,0.0,0.0,0.0,0.0,4.6301,4.6301,4.6301,0.0,0.0,0.0,0.0,0.0,0.0,0.0,0.0,4.7043,4.7068,0.0,4.8761,4.8761,4.9063,4.959,4.959,4.959,4.959,4.959,4.959,4.959,4.959,4.959,4.959,4.959,4.959,4.959,4.959,4.959,4.959,4.959,4.959,4.959,4.2986,4.3288,4.3539,4.3539,4.384,4.4091,4.4091,4.4091,4.4091,4.4091,4.4242,4.4292,4.4116,4.3765,4.3539,0.0,4.3187,4.2986,0.0,4.2986,4.2986,4.2986,4.2986,4.2986,4.2986,4.2986,4.2986,4.2986,0.0,0.0,0.0,4.2766,4.2811,4.2986,4.3363,4.3539,4.3589,4.4141,4.4367,4.4418,4.497,4.5221,4.5246,4.5623,4.5899,4.605,4.605,4.6175,4.6301,4.6301,4.6301,4.6301,4.6301,4.6301,4.6301,4.6301,4.6301,4.6301,4.6301,4.6301,4.6301,4.6301,4.6301,4.6301,4.6301,4.6301,4.6301,4.6301,4.6301,4.6301,4.6301,4.6301,4.6301,4.6301,4.6301,0.0,0.0,0.0,0.0,0.0,4.6301,4.6301,0.0,4.6301,0.0,0.0,0.0,0.0,0.0,0.0,0.0,0.0,4.7857,0.0,4.8761,4.9138,4.9414,4.959,4.959,4.959,4.959,4.959,4.959,4.959,4.959,4.959,4.959,4.959,4.959,4.959,4.959,4.959,4.959,4.959,4.959,4.959,4.3589,4.3865,4.4116,4.4116,4.4392,4.4618,4.4618,4.4618,4.4618,4.4618,4.4819,4.4945,4.4945,4.4644,0.0,4.4141,4.379,4.3589,4.3589,4.3589,4.3589,4.3589,4.3589,4.3589,4.3589,0.0,0.0,4.3589,4.3589,4.3589,4.3589,4.3589,4.3589,4.3614,4.3966,4.4116,4.4141,4.4719,4.4945,4.4995,4.5573,4.5799,4.5824,4.6175,4.6301,4.6301,4.6301,4.6301,4.6301,4.6301,4.6301,4.6301,4.6301,4.6301,4.6301,4.6301,4.6301,4.6301,4.6301,4.6301,4.6301,4.6301,4.6301,4.6301,4.6301,4.6301,4.6301,4.6301,4.6301,4.6301,4.6301,4.6301,4.6301,4.6301,4.6301,4.6301,4.6301,0.0,0.0,0.0,0.0,0.0,0.0,4.6627,0.0,0.0,0.0,0.0,0.0,0.0,0.0,4.7732,4.841,0.0,4.9088,4.9414,4.959,4.959,4.959,4.959,4.959,4.959,4.959,4.959,4.959,4.959,4.959,4.959,4.959,4.959,4.959,4.959,4.959,4.959,4.959,4.959,4.4618,4.4644,0.0,0.0,4.4719,0.0,4.4744,4.4744,4.4744,4.4744,4.5221,4.5547,4.5547,4.5547,4.5321,4.4794,0.0,0.0,0.0,4.4618,4.4618,4.4618,4.4618,4.4618,4.4618,4.4618,4.4618,4.4618,4.4618,4.4618,4.4618,4.4618,4.4618,4.4618,4.4669,4.4694,4.4719,4.5296,4.5547,4.5598,4.61,4.6301,4.6301,4.6301,4.6301,4.6301,4.6301,4.6301,4.6301,4.6301,4.6301,4.6301,4.6301,4.6326,4.6351,4.6326,4.6301,4.6301,4.6301,4.6301,4.6326,4.6351,4.6401,4.6426,4.6426,4.6426,4.6426,4.6426,4.6426,4.6426,4.6426,4.6426,4.6426,4.6426,4.6426,4.6426,4.6426,0.0,0.0,0.0,0.0,0.0,0.0,4.7179,4.738,0.0,0.0,0.0,0.0,0.0,4.7707,4.8736,4.8812,4.9088,4.959,4.959,4.959,4.959,4.959,4.959,4.959,4.959,4.959,4.959,4.959,4.959,4.959,4.959,4.959,4.959,4.959,4.959,4.959,4.959,4.959,4.959,0.0,0.0,4.5271,4.5271,4.5623,4.5924,4.5924,4.5924,4.5924,4.5924,4.6024,4.6125,4.6125,4.6125,4.605,4.5924,4.5121,4.4618,4.4618,4.4618,4.4618,4.4618,4.4618,4.4618,4.4618,4.4618,4.4618,4.4618,4.4618,4.4618,4.4618,4.4618,4.4618,4.4644,4.507,4.5271,4.5321,4.5874,4.6125,4.6125,4.625,4.6301,4.6301,4.6301,4.6301,4.6301,4.6301,4.6301,4.6301,4.6301,4.6301,4.6301,4.6301,4.6602,4.6853,4.6426,4.6301,4.6301,4.6301,4.6301,4.6401,4.6828,4.723,4.7531,4.7531,4.7531,4.7531,4.7531,4.7531,4.7531,4.7531,4.7531,4.7531,4.7531,4.7531,4.7531,4.7531,4.7531,0.0,0.0,4.7531,4.7581,4.7707,4.7732,4.7782,0.0,0.0,0.0,0.0,4.846,4.851,4.8761,4.9188,4.9464,4.959,4.959,4.959,4.959,4.959,4.959,4.959,4.959,4.959,4.959,4.959,4.959,4.959,4.959,4.959,4.959,4.959,4.959,4.959,4.959,4.959,4.959,4.5397,4.5648,4.5874,4.5874,4.6125,4.6301,4.6301,4.6301,4.6301,4.6301,4.6301,4.6301,4.6301,4.6301,4.6301,4.6301,4.5748,4.5397,4.5397,4.5397,4.5397,4.5397,4.5397,4.5397,4.5397,4.5397,4.5397,4.5397,4.5397,4.5397,4.5397,4.5397,4.5397,4.5397,4.5723,4.5874,4.5874,4.6175,4.6301,4.6301,4.6301,4.6301,4.6301,4.6301,4.6301,4.6301,4.6301,4.6301,4.6351,4.6602,4.6702,4.6728,4.6954,4.7255,4.7431,4.7129,4.7029,4.7029,4.7029,4.7029,4.7104,4.7405,4.7707,4.7908,4.7908,4.7908,4.7908,4.7908,4.7908,4.7908,4.7908,4.7908,4.7908,4.7908,4.7908,4.7908,4.7908,4.7908,0.0,4.7908,4.7908,4.8008,4.8284,4.8309,4.841,4.8661,0.0,0.0,4.9138,4.9163,4.9163,4.9163,4.9439,4.959,4.959,4.959,4.959,4.959,4.959,4.959,4.959,4.959,4.959,4.959,4.959,4.959,4.959,4.959,4.959,4.959,4.959,4.959,4.959,4.959,4.959,4.959,4.6301,4.6301,4.6301,4.6301,4.6301,4.6301,4.6301,4.6301,4.6301,4.6301,4.6301,4.6301,4.6301,4.6301,4.6301,4.6301,4.6301,4.6301,4.6301,4.6301,4.6301,4.6301,4.6301,4.6301,4.6301,4.6301,4.6301,4.6301,4.6301,4.6301,4.6301,4.6301,4.6301,4.6301,4.6301,4.6301,4.6301,4.6301,4.6301,4.6301,4.6301,4.6301,4.6301,4.6301,4.6301,4.6326,4.6401,4.6426,4.6527,4.7054,4.7193,4.733,4.7782,4.7958,4.8033,4.8033,4.8083,4.8134,4.7958,4.7983,4.8033,4.8033,4.8109,4.8159,4.8159,4.8159,4.8159,4.8159,4.8159,4.8159,4.8159,4.8159,4.8159,4.8159,4.8159,4.8159,4.8159,0.0,4.8159,4.8159,4.8159,4.836,4.8862,4.8887,4.9088,4.9565,4.959,4.959,0.0,4.959,4.959,4.959,4.959,4.959,4.959,4.959,4.959,4.959,4.959,4.959,4.959,4.959,4.959,4.959,4.959,4.959,4.959,4.959,4.959,4.959,4.959,4.959,4.959,4.959,4.959,4.959,4.6301,4.6301,4.6301,4.6301,4.6301,4.6301,4.6301,4.6301,4.6301,4.6301,4.6301,4.6301,4.6301,4.6301,4.6301,4.6301,4.6301,4.6301,4.6301,4.6301,4.6301,4.6301,4.6301,4.6301,4.6301,4.6301,4.6301,4.6301,4.6301,4.6301,4.6301,4.6301,4.6301,4.6301,4.6301,4.6301,4.6301,4.6301,4.6301,4.6301,4.6301,4.6301,4.6301,4.6301,4.6301,4.6376,4.6828,4.7004,4.7079,4.7606,4.7782,4.7807,4.7883,4.8234,4.8636,4.8636,4.8962,4.9113,4.8159,4.8259,4.8636,4.8636,4.8987,4.9339,4.9339,4.9339,4.9339,4.9339,4.9339,4.9339,4.9339,4.9339,4.9339,4.9339,4.9339,4.9339,4.9339,0.0,4.9339,4.9339,4.9339,4.9364,4.9464,4.9464,4.9515,4.959,4.959,4.959,4.959,4.959,4.959,4.959,4.959,4.959,4.959,4.959,4.959,4.959,4.959,4.959,4.959,4.959,4.959,4.959,4.959,4.959,4.959,4.959,4.959,4.959,4.959,4.959,4.959,4.959,4.959,4.959,4.6301,4.6301,4.6301,4.6301,4.6301,4.6301,4.6301,4.6301,4.6301,4.6301,4.6301,4.6301,4.6301,4.6301,4.6301,4.6301,4.6301,4.6301,4.6301,4.6301,4.6301,4.6301,4.6301,4.6301,4.6301,4.6301,4.6301,4.6301,4.6301,4.6301,4.6301,4.6301,4.6301,4.6301,4.6301,4.6301,4.6301,4.6301,4.6301,4.6301,4.6301,4.6502,4.6753,4.6753,4.6928,4.7205,4.7456,4.7556,4.7631,4.8184,4.836,4.8435,4.8711,4.9012,4.9213,4.9213,4.9389,4.949,4.8962,4.9012,4.9213,4.9213,4.9414,4.959,4.959,4.959,4.959,4.959,4.959,4.959,4.959,4.959,4.959,4.959,4.959,0.0,0.0,4.959,4.959,4.959,4.959,4.959,4.959,4.959,4.959,4.959,4.959,4.959,4.959,4.959,4.959,4.959,4.959,4.959,4.959,4.959,4.959,4.959,4.959,4.959,4.959,4.959,4.959,4.959,4.959,4.959,4.959,4.959,4.959,4.959,4.959,4.959,4.959,4.959,4.959,4.959,4.6301,4.6301,4.6301,4.6301,4.6301,4.6301,4.6301,4.6301,4.6301,4.6301,4.6301,4.6301,4.6301,4.6301,4.6301,4.6301,4.6301,4.6301,4.6301,4.6301,4.6301,4.6301,4.6301,4.6301,4.6301,4.6301,4.6301,4.6301,4.6301,4.6301,4.6301,4.6301,4.6301,4.6301,4.6301,4.6301,4.6301,4.6301,4.6376,4.6502,4.6502,4.6828,4.7305,4.7305,4.7556,4.7933,4.8058,4.8109,4.8184,4.8761,4.8962,4.9038,4.9464,4.959,4.959,4.959,4.959,4.959,4.959,4.959,4.959,4.959,4.959,4.959,4.959,4.959,4.959,4.959,4.959,4.959,4.959,4.959,4.959,4.959,0.0,0.0,0.0,4.959,4.959,4.959,4.959,4.959,4.959,4.959,4.959,4.959,4.959,4.959,4.959,4.959,4.959,4.959,4.959,4.959,4.959,4.959,4.959,4.959,4.959,4.959,4.959,4.959,4.959,4.959,4.959,4.959,4.959,4.959,4.959,4.959,4.959,4.959,4.959,4.959,4.959,4.959,4.6301,4.6301,4.6301,4.6301,4.6301,4.6301,4.6301,4.6301,4.6301,4.6301,4.6301,4.6301,4.6301,4.6301,4.6301,4.6301,4.6301,4.6301,4.6301,4.6301,4.6301,4.6301,4.6301,4.6301,4.6301,4.6301,4.6301,4.6301,4.6301,4.6301,4.6301,4.6301,4.6301,4.6301,4.6301,4.6301,4.6301,4.6301,4.6602,4.7018,4.7018,4.738,4.7857,4.7857,4.7883,4.7983,4.851,4.8711,4.8786,4.9339,4.954,4.954,4.959,4.959,4.959,4.959,4.959,4.959,4.959,4.959,4.959,4.959,4.959,4.959,4.959,4.959,4.959,4.959,4.959,4.959,4.959,4.959,4.959,4.959,0.0,0.0,4.959,4.959,4.959,4.959,4.959,4.959,4.959,4.959,4.959,4.959,4.959,4.959,4.959,4.959,4.959,4.959,4.959,4.959,4.959,4.959,4.959,4.959,4.959,4.959,4.959,4.959,4.959,4.959,4.959,4.959,4.959,4.959,4.959,4.959,4.959,4.959,4.959,4.959,4.959,4.959,4.6301,4.6301,4.6301,4.6301,4.6301,4.6301,4.6301,4.6301,4.6301,4.6301,4.6301,4.6301,4.6301,4.6301,4.6301,4.6301,4.6301,4.6301,4.6301,4.6301,4.6301,4.6301,4.6301,4.6301,4.6301,4.6301,4.6301,4.6301,4.6301,4.6301,4.6301,4.6301,4.6301,4.6301,4.6301,4.6502,4.6828,4.6828,4.7129,4.7606,4.7606,4.7933,4.8435,4.8435,4.8661,4.8987,4.9213,4.9289,4.9314,4.9515,4.959,4.959,4.959,4.959,4.959,4.959,4.959,4.959,4.959,4.959,4.959,4.959,4.959,4.959,4.959,4.959,4.959,4.959,4.959,4.959,4.959,4.959,4.959,4.959,0.0,4.959,4.959,4.959,4.959,4.959,4.959,4.959,4.959,4.959,4.959,4.959,4.959,4.959,4.959,4.959,4.959,4.959,4.959,4.959,4.959,4.959,4.959,4.959,4.959,4.959,4.959,4.959,4.959,4.959,4.959,4.959,4.959,4.959,4.959,4.959,4.959,4.959,4.959,4.959,4.959,4.959,4.6301,4.6301,4.6301,4.6301,4.6301,4.6301,4.6301,4.6301,4.6301,4.6301,4.6301,4.6301,4.6301,4.6301,4.6301,4.6301,4.6301,4.6301,4.6301,4.6301,4.6301,4.6301,4.6301,4.6301,4.6301,4.6301,4.6301,4.6301,4.6301,4.6301,4.6301,4.6301,4.6401,4.6577,4.6577,4.6878,4.738,4.738,4.7682,4.8184,4.8184,4.851,4.9038,4.9038,4.9264,4.959,4.959,4.959,4.959,4.959,4.959,4.959,4.959,4.959,4.959,4.959,4.959,4.959,4.959,4.959,4.959,4.959,4.959,4.959,4.959,4.959,4.959,4.959,4.959,4.959,4.959,4.959,4.959,4.959,4.959,4.959,4.959,4.959,4.959,4.959,4.959,4.959,4.959,4.959,4.959,4.959,4.959,4.959,4.959,4.959,4.959,4.959,4.959,4.959,4.959,4.959,4.959,4.959,4.959,4.959,4.959,4.959,4.959,4.959,4.959,4.959,4.959,4.959,4.959,4.959,4.959,4.959,4.959,4.959,4.959,4.959,4.6301,4.6301,4.6301,4.6301,4.6301,4.6301,4.6301,4.6301,4.6301,4.6301,4.6301,4.6301,4.6301,4.6301,4.6301,4.6301,4.6301,4.6301,4.6301,4.6301,4.6301,4.6301,4.6301,4.6301,4.6301,4.6301,4.6301,4.6301,4.6301,4.6301,4.6326,4.6326,4.6602,4.7093,4.7093,4.7431,4.7908,4.7908,4.8259,4.8786,4.8786,4.9113,4.959,4.959,4.959,4.959,4.959,4.959,4.959,4.959,4.959,4.959,4.959,4.959,4.959,4.959,4.959,4.959,4.959,4.959,4.959,4.959,4.959,4.959,4.959,4.959,4.959,4.959,4.959,4.959,4.959,4.959,4.959,4.959,4.959,4.959,4.959,4.959,4.959,4.959,4.959,4.959,4.959,4.959,4.959,4.959,4.959,4.959,4.959,4.959,4.959,4.959,4.959,4.959,4.959,4.959,4.959,4.959,4.959,4.959,4.959,4.959,4.959,4.959,4.959,4.959,4.959,4.959,4.959,4.959,4.959,4.959,4.959,4.959,4.959,4.959,4.6301,4.6301,4.6301,4.6301,4.6301,4.6301,4.6301,4.6301,4.6301,4.6301,4.6301,4.6301,4.6301,4.6301,4.6301,4.6301,4.6301,4.6301,4.6301,4.6301,4.6301,4.6301,4.6301,4.6301,4.6301,4.6301,4.6301,4.6301,4.6301,4.6502,4.6878,4.6878,4.7179,4.7682,4.7682,4.7983,4.851,4.851,4.8837,4.9339,4.9339,4.9439,4.959,4.959,4.959,4.959,4.959,4.959,4.959,4.959,4.959,4.959,4.959,4.959,4.959,4.959,4.959,4.959,4.959,4.959,4.959,4.959,4.959,4.959,4.959,4.959,4.959,4.959,4.959,4.959,4.959,4.959,4.959,4.959,4.959,4.959,4.959,4.959,4.959,4.959,4.959,4.959,4.959,4.959,4.959,4.959,4.959,4.959,4.959,4.959,4.959,4.959,4.959,4.959,4.959,4.959,4.959,4.959,4.959,4.959,4.959,4.959,4.959,4.959,4.959,4.959,4.959,4.959,4.959,4.959,4.959,4.959,4.959,4.959,4.959,4.959,4.6301,4.6301,4.6301,4.6301,4.6301,4.6301,4.6301,4.6301,4.6301,4.6301,4.6301,4.6301,4.6301,4.6301,4.6301,4.6301,4.6301,4.6301,4.6301,4.6301,4.6401,4.6627,4.6652,4.6527,4.6326,4.6527,4.6652,4.6652,4.6828,4.7104,4.7431,4.7431,4.7732,4.8259,4.8259,4.856,4.9113,4.9113,4.9289,4.959,4.959,4.959,4.959,4.959,4.959,4.959,4.959,4.959,4.959,4.959,4.959,4.959,4.959,4.959,4.959,4.959,4.959,4.959,4.959,4.959,4.959,4.959,4.959,4.959,4.959,4.959,4.959,4.959,4.959,4.959,4.959,4.959,4.959,4.959,4.959,4.959,4.959,4.959,4.959,4.959,4.959,4.959,4.959,4.959,4.959,4.959,4.959,4.959,4.959,4.959,4.959,4.959,4.959,4.959,4.959,4.959,4.959,4.959,4.959,4.959,4.959,4.959,4.959,4.959,4.959,4.959,4.959,4.959,4.959,4.959,4.959,4.959,4.959,4.959,4.959,4.959,4.6301,4.6301,4.6301,4.6301,4.6301,4.6301,4.6301,4.6301,4.6301,4.6301,4.6301,4.6301,4.6301,4.6301,4.6301,4.6301,4.6351,4.6376,4.6376,4.6426,4.6677,4.7179,4.7143,4.6954,4.6451,4.6954,4.7143,4.7143,4.7682,4.7933,4.7983,4.7983,4.8284,4.8837,4.8837,4.9113,4.959,4.959,4.959,4.959,4.959,4.959,4.959,4.959,4.959,4.959,4.959,4.959,4.959,4.959,4.959,4.959,4.959,4.959,4.959,4.959,4.959,4.959,4.959,4.959,4.959,4.959,4.959,4.959,4.959,4.959,4.959,4.959,4.959,4.959,4.959,4.959,4.959,4.959,4.959,4.959,4.959,4.959,4.959,4.959,4.959,4.959,4.959,4.959,4.959,4.959,4.959,4.959,4.959,4.959,4.959,4.959,4.959,4.959,4.959,4.959,4.959,4.959,4.959,4.959,4.959,4.959,4.959,4.959,4.959,4.959,4.959,4.959,4.959,4.959,4.959,4.959,4.959,4.959,4.959,4.959,4.6301,4.6301,4.6301,4.6301,4.6301,4.6301,4.6301,4.6301,4.6301,4.6301,4.6301,4.6301,4.6301,4.6301,4.6301,4.6301,4.6702,4.6954,4.6954,4.733,4.7606,4.7732,4.7732,4.7682,4.7556,4.7682,4.7732,4.7732,4.7857,4.8134,4.8586,4.8586,4.8887,4.9414,4.9414,4.949,4.959,4.959,4.959,4.959,4.959,4.959,4.959,4.959,4.959,4.959,4.959,4.959,4.959,4.959,4.959,4.959,4.959,4.959,4.959,4.959,4.959,4.959,4.959,4.959,4.959,4.959,4.959,4.959,4.959,4.959,4.959,4.959,4.959,4.959,4.959,4.959,4.959,4.959,4.959,4.959,4.959,4.959,4.959,4.959,4.959,4.959,4.959,4.959,4.959,4.959,4.959,4.959,4.959,4.959,4.959,4.959,4.959,4.959,4.959,4.959,4.959,4.959,4.959,4.959,4.959,4.959,4.959,4.959,4.959,4.959,4.959,4.959,4.959,4.959,4.959,4.959,4.959,4.959,4.959,4.959,4.6301,4.6301,4.6301,4.6301,4.6301,4.6301,4.6301,4.6301,4.6301,4.6301,4.6301,4.6301,4.6301,4.6301,4.6426,4.6677,4.7179,4.7506,4.7506,4.7757,4.8033,4.8309,4.8309,4.8435,4.8711,4.8711,4.8586,4.8309,4.8586,4.8862,4.9163,4.9163,4.9314,4.959,4.959,4.959,4.959,4.959,4.959,4.959,4.959,4.959,4.959,4.959,4.959,4.959,4.959,4.959,4.959,4.959,4.959,4.959,4.959,4.959,4.959,4.959,4.959,4.959,4.959,4.959,4.959,4.959,4.959,4.959,4.959,4.959,4.959,4.959,4.959,4.959,4.959,4.959,4.959,4.959,4.959,4.959,4.959,4.959,4.959,4.959,4.959,4.959,4.959,4.959,4.959,4.959,4.959,4.959,4.959,4.959,4.959,4.959,4.959,4.959,4.959,4.959,4.959,4.959,4.959,4.959,4.959,4.959,4.959,4.959,4.959,4.959,4.959,4.959,4.959,4.959,4.959,4.959,4.959,4.959,4.959,4.959,4.6301,4.6301,4.6301,4.6301,4.6301,4.6301,4.6301,4.6301,4.6301,4.6301,4.6401,4.6451,4.6451,4.6527,4.6778,4.723,4.7757,4.8058,4.8058,4.8134,4.841,4.8887,4.8912,4.9113,4.959,4.959,4.9364,4.8912,4.9364,4.959,4.959,4.959,4.959,4.959,4.959,4.959,4.959,4.959,4.959,4.959,4.959,4.959,4.959,4.959,4.959,4.959,4.959,4.959,4.959,4.959,4.959,4.959,4.959,4.959,4.959,4.959,4.959,4.959,4.959,4.959,4.959,4.959,4.959,4.959,4.959,4.959,4.959,4.959,4.959,4.959,4.959,4.959,4.959,4.959,4.959,4.959,4.959,4.959,4.959,4.959,4.959,4.959,4.959,4.959,4.959,4.959,4.959,4.959,4.959,4.959,4.959,4.959,4.959,4.959,4.959,4.959,4.959,4.959,4.959,4.959,4.959,4.959,4.959,4.959,4.959,4.959,4.959,4.959,4.959,4.959,4.959,4.959,4.959,4.959,4.959,4.959,4.6301,4.6301,4.6301,4.6301,4.6301,4.6301,4.6301,4.6301,4.6301,4.6301,4.6728,4.7029,4.7029,4.7431,4.7732,4.7807,4.8335,4.8661,4.8661,4.9113,4.9414,4.949,4.949,4.9515,4.959,4.959,4.9565,4.949,4.9565,4.959,4.959,4.959,4.959,4.959,4.959,4.959,4.959,4.959,4.959,4.959,4.959,4.959,4.959,4.959,4.959,4.959,4.959,4.959,4.959,4.959,4.959,4.959,4.959,4.959,4.959,4.959,4.959,4.959,4.959,4.959,4.959,4.959,4.959,4.959,4.959,4.959,4.959,4.959,4.959,4.959,4.959,4.959,4.959,4.959,4.959,4.959,4.959,4.959,4.959,4.959,4.959,4.959,4.959,4.959,4.959,4.959,4.959,4.959,4.959,4.959,4.959,4.959,4.959,4.959,4.959,4.959,4.959,4.959,4.959,4.959,4.959,4.959,4.959,4.959,4.959,4.959,4.959,4.959,4.959,4.959,4.959,4.959,4.959,4.959,4.959,4.959,4.6301,4.6301,4.6301,4.6301,4.6301,4.6301,4.6301,4.6577,4.6778,4.6778,4.723,4.7556,4.7556,4.8058,4.8385,4.8385,4.8912,4.9238,4.9238,4.9464,4.959,4.959,4.959,4.959,4.959,4.959,4.959,4.959,4.959,4.959,4.959,4.959,4.959,4.959,4.959,4.959,4.959,4.959,4.959,4.959,4.959,4.959,4.959,4.959,4.959,4.959,4.959,4.959,4.959,4.959,4.959,4.959,4.959,4.959,4.959,4.959,4.959,4.959,4.959,4.959,4.959,4.959,4.959,4.959,4.959,4.959,4.959,4.959,4.959,4.959,4.959,4.959,4.959,4.959,4.959,4.959,4.959,4.959,4.959,4.959,4.959,4.959,4.959,4.959,4.959,4.959,4.959,4.959,4.959,4.959,4.959,4.959,4.959,4.959,4.959,4.959,4.959,4.959,4.959,4.959,4.959,4.959,4.959,4.959,4.959,4.959,4.959,4.959,4.959,4.959,4.959,4.959,4.959,4.959,4.959,4.959]}]]